[[{"header":{"parameterUnit":"m.s-1","parameterCategory":1,"la1":30.6,"la2":29.2853,"lo1":-89.7004,"lo2":-87.6739,"dy":0.0162,"dx":0.0183,"nx":112,"ny":82,"refTime":"2026-03-14T12:00:00:Z","depth":0,"parameterNumber":2,"parameterNumberName":"U-component_of_WINDS"},"data":[0.0,0.0,0.0,0.0,0.0,0.0,0.0,0.0,0.0,0.0,0.0,0.0,0.0,0.0,0.0,0.0,0.0,0.0,0.0,0.0,0.0,0.0,0.0,0.0,0.0,0.0,0.0,0.0,0.0,0.0,0.0,0.0,0.0,0.0,0.0,0.0,0.0,0.0,0.0,0.0,0.0,0.0,0.0,0.0,0.0,0.0,0.0,0.0,0.0,0.0,0.0,0.0,0.0,0.0,0.0,0.0,0.0,0.0,0.0,0.0,0.0,0.0,0.0,0.0,0.0,0.0,0.0,0.0,0.0,0.0,0.0,0.0,0.0,0.0,0.0,0.0,0.0,0.0,0.0,0.0,0.0,0.0,0.0,0.0,0.0,0.0,0.0,0.0,0.0,0.0,0.0,-0.0405,-0.0489,-0.0626,-0.0784,-0.0604,-0.0644,-0.1032,0.0,0.0,0.0,0.0,0.0,0.0,0.0,0.0,0.0,0.0,0.0,0.0,0.0,0.0,0.0,0.0,0.0,0.0,0.0,0.0,0.0,0.0,0.0,0.0,0.0,0.0,0.0,0.0,0.0,0.0,0.0,0.0,0.0,0.0,0.0,0.0,0.0,0.0,0.0,0.0,0.0,0.0,0.0,0.0,0.0,0.0,0.0,0.0,0.0,0.0,0.0,0.0,0.0,0.0,0.0,0.0,0.0,0.0,0.0,0.0,0.0,0.0,0.0,0.0,0.0,0.0,0.0,0.0,0.0,0.0,0.0,0.0,0.0,0.0,0.0,0.0,0.0,0.0,0.0,0.0,0.0,0.0,0.0,0.0,0.0,0.0,0.0,0.0,0.0,0.0,0.0,0.0,0.0,0.0,0.0,0.0,0.0,0.0,0.0,0.0,0.0,0.0,0.0,0.0,-0.0281,-0.0238,-0.0597,-0.0821,-0.0797,-0.0809,-0.097,-0.1323,0.0,0.0,0.0,0.0,0.0,0.0,0.0,0.0,0.0,0.0,0.0,0.0,0.0,0.0,0.0,0.0,0.0,0.0,0.0,0.0,0.0,0.0,0.0,0.0,0.0,0.0,0.0,0.0,0.0,0.0,0.0,0.0,0.0,0.0,0.0,0.0,0.0,0.0,0.0,0.0,0.0,0.0,0.0,0.0,0.0,0.0,0.0,0.0,0.0,0.0,0.0,0.0,0.0,0.0,0.0,0.0,0.0,0.0,0.0,0.0,0.0,0.0,0.0,0.0,0.0,0.0,0.0,0.0,0.0,0.0,0.0,0.0,0.0,0.0,0.0,0.0,0.0,0.0,0.0,0.0,0.0,0.0,0.0,0.0,0.0,0.0,0.0,0.0,0.0,0.0,0.0,0.0,0.0,0.0,0.0,0.0,0.0,0.0,0.0,0.0,0.0,0.0,0.0,-0.0486,-0.0245,-0.035,-0.0678,-0.0875,-0.0808,-0.0989,-0.1169,-0.129,-0.1137,0.0,0.0,0.0,0.0,0.0,0.0,0.0,0.0,0.0,0.0,0.0,0.0,0.0,0.0,0.0,0.0,0.0,0.0,0.0,0.0,0.0,0.0,0.0,0.0,0.0,0.0,0.0,0.0,0.0,0.0,0.0,0.0,0.0,0.0,0.0,0.0,0.0,0.0,0.0,0.0,0.0,0.0,0.0,0.0,0.0,0.0,0.0,0.0,0.0,0.0,0.0,0.0,0.0,0.0,0.0,0.0,0.0,0.0,0.0,0.0,0.0,0.0,0.0,0.0,0.0,0.0,0.0,0.0,0.0,0.0,0.0,0.0,0.0,0.0,0.0,0.0,0.0,0.0,0.0,0.0,0.0,0.0,0.0,0.0,0.0,0.0,0.0,0.0,0.0,0.0,0.0,0.0,0.0,0.0,0.0,0.0,0.0,0.0,0.0,0.0,0.0,0.0,-0.0482,-0.0344,-0.0549,-0.0807,-0.0974,-0.0991,-0.1164,-0.1277,-0.1267,-0.1224,0.0,0.0,0.0,0.0,0.0,0.0,0.0,0.0,0.0,0.0,0.0,0.0,0.0,0.0,0.0,0.0,0.0,0.0,0.0,0.0,0.0,0.0,0.0,0.0,0.0,0.0,0.0,0.0,0.0,0.0,0.0,0.0,0.0,0.0,0.0,0.0,0.0,0.0,0.0,0.0,0.0,0.0,0.0,0.0,0.0,0.0,0.0,0.0,0.0,0.0,0.0,0.0,0.0,0.0,0.0,0.0,0.0,0.0,0.0,0.0,0.0,0.0,0.0,0.0,0.0,0.0,0.0,0.0,0.0,0.0,0.0,0.0,0.0,0.0,0.0,0.0,0.0,0.0,0.0,0.0,0.0,0.0,0.0,0.0,0.0,0.0,0.0,0.0,0.0,0.0,0.0,0.0,0.0,0.0,0.0,0.0,0.0,0.0,0.0,0.0,0.0,0.0,-0.0575,-0.0549,-0.0751,-0.1022,-0.1273,-0.1525,-0.1339,-0.1292,-0.1466,-0.1475,0.0,0.0,0.0,0.0,0.0,0.0,0.0,0.0,0.0,0.0,0.0,0.0,0.0,0.0,0.0,0.0,0.0,0.0,0.0,0.0,0.0,0.0,0.0,0.0,0.0,0.0,0.0,0.0,0.0,0.0,0.0,0.0,0.0,0.0,0.0,0.0,0.0,0.0,0.0,0.0,0.0,0.0,0.0,0.0,0.0,0.0,0.0,0.0,0.0,0.0,0.0,0.0,0.0,0.0,0.0,0.0,0.0,0.0,0.0,0.0,0.0,0.0,0.0,0.0,0.0,0.0,0.0,0.0,0.0,0.0,0.0,0.0,0.0,0.0,0.0,0.0,0.0,0.0,0.0,0.0,0.0,0.0,0.0,0.0,0.0,0.0,0.0,0.0,0.0,0.0,0.0,0.0,0.0,0.0,0.0,0.0,0.0,0.0,0.0,0.0,0.0,0.0,-0.0754,-0.0551,0.0,-0.1108,-0.1343,-0.1529,-0.1515,-0.1543,-0.1618,0.0,0.0,0.0,0.0,0.0,0.0,0.0,0.0,0.0,0.0,0.0,0.0,0.0,0.0,0.0,0.0,0.0,0.0,0.0,0.0,0.0,0.0,0.0,0.0,0.0,0.0,0.0,0.0,0.0,0.0,0.0,0.0,0.0,0.0,0.0,0.0,0.0,0.0,0.0,0.0,0.0,0.0,0.0,0.0,0.0,0.0,0.0,0.0,0.0,0.0,0.0,0.0,0.0,0.0,0.0,0.0,0.0,0.0,0.0,0.0,0.0,0.0,0.0,0.0,0.0,0.0,0.0,0.0,0.0,0.0,0.0,0.0,0.0,0.0,0.0,0.0,0.0,0.0,0.0,0.0,0.0,0.0,0.0,0.0,0.0,0.0,0.0,0.0,0.0,0.0,0.0,0.0,0.0,0.0,0.0,0.0,0.0,0.0,0.0,0.0,0.0,0.0,-0.1365,-0.0887,-0.0623,0.0,-0.1115,-0.127,-0.1422,-0.1443,-0.1486,-0.1562,0.0,0.0,0.0,0.0,0.0,0.0,0.0,0.0,0.0,0.0,0.0,0.0,0.0,0.0,0.0,0.0,0.0,0.0,0.0,0.0,0.0,0.0,0.0,0.0,0.0,0.0,0.0,0.0,0.0,0.0,0.0,0.0,0.0,0.0,0.0,0.0,0.0,0.0,0.0,0.0,0.0,0.0,0.0,0.0,0.0,0.0,0.0,0.0,0.0,0.0,0.0,0.0,0.0,0.0,0.0,0.0,0.0,0.0,0.0,0.0,0.0,0.0,0.0,0.0,0.0,0.0,0.0,0.0,0.0,0.0,0.0,0.0,0.0,0.0,0.0,0.0,0.0,0.0,0.0,0.0,0.0,0.0,0.0,0.0,0.0,0.0,0.0,0.0,0.0,0.0,0.0,0.0,0.0,0.0,0.0,0.0,0.0,0.0,0.0,0.0,0.0,0.0,-0.1276,-0.0953,-0.0805,-0.1069,-0.1031,-0.1082,-0.1281,-0.1054,-0.1018,0.0,0.0,0.0,0.0,0.0,0.0,0.0,0.0,0.0,0.0,0.0,0.0,0.0,0.0,0.0,0.0,0.0,0.0,0.0,0.0,0.0,0.0,0.0,0.0,0.0,0.0,0.0,0.0,0.0,0.0,0.0,0.0,0.0,0.0,0.0,0.0,0.0,0.0,0.0,0.0,0.0,0.0,0.0,0.0,0.0,0.0,0.0,0.0,0.0,0.0,0.0,0.0,0.0,0.0,0.0,0.0,0.0,0.0,0.0,0.0,0.0,0.0,0.0,0.0,0.0,0.0,0.0,0.0,0.0,0.0,0.0,0.0,0.0,0.0,0.0,0.0,0.0,0.0,0.0,0.0,0.0,0.0,0.0,0.0,0.0,0.0,0.0,0.0,0.0,0.0,0.0,0.0,0.0,0.0,0.0,0.0,0.0,0.0,0.0,0.0,0.0,0.0,0.0,-0.1263,-0.0787,-0.0558,-0.0924,-0.0937,-0.0973,-0.108,-0.0978,-0.097,-0.1144,0.0,0.0,0.0,0.0,0.0,0.0,0.0,0.0,0.0,0.0,0.0,0.0,0.0,0.0,0.0,0.0,0.0,0.0,0.0,0.0,0.0,0.0,0.0,0.0,0.0,0.0,0.0,0.0,0.0,0.0,0.0,0.0,0.0,0.0,0.0,0.0,0.0,0.0,0.0,0.0,0.0,0.0,0.0,0.0,0.0,0.0,0.0,0.0,0.0,0.0,0.0,0.0,0.0,0.0,0.0,0.0,0.0,0.0,0.0,0.0,0.0,0.0,0.0,0.0,0.0,0.0,0.0,0.0,0.0,0.0,0.0,0.0,0.0,0.0,0.0,0.0,0.0,0.0,0.0,0.0,0.0,0.0,0.0,0.0,0.0,0.0,0.0,0.0,0.0,0.0,0.0,0.0,0.0,0.0,0.0,0.0,0.0,0.0,0.0,0.0,0.0,0.0,-0.1151,-0.0803,-0.0608,-0.0794,-0.0794,-0.0772,-0.0762,-0.0648,-0.0676,-0.0891,0.0,0.0,0.0,0.0,0.0,0.0,0.0,0.0,0.0,0.0,0.0,0.0,0.0,0.0,0.0,0.0,0.0,0.0,0.0,0.0,0.0,0.0,0.0,0.0,0.0,0.0,0.0,0.0,0.0,0.0,0.0,0.0,0.0,0.0,0.0,0.0,0.0,0.0,0.0,0.0,0.0,0.0,0.0,0.0,0.0,0.0,0.0,0.0,0.0,0.0,0.0,0.0,0.0,0.0,0.0,0.0,0.0,0.0,0.0,0.0,0.0,0.0,0.0,0.0,0.0,0.0,0.0,0.0,0.0,0.0,0.0,0.0,0.0,0.0,0.0,0.0,0.0,0.0,0.0,0.0,0.0,0.0,0.0,0.0,0.0,0.0,0.0,0.0,0.0,0.0,0.0,0.0,0.0,0.0,0.0,0.0,0.0,0.0,0.0,0.0,0.0,0.0,-0.0946,-0.0884,-0.0791,-0.0664,-0.06,-0.0512,-0.0396,-0.0207,-0.0235,-0.0545,0.0,0.0,0.0,0.0,0.0,0.0,0.0,0.0,0.0,0.0,0.0,0.0,0.0,0.0,0.0,0.0,0.0,0.0,0.0,0.0,0.0,0.0,0.0,0.0,0.0,0.0,0.0,0.0,0.0,0.0,0.0,0.0,0.0,0.0,0.0,0.0,0.0,0.0,0.0,0.0,0.0,0.0,0.0,0.0,0.0,0.0,0.0,0.0,0.0,0.0,0.0,0.0,0.0,0.0,0.0,0.0,0.0,0.0,0.0,0.0,-0.623,0.0,0.0,0.0,0.0,0.0,0.0,0.0,0.0,0.0,0.0,0.0,0.0,0.0,0.0,0.0,0.0,0.0,0.0,0.0,0.0,0.0,0.0,0.0,0.0,0.0,0.0,0.0,0.0,0.0,0.0,0.0,0.0,0.0,0.0,0.0,0.0,0.0,0.0,0.0,0.0,0.0,-0.0553,-0.0421,-0.034,-0.0312,-0.0288,-0.0275,-0.0248,-0.0156,-0.0157,-0.0274,-0.0427,0.0,0.0,0.0,0.0,0.0,0.0,0.0,0.0,0.0,0.0,0.0,0.0,0.0,0.0,0.0,0.0,0.0,0.0,0.0,0.0,0.0,0.0,0.0,0.0,0.0,0.0,0.0,0.0,0.0,0.0,0.0,0.0,0.0,0.0,0.0,0.0,0.0,0.0,0.0,0.0,0.0,0.0,0.0,0.0,0.0,0.0,0.0,0.0,0.0,0.0,0.0,0.0,0.0,0.0,0.0,0.0,0.0,0.0,0.0,0.0,-0.6272,0.0,0.0,0.0,0.0,0.0,0.0,0.0,0.0,0.0,0.0,0.0,0.0,0.0,0.0,0.0,0.0,0.0,0.0,0.0,0.0,0.0,0.0,0.0,0.0,0.0,0.0,0.0,0.0,0.0,0.0,0.0,0.0,0.0,0.0,0.0,0.0,0.0,0.0,0.0,0.0,-0.036,-0.0268,-0.02,-0.0203,-0.0174,-0.0153,-0.0147,-0.0086,-0.0052,-0.0059,-0.0271,0.0,0.0,0.0,0.0,0.0,0.0,0.0,0.0,0.0,0.0,0.0,0.0,0.0,0.0,0.0,0.0,0.0,0.0,0.0,0.0,0.0,0.0,0.0,0.0,0.0,0.0,0.0,0.0,0.0,0.0,0.0,0.0,0.0,0.0,0.0,0.0,0.0,0.0,0.0,0.0,0.0,0.0,0.0,0.0,0.0,0.0,0.0,0.0,0.0,0.0,0.0,0.0,0.0,-0.9466,-0.9403,-0.9437,-0.8523,-0.8025,-0.7852,-0.6574,-0.5912,-0.5788,-0.6263,0.0,0.0,0.0,0.0,0.0,0.0,0.0,0.0,0.0,0.0,0.0,0.0,0.0,0.0,0.0,0.0,0.0,0.0,0.0,0.0,0.0,0.0,0.0,0.0,0.0614,0.0634,0.0805,0.0,0.0,0.0,0.0,0.0,0.0,0.0,0.0,0.0,0.0,0.0,-0.0264,-0.0255,-0.0236,-0.0177,-0.0174,-0.015,-0.0093,-0.0023,0.0044,0.0099,-0.0147,-0.0217,0.0,0.0,0.0,0.0,0.0,0.0,0.0,0.0,0.0,0.0,0.0,0.0,0.0,0.0,0.0,0.0,0.0,0.0,0.0,0.0,0.0,0.0,0.0,0.0,0.0,0.0,0.0,0.0,0.0,0.0,0.0,0.0,-0.8672,-0.9456,0.0,0.0,0.0,0.0,0.0,0.0,0.0,0.0,0.0,0.0,0.0,0.0,0.0,-1.0392,-1.054,-1.052,-1.0115,-0.928,-0.9479,-0.9203,-0.8561,-0.8477,-0.8425,-0.8371,-0.7892,0.0,-0.6693,-0.6437,0.0,0.0,0.0,0.0,0.0,0.0,0.0,0.0,0.0,0.0,0.0,0.0,0.0,0.0,0.0,0.0,0.0,0.0,0.0,0.0,0.0,0.0,0.0825,0.0788,0.086,0.0943,0.0,0.0693,0.0405,0.0292,0.018,0.0,0.0,0.0,0.0,0.0,0.0,0.0,-0.0148,-0.0326,-0.0347,-0.0054,-0.0275,-0.0336,-0.0038,0.005,0.0094,0.0099,0.0118,0.0131,0.0157,0.0132,0.0,0.0,0.0,0.0,0.0,0.0,0.0,0.0,0.0,0.0,0.0,0.0,0.0,0.0,0.0,0.0,0.0,0.0,0.0,0.0,0.0,0.0,0.0,0.0,0.0,0.0,0.0,0.0,0.0,-0.9509,-1.0072,-1.0678,-1.047,-1.0519,0.0,0.0,0.0,0.0,0.0,0.0,0.0,0.0,0.0,-1.0466,-1.1307,-1.1471,-1.0795,-1.1041,-1.085,-1.0264,-1.0203,-0.9987,-0.9632,-0.927,-0.9016,-0.8819,-0.8444,-0.7997,-0.7495,-0.7132,-0.694,-0.6897,0.0,0.0,0.0,0.0,-0.5811,-0.5352,-0.4577,-0.4177,-0.3898,-0.313,0.0,0.0,0.0,0.0,0.0,0.0,0.0,0.0,0.0,0.0,0.0028,0.0155,0.0309,0.0437,0.0439,0.0412,0.041,0.0,0.0243,0.0051,-0.0121,0.0,0.0,0.0,0.0,-0.0086,-0.0146,-0.029,-0.0296,-0.0084,-0.026,-0.023,0.0135,0.0155,0.0172,0.0206,0.0208,0.0221,0.0258,0.0217,0.0189,0.0,0.0,0.0,0.0,0.0,0.0,0.0,0.0,0.0,0.0,0.0,0.0,0.0,0.0,0.0,0.0,0.0,0.0,0.0,0.0,0.0,0.0,0.0,0.0,0.0,0.0,0.0,0.0,-1.0278,-1.0802,-1.1637,-1.1433,-1.1408,0.0,0.0,0.0,0.0,0.0,0.0,-1.2032,-1.2512,-1.2256,-1.1182,-1.2127,-1.2245,-1.1362,-1.1733,-1.1877,-1.1759,-1.1512,-1.1348,-1.1217,-1.058,-1.0099,-0.9745,-0.931,-0.8836,-0.8361,-0.774,-0.7405,-0.7252,-0.6955,-0.6937,-0.7002,-0.6637,-0.6145,-0.5535,-0.4784,-0.4264,-0.3812,-0.3106,-0.2871,-0.2852,-0.2731,0.0,0.0,0.0,0.0,-0.1772,-0.1181,-0.0908,-0.0733,-0.0488,-0.0286,-0.0124,-0.0048,0.0126,0.0334,0.0,0.0337,0.0111,-0.0026,0.0,0.0,0.0,0.0,-0.0053,-0.0256,-0.0344,-0.0319,-0.0118,-0.0214,-0.0138,0.0261,0.0257,0.0219,0.0228,0.0244,0.0255,0.0275,0.0241,0.0234,0.0252,0.0,0.0,0.0,0.0,0.0,0.0,0.0,0.0,0.0,0.0,0.0,0.0,0.0,0.0,0.0,0.0,0.0,0.0,0.0,0.0,0.0,0.0,0.0,0.0,0.0,0.0,0.0,0.0,0.0,-1.1596,-1.2009,0.0,0.0,0.0,0.0,-1.3104,-1.283,-1.2646,-1.2577,-1.2961,-1.2682,-1.1599,-1.2239,-1.2757,-1.3074,-1.3111,-1.3276,-1.3573,-1.3552,-1.334,-1.2951,-1.2406,-1.1942,-1.1546,-1.1011,-1.0301,-0.9402,-0.7986,-0.7328,-0.7148,-0.6644,-0.6401,-0.6276,-0.5688,-0.561,-0.5625,-0.4438,-0.4143,-0.4137,-0.3339,-0.2958,-0.2722,-0.2284,-0.2442,0.0,0.0,-0.1711,-0.1723,-0.1008,-0.0809,-0.079,-0.0773,-0.0677,-0.0478,-0.0164,-0.0075,0.0018,0.0,0.0352,0.0309,0.0364,0.0,-0.0097,-0.0111,-0.0306,-0.047,-0.0486,-0.0599,-0.0534,-0.0149,-0.0217,-0.0131,0.0262,0.029,0.0218,0.0025,0.0246,0.0335,0.0212,0.0266,0.0327,0.0388,0.0334,0.0,0.0,0.0,0.0,0.0,0.0,0.0,0.0,0.0,0.0,0.0,0.0,0.0,0.0,0.0,0.0,0.0,0.0,0.0,0.0,0.0,0.0,0.0,0.0,0.0,0.0,0.0,0.0,-1.3351,-1.3236,0.0,-1.3561,-1.3461,-1.3513,-1.3817,-1.3118,-1.3008,-1.3771,-1.4084,-1.4218,-1.4173,-1.4782,-1.4928,-1.4562,-1.4543,-1.4394,-1.4098,-1.4098,-1.4017,-1.3865,-1.3417,-1.2932,-1.2462,-1.2361,-1.1727,-1.0707,-0.9963,-0.9018,-0.8004,-0.7579,-0.7174,-0.6755,-0.6291,-0.5923,-0.5613,-0.518,-0.468,-0.4111,-0.3343,-0.3114,-0.3075,-0.2828,-0.2683,-0.2523,-0.2178,-0.1989,-0.1812,-0.1413,-0.1311,-0.1311,-0.1311,-0.1154,-0.0936,-0.0729,-0.0543,-0.0366,-0.0161,0.015,0.0266,-0.006,-0.0072,-0.0156,-0.0503,-0.0491,-0.0503,-0.0664,-0.0767,-0.0756,-0.057,-0.0588,-0.0483,-0.0114,0.0,0.0014,-0.0054,0.0145,0.027,0.027,0.0327,0.038,0.0396,0.0547,0.0631,0.0,0.0,0.0,0.0,0.0,0.0,0.0,0.0,0.0,0.0,0.0,0.0,0.0,0.0,0.0,0.0,0.0,0.0,0.0,0.0,0.0,0.0,0.0,0.0,0.0,0.0,-1.3025,-1.4554,-1.4332,-1.4128,-1.4291,-1.4382,-1.4533,-1.4852,-1.4362,-1.451,-1.5594,-1.5597,-1.574,-1.6084,-1.6403,-1.6322,-1.5805,-1.5805,-1.5601,-1.5179,-1.5045,-1.4972,-1.4972,-1.4402,-1.3822,-1.3276,-1.3059,-1.2415,-1.1507,-1.131,-1.0503,-0.9319,-0.8498,-0.7922,-0.7511,-0.6973,-0.6525,-0.6123,-0.5806,-0.5271,-0.4585,-0.3793,-0.3582,-0.3573,-0.3208,-0.2876,-0.2605,-0.2483,-0.2264,-0.2051,-0.1855,-0.1808,-0.1808,-0.1808,-0.1622,-0.1411,-0.121,-0.0984,-0.074,-0.0453,-0.0112,0.0017,-0.0347,-0.0269,-0.0312,-0.0764,-0.0675,-0.0681,-0.0997,-0.0953,-0.0892,-0.0841,-0.0756,-0.0588,-0.0319,-0.0245,-0.0186,-0.0168,0.0038,0.0185,0.0236,0.0337,0.042,0.0464,0.0818,0.1053,0.1174,0.0,0.0,0.0,0.0,0.0,0.0,0.0,0.0,0.0,0.0,0.0,0.0,0.0,0.0,0.0,0.0,0.0,0.0,0.0,0.0,0.0,0.0,0.0,-1.2149,-1.2369,-1.3182,-1.5036,-1.5256,-1.5082,-1.4656,-1.5617,-1.6256,-1.6256,-1.6681,-1.7211,-1.7875,-1.7414,-1.7124,-1.7139,-1.6891,-1.6779,-1.6819,-1.6832,-1.687,-1.6897,-1.6497,-1.6312,-1.6278,-1.5444,-1.4716,-1.4079,-1.3182,-1.2435,-1.1838,-1.1845,-1.1595,-1.1019,-0.9249,-0.8545,-0.8448,-0.7635,-0.7319,-0.7175,-0.6237,-0.5826,-0.5583,-0.4709,-0.4392,-0.4213,-0.3416,-0.3071,-0.2913,-0.2617,-0.2519,-0.2457,-0.226,-0.2194,-0.219,-0.2168,-0.2081,-0.1903,-0.159,-0.1429,-0.1163,-0.0577,-0.0473,-0.0446,-0.0405,-0.0456,-0.0585,-0.0859,-0.0909,0.0,-0.1434,-0.1149,-0.0908,-0.0911,-0.0674,-0.0472,-0.0337,-0.0383,-0.039,-0.0309,-0.0052,0.0098,0.0113,0.0304,0.0486,0.0621,0.1144,0.157,0.191,0.0,0.0,0.0,0.0,0.0,0.0,0.0,0.0,0.0,0.0,0.0,0.0,0.0,0.0,0.0,0.0,0.0,0.0,0.0,0.0,0.0,-1.3042,-1.3668,-1.415,-1.4336,-1.4981,-1.6465,-1.6643,-1.6791,-1.7142,-1.7468,-1.7639,-1.7578,-1.753,-1.7731,-1.8304,-1.7791,-1.7681,-1.8181,-1.7921,-1.7677,-1.7457,-1.7504,-1.7397,-1.7115,-1.69,-1.6676,-1.6445,-1.6111,-1.5485,-1.4677,-1.4718,-1.3947,-1.2672,-1.2657,-1.2184,-1.1315,-1.0383,-0.9796,-0.9346,-0.8484,-0.7916,-0.7433,-0.64,-0.6079,-0.6025,-0.535,-0.5349,-0.5472,-0.4812,-0.4505,-0.425,-0.3724,-0.3206,-0.2706,-0.2361,-0.2171,-0.1976,-0.1627,-0.1817,-0.2026,-0.1832,-0.2066,-0.2234,-0.197,-0.1922,-0.1624,-0.0644,-0.0481,-0.0597,-0.0866,-0.0942,0.0,-0.1129,-0.0993,-0.0956,-0.1102,-0.1053,-0.0946,-0.0821,-0.0832,-0.0676,-0.0323,-0.0092,0.011,0.0305,0.056,0.087,0.1246,0.1443,0.1711,0.0,0.0,0.0,0.0,0.0,0.0,0.0,0.0,0.0,0.0,0.0,0.0,0.0,0.0,0.0,0.0,0.0,0.0,0.0,0.0,0.0,0.0,-1.4495,-1.5242,-1.5699,-1.5775,-1.6264,-1.7587,-1.7653,-1.7716,-1.8082,-1.8357,-1.8525,-1.8477,-1.859,-1.8736,-1.8865,-1.8407,-1.8243,-1.8481,-1.8214,-1.7949,-1.7693,-1.7733,-1.7611,-1.7323,-1.6964,-1.6701,-1.65,-1.6185,-1.5657,-1.4983,-1.5108,-1.4502,-1.3403,-1.324,-1.2706,0.0,0.0,0.0,0.0,0.0,-0.8,-0.7328,-0.6684,-0.6529,-0.6504,-0.5955,-0.5952,-0.6119,-0.5702,-0.5235,-0.4793,-0.4463,-0.3802,-0.31,-0.266,-0.2455,-0.2284,-0.1855,-0.2049,-0.2289,-0.2203,-0.2497,-0.2732,-0.2529,-0.2504,0.0,-0.132,-0.1105,-0.1111,-0.1294,-0.1184,-0.1092,-0.1131,-0.1043,-0.1031,-0.1146,-0.1166,-0.1094,-0.0936,-0.0943,0.0,0.0,0.0,0.0303,0.0723,0.0906,0.0,0.0,0.0,0.0,0.0,0.0,0.0,0.0,0.2574,0.2909,0.0,0.0,0.0,0.0,0.0,0.0,0.0,0.0,0.0,0.0,0.0,0.0,0.0,0.0,0.0,0.0,-1.6184,-1.6596,-1.7078,-1.7037,-1.7345,-1.8436,-1.8346,-1.8203,-1.823,-1.8776,-1.9108,-1.9093,-1.9587,-1.9744,-1.9402,0.0,0.0,0.0,0.0,-1.7909,-1.7807,-1.7894,-1.7826,-1.763,-1.7016,-1.6658,-1.6522,-1.6001,-1.5547,-1.5108,-1.4858,-1.4479,-1.4001,-1.3576,-1.3094,-1.2526,-1.1393,-1.0677,-1.014,-0.8844,-0.7851,-0.7126,-0.7042,0.0,0.0,-0.6507,-0.6377,-0.6314,-0.6141,-0.5505,-0.4839,-0.4842,-0.4241,-0.35,-0.3026,-0.2901,-0.2794,-0.2453,-0.2493,-0.262,-0.262,-0.2802,-0.2912,-0.2662,-0.2618,-0.2549,-0.2302,-0.2037,-0.1842,-0.1842,-0.1488,-0.1229,-0.1229,-0.1115,-0.1041,-0.1068,0.0,0.0,-0.0798,-0.0832,-0.0561,0.0201,0.0352,0.0666,0.1218,0.135,0.1618,0.2048,0.253,0.2865,0.305,0.3492,0.3427,0.2866,0.2985,0.3177,0.0,0.0,0.0,0.0,0.0,0.0,0.0,0.0,0.0,0.0,0.0,0.0,0.0,0.0,0.0,-1.735,-1.7339,-1.7629,-1.9174,-1.9134,-1.8952,-1.8976,-1.889,-1.9054,-1.9638,-1.9752,-1.9773,-1.9652,-1.9474,-1.9295,-1.9176,-1.8442,-1.8028,-1.8048,-1.8226,-1.8347,-1.8432,-1.8968,-1.8976,-1.8463,0.0,0.0,-1.6659,-1.6445,-1.5957,-1.5255,-1.5085,-1.4754,-1.428,-1.3658,-1.2939,-1.2153,-1.1601,-1.0943,-1.0176,-0.9218,-0.8511,-0.7946,-0.7252,-0.7,-0.6979,-0.6894,-0.6786,-0.6596,-0.6088,-0.5548,0.0,-0.4615,-0.4111,-0.357,-0.3097,-0.285,-0.2643,-0.2256,-0.2472,-0.2769,-0.2769,-0.3126,-0.3445,-0.3401,-0.3379,-0.3379,-0.3309,-0.2598,-0.1921,-0.1548,-0.1429,-0.1223,-0.0873,-0.0753,-0.0738,-0.0838,-0.0866,-0.079,-0.0646,-0.07,-0.0379,0.0465,0.094,0.1285,0.1515,0.19,0.2198,0.2404,0.2977,0.3279,0.3319,0.3633,0.3827,0.3917,0.3929,0.3998,0.0,0.0,0.0,0.0,0.0,0.0,0.0,0.0,0.0,0.0,0.0,-1.5402,-1.6374,0.0,-1.7401,-1.8813,-1.9117,-1.9346,-1.9867,-2.0083,-2.0014,-1.9508,-1.942,-1.9524,-1.9874,-1.9869,-1.9815,-1.9744,-1.9566,-1.9258,-1.8822,-1.8637,-1.8413,-1.8053,-1.8433,-1.8671,-1.876,-1.9083,-1.8857,-1.8087,-1.7904,-1.7213,-1.6129,-1.5979,-1.5647,-1.521,-1.521,-1.4994,-1.4593,-1.3742,-1.3098,-1.2579,-1.2026,-1.1289,-1.0458,-0.9826,-0.9333,-0.8828,-0.7946,-0.7652,-0.7588,-0.7131,-0.6929,-0.6771,-0.6361,-0.5729,-0.5101,-0.4834,-0.4272,-0.3683,-0.3372,-0.3215,-0.3067,-0.2685,-0.2834,-0.3042,-0.297,-0.3288,-0.358,-0.348,-0.3527,-0.3604,-0.3604,-0.3129,-0.2524,-0.1856,-0.1561,-0.1228,-0.076,-0.0668,-0.0628,-0.0609,-0.0601,-0.0565,-0.0455,-0.0107,0.0291,0.0727,0.1378,0.1762,0.1796,0.2224,0.2502,0.2599,0.3292,0.3638,0.3602,0.3936,0.4124,0.4158,0.4599,0.4826,0.0,0.0,0.0,0.0,0.0,0.0,0.0,0.0,-1.4806,-1.5539,-1.6219,-1.6991,-1.8061,-1.8374,-1.8865,-2.0039,-2.0605,-2.0721,-2.019,-2.0512,-2.0547,-1.9869,-1.978,-1.9762,-1.9726,-1.9708,-1.9672,-1.9599,-1.9704,-1.9426,-1.8585,-1.9071,-1.9041,-1.8279,-1.8793,-1.9081,-1.9081,-1.9185,-1.8812,-1.7948,-1.7493,-1.6782,-1.5867,-1.5527,-1.5255,-1.5108,-1.521,-1.5097,-1.472,-1.3813,-1.3314,-1.304,-1.2363,-1.1654,-1.0963,-1.0493,-1.0066,-0.9601,-0.876,-0.8476,-0.8327,-0.7416,-0.7029,-0.6875,-0.6576,-0.5831,-0.5103,-0.5109,-0.4522,-0.3882,-0.3765,-0.3667,-0.3539,-0.3269,-0.3283,-0.3347,-0.3253,-0.3425,-0.3551,-0.3431,-0.3492,-0.3556,-0.3556,-0.3442,-0.3059,-0.221,-0.1744,-0.1283,-0.0707,-0.0635,-0.0561,-0.04,-0.0362,-0.0313,-0.0255,0.0486,0.0942,0.0942,0.1663,0.2074,0.2022,0.2407,0.268,0.2798,0.3536,0.392,0.394,0.4299,0.441,0.4287,0.5125,0.5503,-1.7718,-1.6854,0.0,-1.5228,-1.5406,-1.5897,0.0,0.0,-1.5994,-1.7252,-1.7577,-1.7872,-1.867,-1.9358,-2.0073,-2.0936,-2.0777,-2.0626,-2.0846,-2.0617,-2.0273,-1.9764,-1.9708,-1.9726,-1.978,-1.9726,-1.9548,-1.9195,-1.972,-1.9652,-1.8719,-1.9298,-1.9404,-1.8842,-1.9394,-1.9708,-1.9708,-2.0229,-2.0178,-1.9532,-1.8661,-1.7743,-1.6794,-1.5962,-1.5401,-1.5108,-1.5108,-1.4857,-1.4419,-1.3823,-1.329,-1.2788,-1.2314,-1.1974,-1.1686,-1.0996,-1.049,-1.0021,-0.9327,-0.909,-0.8936,-0.795,-0.7335,-0.6874,-0.6263,-0.5625,-0.5111,-0.5093,-0.4692,-0.4234,-0.4236,-0.3906,-0.3593,-0.3559,-0.3563,-0.3607,-0.3693,-0.3668,-0.3634,-0.3721,-0.3559,-0.342,-0.342,-0.3306,-0.2946,-0.2144,-0.1875,-0.1428,-0.0558,-0.0388,-0.0336,-0.0313,-0.02,-0.0115,-0.0037,0.0642,0.1076,0.1076,0.1713,0.2095,0.2098,0.2475,0.2829,0.3131,0.3702,0.4141,0.4421,0.464,0.4815,0.4919,0.5607,0.5844,-1.8562,0.0,0.0,0.0,-1.6624,-1.6737,-1.6524,-1.6914,-1.7443,-1.7873,-1.8688,-1.9501,-2.0115,-2.0483,-2.0944,0.0,-2.1549,-2.1268,-2.0975,-2.0763,-2.0393,-1.9764,-1.9708,-1.9708,-1.9744,-1.9726,-1.9636,-1.9472,-1.9783,-1.9718,-1.9066,-1.9729,-1.9896,-1.9433,-2.002,-2.0321,-2.0321,-2.0581,-2.0287,-1.9497,-1.9108,-1.8319,-1.7158,-1.6776,-1.6209,-1.5556,-1.5246,-1.4937,-1.4663,-1.4152,-1.3729,-1.3314,-1.2618,-1.2249,-1.2082,-1.1614,-1.1275,-1.0954,-1.0161,-0.9898,-0.9699,-0.8445,-0.7784,-0.7301,-0.6392,-0.5815,-0.5399,-0.5118,-0.4688,-0.4294,-0.4294,-0.395,-0.3604,-0.3604,-0.3604,-0.3617,-0.3679,-0.3709,-0.3697,-0.3579,-0.355,-0.3475,-0.3322,-0.317,-0.2788,-0.1895,-0.1784,-0.1453,-0.0516,-0.0376,-0.0325,-0.0253,-0.0124,-0.004,0.0,0.0454,0.0846,0.109,0.1554,0.1931,0.22,0.2596,0.3006,0.3422,0.3891,0.4328,0.4736,0.4816,0.4944,0.5135,0.5769,0.6049,-1.8699,0.0,0.0,-1.7639,-1.7623,-1.7685,-1.71,-1.7954,-1.8802,-1.8648,-1.9509,-2.0409,-2.0793,-2.1055,-2.135,-2.1793,-2.1869,-2.1628,-2.0991,-2.0745,-2.041,-1.9764,-1.9708,-1.9708,-1.9708,-1.9708,-1.9603,-1.9384,-1.9871,-1.988,-1.9209,-2.0139,-2.0475,-2.0059,-2.0465,-2.0699,-2.0699,-2.0699,-2.0365,-1.968,-1.9415,-1.8794,-1.7849,-1.7459,-1.6786,-1.5889,-1.5487,-1.5188,-1.4903,-1.4374,-1.4035,-1.3763,-1.2813,-1.2357,-1.22,-1.1902,-1.1744,-1.1584,-1.0697,-1.0409,-1.0156,-0.8728,-0.8102,-0.7742,-0.6759,-0.6259,-0.593,-0.5602,-0.5096,-0.4683,-0.4683,-0.4232,-0.3796,-0.3796,-0.3667,-0.3566,-0.3629,-0.3664,-0.3655,-0.354,-0.3519,-0.3461,-0.3242,-0.3089,-0.266,-0.1694,-0.1624,-0.1347,-0.0403,-0.0289,-0.0262,-0.0148,-0.0062,0.0,0.0,0.0469,0.0878,0.1167,0.1663,0.2106,0.2443,0.2885,0.3329,0.3762,0.4233,0.466,0.5007,0.505,0.5109,0.5207,0.5723,0.6033,0.0,0.0,-1.8628,-1.7868,-1.8432,-1.9148,-1.9197,-1.96,-1.9959,-1.9947,-1.998,-2.0014,-2.0018,-2.067,-2.1164,-2.1053,-2.1301,-2.1369,-2.0958,-2.0497,-2.0102,-1.9729,-1.9708,-1.9708,0.0,-1.9708,-1.9384,-1.8611,-1.9987,-2.0295,-1.8986,-2.0472,-2.1153,-2.0686,-2.0699,-2.0699,-2.0699,-2.0699,-2.0699,-2.0648,-1.973,-1.929,-1.9215,-1.7898,-1.6786,-1.5911,-1.5878,-1.5579,-1.504,-1.4305,-1.4001,-1.3884,-1.2754,-1.2224,-1.2051,-1.1653,-1.1594,-1.1594,-1.0686,-1.0399,-1.0165,-0.8676,-0.8205,-0.8071,-0.7388,-0.6982,-0.677,-0.6748,-0.6218,-0.5653,-0.5653,-0.4966,-0.4276,-0.4276,-0.3836,-0.3478,-0.3731,-0.3585,-0.3481,-0.3749,-0.3577,-0.3372,-0.3225,-0.3086,-0.2638,-0.1576,-0.1409,-0.1068,-0.0134,-0.0022,-0.0021,0.0,0.0,0.0,0.0,0.0842,0.1372,0.1383,0.2321,0.2866,0.2885,0.3402,0.383,0.4182,0.4832,0.5208,0.5288,0.5419,0.5391,0.5207,0.5484,0.5695,0.0,0.0,-1.92,-1.863,-1.9127,-1.9748,-1.976,-1.9891,-2.0002,-2.0002,-2.042,-2.0788,-2.0788,-2.0981,-2.118,-2.1303,-2.0982,-2.0649,-2.0468,-2.068,-2.0574,-1.9789,-2.0094,0.0,0.0,0.0,0.0,-1.8936,-1.9859,-2.0108,-1.9387,-2.0346,-2.0848,-2.0699,-2.0699,-2.0699,-2.0699,-2.0699,-2.0699,-2.0699,-1.9788,-1.9227,-1.8919,-1.7632,-1.6715,-1.6137,-1.5603,-1.5083,-1.4605,-1.4269,-1.3931,-1.3529,-1.2798,-1.228,-1.1927,-1.1528,-1.1402,-1.1377,-1.1006,-1.0668,-1.0244,-0.931,-0.8682,-0.823,-0.7635,-0.7279,-0.7072,-0.7072,-0.6666,-0.6225,-0.6225,-0.5393,-0.4538,-0.4442,-0.3909,-0.3436,-0.3505,-0.3452,-0.3402,-0.3468,-0.3426,-0.3331,-0.3105,-0.3023,-0.2642,-0.157,-0.0877,-0.0364,-0.0041,0.0,0.0,0.0,0.0,0.0,0.0,0.0648,0.1169,0.1391,0.2089,0.2639,0.2959,0.3436,0.3889,0.4257,0.47,0.5074,0.5374,0.5319,0.529,0.5277,0.5537,0.5744,0.0,-1.971,-2.0247,-2.0142,-2.0388,-2.0656,-2.0581,-2.0497,-2.02,-1.9389,-1.9816,-2.0255,-1.9989,-2.0136,-2.0492,-2.113,-2.0604,-2.0271,-2.068,-2.0678,-2.0613,-2.043,-2.0587,-2.0557,0.0,0.0,0.0,-1.9219,-1.9838,-2.0088,-1.9699,-2.0334,-2.0699,-2.0699,-2.0699,-2.0699,-2.0699,-2.0536,-2.0385,-2.022,-1.9577,-1.9013,-1.8587,-1.7676,-1.6927,-1.6317,-1.5653,-1.5072,-1.4624,-1.4275,-1.3928,-1.3539,-1.2832,-1.2378,-1.2051,-1.1502,-1.1301,-1.1251,-1.0939,-1.0531,-1.001,-0.938,-0.8754,-0.8152,-0.7818,-0.7533,-0.7315,-0.7242,-0.6957,-0.6573,-0.632,-0.5558,-0.4802,-0.4451,-0.3829,-0.3323,-0.334,-0.33,-0.3268,-0.3266,-0.3297,-0.3256,-0.3037,-0.2673,-0.2135,-0.1278,-0.05,0.0,0.0,0.002,0.0038,0.0038,0.0038,0.0057,0.01,0.0758,0.1273,0.1566,0.226,0.2785,0.3093,0.3558,0.3991,0.4361,0.4766,0.5133,0.5437,0.5402,0.5345,0.53,0.5504,0.5709,-2.0327,-2.0934,-2.1653,-2.2164,-2.207,-2.1825,-2.1643,-2.131,-2.0429,-1.829,-1.8316,-1.8533,0.0,0.0,-1.9207,-2.0492,-2.0159,-2.0194,-2.1465,-2.0577,-2.0258,0.0,0.0,0.0,0.0,0.0,0.0,-1.9432,0.0,-2.0221,-1.9823,-2.0373,-2.0699,-2.0699,-2.0649,-2.0649,-2.0649,-2.0156,-1.9721,-1.9316,-1.9078,-1.8694,-1.8224,-1.7952,-1.7327,-1.6465,-1.5974,-1.548,-1.4988,-1.4283,-1.3973,-1.3844,-1.2886,-1.248,-1.2372,-1.1603,-1.1301,-1.1226,-1.0633,-1.0061,-0.951,-0.8988,-0.8388,-0.7901,-0.7901,-0.7742,-0.7562,-0.7365,-0.7139,-0.6777,-0.6054,-0.5555,-0.504,-0.4313,-0.3657,-0.3193,-0.3187,-0.3084,-0.3027,-0.3172,-0.3175,-0.3136,-0.3,-0.2101,-0.1245,-0.0757,-0.0293,0.0,0.0,0.0058,0.011,0.0109,0.0104,0.0172,0.0309,0.1109,0.1685,0.1906,0.2773,0.3296,0.3296,0.3762,0.4162,0.4504,0.5041,0.5365,0.5501,0.5626,0.5571,0.5336,0.5404,0.5625,-2.0782,-2.1476,-2.2082,-2.2016,-2.1843,-2.1655,-2.1606,-2.0079,-1.8633,-1.8569,-1.8237,-1.7911,0.0,0.0,0.0,-1.9167,-1.905,0.0,-2.0755,-2.1091,0.0,0.0,0.0,-2.1841,-2.0976,-2.1041,0.0,0.0,-2.0288,-2.0221,-1.9823,-2.0373,-2.0699,-2.0699,-2.0156,-1.9888,-1.9888,-1.9202,-1.8685,-1.8278,-1.8197,-1.7925,-1.7457,-1.719,-1.6774,-1.6154,-1.55,-1.4933,-1.4471,-1.3927,-1.3515,-1.3194,-1.2715,-1.2323,-1.2002,-1.1502,-1.1301,-1.1276,-1.1116,-1.0446,-0.9562,-0.9328,-0.8567,-0.7756,-0.7756,-0.7655,-0.7503,-0.7476,-0.7404,-0.7274,-0.6986,-0.6168,-0.534,-0.4989,-0.4045,-0.3172,-0.3076,-0.2973,-0.294,-0.2973,-0.3008,-0.2926,-0.2545,-0.1963,-0.1326,-0.0654,-0.0154,0.0107,0.002,0.0098,0.0152,0.011,0.0198,0.0359,0.0656,0.1292,0.1809,0.2098,0.2761,0.3201,0.3299,0.3894,0.4337,0.4561,0.5107,0.5426,0.5501,0.5626,0.5722,0.5755,0.5978,0.6193,-2.173,-2.23,-2.2765,-2.2482,-2.2016,-2.1487,-2.1023,-1.958,-1.8189,-1.7535,-1.758,0.0,0.0,0.0,0.0,0.0,0.0,0.0,-2.1098,-2.1298,-2.1575,0.0,-2.2405,0.0,-2.1491,-2.129,-2.0988,0.0,-2.0502,-2.0419,-2.0105,-2.0429,-2.0473,-2.0144,-1.9952,-1.9644,-1.9216,-1.8551,-1.8023,-1.7606,-1.7468,-1.7273,-1.7032,-1.6761,-1.6483,-1.6189,0.0,-1.4852,-1.4552,-1.3865,-1.3362,-1.2967,-1.2642,-1.2249,-1.1852,-1.1452,-1.1301,-1.1301,-1.1301,-1.0625,-0.9736,-0.9491,-0.8778,-0.7969,-0.7702,-0.7568,-0.7494,-0.7419,-0.7413,-0.7252,-0.6598,-0.5905,-0.5241,-0.4561,-0.3827,-0.326,-0.311,-0.3069,-0.3006,-0.2957,-0.2748,-0.2446,-0.1944,-0.1455,-0.0877,-0.0208,0.0114,0.0265,0.0189,0.0262,0.0291,0.0189,0.0301,0.0565,0.0979,0.1447,0.1918,0.2432,0.2983,0.3305,0.3385,0.4008,0.4451,0.4694,0.5189,0.5568,0.5805,0.5887,0.5983,0.6089,0.6286,0.6542,-2.2749,-2.3113,-2.3376,-2.3064,-2.2202,-2.1162,-2.014,-1.9224,-1.8058,-1.6133,0.0,0.0,-1.5573,0.0,-1.7663,-1.8584,0.0,-1.9405,-2.1685,-2.1333,-2.15,-2.3266,-2.2614,-2.2023,-2.2072,-2.1537,-2.0981,-2.0511,-2.0587,-2.0574,-2.0461,-2.0461,-2.0131,-1.9397,-1.9747,-1.9475,-1.8501,-1.7968,-1.7496,-1.7078,-1.6874,-1.6761,-1.6733,-1.6516,-1.6413,-1.6361,-1.5401,-1.4971,-1.4846,-1.392,-1.329,-1.2905,-1.2535,-1.22,-1.1852,-1.1402,-1.1251,-1.1251,-1.12,-1.0702,-0.9969,-0.9536,-0.8916,-0.8235,-0.7655,-0.7467,-0.7413,-0.7311,-0.7284,-0.6982,-0.5719,-0.5332,-0.4996,-0.3794,-0.3464,-0.3371,-0.3239,-0.3204,-0.3139,-0.2947,-0.2458,-0.1914,-0.1301,-0.0809,-0.0274,0.033,0.0416,0.0407,0.0405,0.0463,0.0459,0.0337,0.0495,0.0829,0.1332,0.1644,0.2111,0.282,0.3241,0.3488,0.3509,0.4049,0.4502,0.4821,0.5254,0.572,0.6196,0.6255,0.6312,0.6375,0.6558,0.6827,-2.2994,-2.3282,-2.3041,-2.2558,-2.1464,-2.0319,-1.9533,-1.7623,0.0,0.0,0.0,-1.4734,-1.4476,-1.5618,0.0,-1.6846,0.0,0.0,0.0,0.0,-2.1859,0.0,0.0,0.0,0.0,0.0,0.0,0.0,-2.0283,-2.0283,-2.0258,-2.0233,-1.9939,-1.9265,-1.8833,-1.8259,-1.7468,-1.6937,-1.663,-1.6545,-1.6488,-1.6459,-1.6459,-1.6431,-1.6413,-1.6361,-1.5401,0.0,-1.4433,-1.3481,-1.2914,-1.2544,-1.2175,-1.1952,-1.1828,-1.12,-1.0972,-1.0947,-1.0718,-1.0462,-1.0154,-0.9595,-0.8751,-0.7904,-0.7467,-0.7252,-0.7166,-0.7139,-0.7139,-0.695,-0.6109,-0.5586,-0.5078,-0.4258,-0.3711,-0.3395,-0.3373,-0.3289,-0.3038,-0.2521,-0.2247,-0.179,-0.0807,-0.052,-0.021,0.0388,0.0488,0.049,0.0474,0.0488,0.0499,0.046,0.0934,0.139,0.1769,0.2192,0.2667,0.3184,0.3282,0.3418,0.3571,0.3897,0.4342,0.4964,0.5203,0.5615,0.6196,0.6528,0.6722,0.6799,0.7164,0.7415,-2.2428,-2.2672,-2.2577,-2.1947,-2.0889,-1.9852,-1.9116,0.0,0.0,0.0,0.0,-1.4632,-1.3868,0.0,0.0,0.0,0.0,0.0,0.0,0.0,0.0,0.0,0.0,0.0,0.0,0.0,0.0,0.0,-2.0029,-2.0016,-2.008,-1.9772,-1.9434,-1.9119,-1.8217,-1.755,-1.7202,-1.6666,-1.6413,-1.6413,-1.6413,-1.6413,-1.6413,-1.6413,-1.6278,-1.598,-1.5063,-1.4363,-1.3756,-1.2853,-1.2187,-1.1685,-1.151,-1.1343,-1.1124,-1.082,-1.0531,-1.0318,-1.019,-0.9855,-0.9439,-0.8902,-0.8508,-0.8117,-0.7408,-0.7144,-0.7112,-0.7112,-0.7112,-0.6864,-0.5887,-0.5473,-0.5058,-0.4101,-0.3643,-0.3357,-0.3276,-0.292,-0.2536,-0.2252,-0.1634,-0.098,-0.0392,-0.0072,0.0237,0.0605,0.0626,0.0598,0.0609,0.0607,0.058,0.0502,0.1044,0.1571,0.1979,0.2498,0.2998,0.3479,0.3627,0.3755,0.3855,0.4525,0.503,0.5365,0.5903,0.6329,0.6607,0.6882,0.7058,0.7174,0.739,0.7572,-2.1965,-2.2134,-2.2106,-2.1268,-2.0314,-1.9378,-1.861,-1.7266,0.0,0.0,0.0,0.0,0.0,0.0,0.0,0.0,0.0,0.0,0.0,0.0,0.0,0.0,0.0,0.0,0.0,0.0,0.0,0.0,-1.9759,-1.9734,-1.9952,-1.946,-1.9119,-1.8987,-1.7957,-1.7341,-1.7202,-1.6666,-1.6413,-1.6413,-1.6413,-1.6413,-1.6413,-1.6413,-1.6125,-1.5605,-1.472,-1.3867,-1.3071,-1.2161,-1.1434,-1.088,-1.088,-1.0735,-1.047,-1.0308,-1.0035,-0.9684,-0.9555,-0.9145,-0.8646,-0.8164,-0.819,-0.8256,-0.7375,-0.7112,-0.7112,-0.7112,-0.7112,-0.681,-0.5605,-0.5304,-0.5007,-0.383,-0.3441,-0.3244,-0.2963,-0.2491,-0.2043,-0.1774,-0.0967,-0.023,0.0,0.0371,0.0675,0.079,0.0744,0.0727,0.0697,0.0719,0.0742,0.0741,0.1232,0.1744,0.2255,0.281,0.3322,0.3766,0.3972,0.4108,0.4152,0.5053,0.5588,0.5696,0.6465,0.6915,0.7048,0.7188,0.7314,0.7433,0.751,0.7614,-2.2332,-2.23,-2.1759,-2.0581,-1.9541,-1.8593,-1.7795,0.0,0.0,0.0,-1.4257,-1.3285,-1.3136,0.0,0.0,0.0,0.0,0.0,0.0,0.0,0.0,0.0,0.0,0.0,0.0,0.0,0.0,0.0,-1.9344,-1.9303,-1.9798,-1.9759,-1.95,-1.9025,-1.8348,-1.7754,-1.7202,-1.6666,-1.6413,-1.6413,-1.6413,-1.6413,-1.6413,-1.6413,-1.6069,-1.5457,-1.4468,-1.3472,0.0,-1.1506,-1.088,-1.0539,-1.0539,-1.0522,-1.0419,-0.9751,-0.9465,-0.9361,-0.8732,-0.8501,-0.8368,-0.7883,-0.775,-0.7696,-0.7241,-0.7112,-0.7112,-0.7112,-0.7112,-0.681,-0.5605,-0.5304,-0.4979,-0.3716,-0.3272,-0.2963,-0.2406,-0.2233,-0.1867,-0.0781,-0.0407,-0.0132,0.045,0.0669,0.0794,0.0793,0.0786,0.0774,0.07,0.081,0.1034,0.1457,0.1811,0.2277,0.2876,0.3366,0.3766,0.4042,0.4086,0.4148,0.4276,0.4792,0.5265,0.5696,0.6145,0.6641,0.7188,0.7314,0.7426,0.7502,0.7621,0.7753,-2.0344,-2.0713,-2.088,-1.9513,-1.8885,-1.8273,-1.7095,0.0,0.0,-1.4659,-1.3814,-1.3093,-1.3093,-1.3604,0.0,0.0,0.0,0.0,0.0,0.0,0.0,0.0,0.0,0.0,0.0,0.0,0.0,-1.9344,-1.9119,-1.8922,-1.8792,-1.8792,-1.8513,-1.7929,-1.7672,-1.7296,-1.6712,-1.6516,-1.6413,-1.6413,-1.6413,-1.6267,-1.5998,-1.5904,-1.5246,-1.4143,-1.3406,-1.2419,0.0,-1.0656,-1.0216,-0.9958,-0.9958,-0.981,-0.9558,-0.9263,-0.8837,-0.8329,-0.807,-0.783,-0.7595,-0.7402,-0.7348,-0.7295,-0.7139,-0.7112,-0.7112,-0.7112,-0.6837,-0.6344,-0.541,-0.4587,-0.3821,-0.3249,-0.277,-0.235,-0.2041,-0.1399,-0.0728,-0.0252,0.0166,0.0494,0.0742,0.0827,0.0856,0.087,0.086,0.0853,0.0816,0.0933,0.1299,0.2059,0.2259,0.2546,0.3081,0.3615,0.3994,0.4086,0.417,0.4232,0.4294,0.4874,0.5351,0.5744,0.6349,0.688,0.7314,0.7405,0.7468,0.7502,0.7642,0.7732,-1.9173,-1.9674,-2.0075,-1.882,-1.8356,-1.7888,0.0,0.0,-1.4834,-1.4301,-1.3606,-1.3075,-1.303,-1.3453,-1.3914,0.0,0.0,0.0,0.0,0.0,0.0,0.0,0.0,0.0,0.0,0.0,0.0,-1.8789,-1.8575,-1.8294,-1.7875,-1.7694,-1.7473,-1.7202,-1.7202,-1.6944,-1.6413,-1.6345,-1.6306,-1.6306,-1.6259,-1.6023,-1.5571,-1.5303,-1.4449,-1.3151,-1.2463,-1.1541,0.0,-1.0061,-0.9777,-0.9588,-0.9465,-0.9237,-0.8956,-0.8712,-0.8229,-0.767,-0.7563,-0.7348,-0.7112,-0.7112,-0.7058,-0.6977,-0.6977,-0.6977,-0.6945,-0.6804,-0.6177,-0.5437,-0.4913,-0.3901,-0.3023,-0.2916,-0.241,-0.1874,-0.1593,-0.0728,0.0056,0.0224,0.0617,0.0898,0.0898,0.0907,0.0917,0.096,0.0969,0.0981,0.1019,0.1275,0.1755,0.2506,0.2776,0.3033,0.3442,0.3862,0.4108,0.4148,0.4254,0.432,0.4364,0.5053,0.5567,0.5852,0.6647,0.7181,0.7433,0.7482,0.7523,0.7572,0.7765,0.8008,-1.9556,-1.9651,-1.9419,-1.8704,-1.8004,-1.7332,0.0,-1.5255,-1.4218,-1.4202,-1.3606,-1.3039,-1.2848,-1.3243,-1.3689,0.0,0.0,0.0,0.0,0.0,0.0,0.0,0.0,0.0,0.0,0.0,-1.8762,-1.8147,-1.7562,0.0,-1.7202,-1.6712,-1.6666,-1.7174,-1.7202,-1.6944,-1.6413,-1.621,-1.6114,-1.6114,-1.5961,-1.5701,-1.5285,-1.469,-1.3852,-1.2833,-1.1781,-1.0959,0.0,-0.9829,-0.9614,-0.9562,-0.9159,-0.9008,-0.8903,-0.8043,-0.7696,-0.7643,-0.7241,-0.7112,-0.7112,-0.7112,-0.6918,-0.6701,-0.6701,-0.6701,-0.662,-0.6145,-0.5046,-0.4009,-0.4009,-0.3463,-0.2888,-0.2888,-0.2324,-0.1649,-0.1034,-0.042,0.0168,0.0785,0.0898,0.0898,0.0898,0.0897,0.0942,0.1071,0.1092,0.1155,0.1267,0.1888,0.2428,0.2758,0.3386,0.3869,0.4079,0.4086,0.4148,0.4298,0.4294,0.4364,0.4504,0.534,0.5852,0.599,0.6922,0.7433,0.7502,0.7502,0.7572,0.7698,0.8048,0.8752,-1.7621,-1.7821,-1.7868,-1.6624,-1.6536,-1.6387,-1.4999,-1.4825,-1.4582,-1.3306,-1.2928,-1.2766,-1.2562,-1.2525,-1.2825,-1.3785,0.0,0.0,0.0,0.0,0.0,0.0,0.0,0.0,0.0,0.0,-1.8575,-1.7562,-1.7213,-1.6888,-1.6464,-1.621,-1.6249,-1.6637,-1.6531,-1.6361,-1.621,-1.6048,-1.5839,-1.5543,-1.5084,-1.4497,-1.3762,-1.3109,-1.229,-1.1294,-1.0882,-1.0361,0.0,-0.9666,-0.9439,-0.9185,-0.9061,-0.8633,-0.807,-0.7803,-0.7536,-0.7268,-0.7139,-0.7112,-0.7058,-0.6891,-0.6756,-0.6593,-0.6095,-0.5959,-0.5764,-0.4886,-0.4257,-0.3766,-0.3355,-0.2996,-0.2663,-0.224,-0.1649,-0.1006,-0.042,0.0196,0.0673,0.087,0.0898,0.0926,0.101,0.1038,0.109,0.1216,0.1676,0.2014,0.2043,0.263,0.3219,0.3645,0.3886,0.4077,0.4216,0.4232,0.4254,0.4294,0.4386,0.4583,0.4888,0.5443,0.6017,0.6607,0.7048,0.7504,0.7976,0.7976,0.8114,0.8377,0.8685,0.9514,0.0,-1.6359,-1.6453,-1.5524,-1.5641,-1.562,-1.4229,-1.4325,-1.4298,-1.2774,-1.2506,-1.2497,-1.2292,-1.2285,-1.2626,-1.3588,0.0,0.0,0.0,0.0,0.0,0.0,0.0,0.0,0.0,-1.8243,-1.7831,-1.6803,-1.6616,-1.6428,-1.6038,-1.5933,-1.6,-1.6202,-1.6105,-1.6009,-1.6009,-1.5633,-1.5272,-1.4887,-1.4185,-1.3442,-1.2635,-1.2009,-1.1281,-1.0499,-1.0208,-0.9899,0.0,-0.9439,-0.9237,-0.8956,-0.8633,-0.8176,-0.767,-0.7429,-0.716,-0.6918,-0.681,-0.6756,-0.6701,-0.6399,-0.61,-0.5746,-0.5003,-0.4835,-0.4752,-0.3984,-0.3572,-0.3299,-0.2914,-0.2775,-0.2605,-0.2155,-0.1482,-0.0783,-0.0364,0.0336,0.0898,0.0898,0.0954,0.101,0.1094,0.115,0.1318,0.1708,0.2143,0.2545,0.2817,0.3421,0.3897,0.4122,0.4347,0.4492,0.4495,0.4494,0.4521,0.4567,0.4865,0.5184,0.5543,0.6164,0.6744,0.7304,0.761,0.7966,0.8385,0.8385,0.8599,0.8963,0.9337,1.0122,0.0,-1.5166,-1.5209,-1.5122,-1.5156,-1.4928,-1.3972,-1.3771,0.0,-1.2545,-1.2302,-1.2236,-1.2123,-1.2479,-1.2954,-1.35,0.0,0.0,0.0,0.0,0.0,0.0,0.0,0.0,0.0,-1.6989,-1.6684,-1.5943,-1.5885,-1.5885,-1.5885,-1.5885,-1.5846,-1.5816,-1.5816,-1.5806,-1.5777,-1.5031,-1.4445,-1.4035,-1.3233,-1.2483,-1.1781,-1.1225,-1.0764,0.0,-0.9821,0.0,0.0,-0.9159,-0.8956,-0.8817,-0.8017,-0.767,-0.7563,-0.6918,-0.6674,-0.662,-0.6317,-0.6182,-0.6095,-0.5655,-0.503,-0.4298,-0.3608,-0.3577,-0.3713,-0.3441,-0.3023,-0.2691,-0.2691,-0.2691,-0.2635,-0.2437,-0.1621,-0.0838,-0.0617,0.0224,0.0926,0.0926,0.1038,0.1122,0.1122,0.1234,0.1597,0.24,0.2539,0.2845,0.3569,0.4181,0.4487,0.429,0.4778,0.5057,0.4882,0.482,0.4857,0.4985,0.5565,0.6019,0.6339,0.7265,0.7848,0.8051,0.8488,0.8721,0.8721,0.8767,0.9008,0.9452,0.9978,1.0615,-1.3306,0.0,-1.4262,-1.3495,-1.3732,-1.3858,0.0,-1.2989,0.0,0.0,0.0,0.0,0.0,0.0,0.0,0.0,0.0,0.0,0.0,0.0,0.0,0.0,0.0,0.0,-1.7159,-1.6907,-1.6588,-1.5943,-1.5798,-1.574,-1.574,-1.5604,-1.5389,-1.5064,-1.5054,-1.4913,-1.4592,-1.4297,-1.3588,-1.2431,-1.1837,-1.1263,-1.0729,-1.0202,-0.9896,-0.9769,-0.9666,0.0,-0.9133,-0.9035,-0.8606,-0.799,-0.7777,-0.7402,-0.6918,-0.6756,-0.6539,-0.6317,-0.6236,-0.5987,-0.5628,-0.4979,-0.4267,-0.3635,-0.3441,-0.3441,-0.3413,-0.2998,-0.2775,-0.2691,-0.2691,-0.2691,-0.2437,-0.137,-0.0922,-0.0447,0.0589,0.1038,0.1206,0.1206,0.1234,0.1291,0.1459,0.1515,0.1793,0.2541,0.3042,0.3569,0.4211,0.4767,0.5089,0.5047,0.5179,0.5298,0.541,0.5123,0.496,0.5009,0.5418,0.6024,0.6798,0.7254,0.7814,0.852,0.8909,0.909,0.909,0.94,0.9613,0.9706,1.0191,1.0872,-1.2207,-1.2974,-1.3763,-1.3096,-1.3236,-1.3341,-1.258,0.0,0.0,0.0,0.0,0.0,0.0,0.0,0.0,0.0,0.0,0.0,0.0,0.0,0.0,0.0,0.0,0.0,0.0,-1.6475,-1.6114,-1.5691,-1.5604,-1.5546,-1.5546,-1.5292,-1.4906,-1.4449,-1.422,-1.4005,-1.3784,-1.3449,-1.2674,-1.1532,-1.0917,-1.0443,-1.0035,-0.9744,-0.9588,-0.9588,0.0,0.0,-0.8982,-0.8633,-0.8123,-0.7482,-0.7155,-0.6777,-0.6458,-0.6327,-0.6028,-0.5668,-0.5559,-0.5117,-0.4519,-0.4147,-0.3595,-0.3088,-0.3109,-0.3091,-0.3023,-0.2775,-0.2691,-0.2663,-0.2521,-0.2324,-0.1959,-0.1008,-0.0476,0.0028,0.0841,0.1178,0.1291,0.1291,0.1375,0.1459,0.1572,0.1878,0.2322,0.3014,0.3627,0.4211,0.4794,0.5132,0.5325,0.5434,0.543,0.5517,0.5681,0.554,0.547,0.547,0.6155,0.6813,0.7395,0.8047,0.8626,0.9116,0.9285,0.9405,0.947,0.9692,0.9877,1.0032,1.0514,1.1057,-1.1568,-1.2415,-1.3403,-1.3089,-1.3065,-1.306,0.0,0.0,0.0,0.0,0.0,0.0,0.0,0.0,0.0,0.0,0.0,0.0,0.0,0.0,0.0,0.0,0.0,0.0,-1.6506,-1.5941,-1.5575,-1.541,-1.541,-1.541,-1.541,-1.5078,-1.4619,-1.3978,-1.358,-1.3232,-1.2942,-1.246,-1.1762,-1.0865,-1.0301,-0.9885,-0.9588,-0.9588,-0.9562,-0.9562,0.0,0.0,-0.8745,-0.8037,-0.7498,-0.7069,-0.6448,-0.6182,-0.6105,-0.5818,-0.5407,-0.4991,-0.4632,-0.4024,-0.3406,-0.3403,-0.3089,-0.2728,-0.2819,-0.2793,-0.2732,-0.2675,-0.2637,-0.2567,-0.2214,-0.1825,-0.1379,-0.0785,-0.0084,0.0533,0.0813,0.1122,0.1375,0.1375,0.1515,0.1656,0.1738,0.2294,0.2931,0.3627,0.4184,0.4712,0.527,0.5352,0.5407,0.5622,0.5622,0.5681,0.5822,0.5923,0.6055,0.6164,0.7106,0.7771,0.8064,0.9059,0.9588,0.9588,0.9614,0.9681,0.9799,0.9851,1.0058,1.0419,1.0863,1.1284,-1.1627,-1.2357,-1.2788,-1.2247,-1.2482,-1.2662,0.0,0.0,0.0,0.0,0.0,0.0,0.0,0.0,0.0,0.0,0.0,0.0,0.0,0.0,0.0,0.0,0.0,-1.6423,-1.5875,-1.5594,-1.5439,-1.541,-1.541,-1.541,-1.541,-1.5352,-1.485,-1.3873,-1.3772,-1.2926,-1.1269,-1.1285,-1.0822,-0.9818,-0.9713,-0.9665,-0.9588,-0.9491,-0.9439,-0.9387,0.0,-0.8315,-0.7857,-0.7283,-0.6772,-0.6372,-0.6236,-0.6055,-0.5818,-0.5375,-0.5018,-0.466,-0.3858,-0.3524,-0.3347,-0.3029,-0.2847,-0.2821,-0.2939,-0.2954,-0.2883,-0.2552,-0.2416,-0.2262,-0.1804,-0.1485,-0.0984,0.0169,0.0559,0.0839,0.1487,0.1685,0.1713,0.1713,0.1741,0.1936,0.2432,0.2625,0.307,0.4184,0.4436,0.4767,0.5458,0.554,0.5595,0.5763,0.5768,0.5818,0.595,0.5978,0.6273,0.6896,0.7208,0.7797,0.8791,0.9328,0.9588,0.9588,0.9706,0.9766,0.9799,1.0084,1.0462,1.0905,1.1141,1.1726,-1.0768,-1.1597,-1.2472,-1.2009,-1.2638,-1.3194,0.0,0.0,0.0,0.0,0.0,0.0,0.0,0.0,0.0,0.0,0.0,0.0,0.0,0.0,0.0,0.0,0.0,-1.6093,-1.5594,-1.5449,-1.541,-1.541,-1.5089,-1.4913,-1.4913,-1.4375,-1.368,-1.2859,-1.2618,-1.1926,-1.0743,-1.0806,-1.0411,-0.9588,-0.9588,-0.9657,-0.9771,-0.9698,-0.9513,-0.9217,0.0,-0.8297,-0.7507,-0.7105,-0.6687,-0.6229,-0.5975,-0.5655,-0.5281,-0.4466,-0.4126,-0.3963,-0.3306,-0.3111,-0.3171,-0.3001,-0.2936,-0.2881,-0.2816,-0.2746,-0.2526,-0.1879,-0.1799,-0.1802,-0.1213,-0.0566,0.012,0.0857,0.1193,0.1436,0.1785,0.1819,0.1797,0.1797,0.2074,0.2294,0.232,0.307,0.379,0.4177,0.4736,0.5234,0.5654,0.5709,0.5763,0.59,0.59,0.595,0.6091,0.6119,0.6517,0.7477,0.7904,0.8481,0.9283,0.951,0.9647,0.9706,0.9766,0.9903,1.0058,1.0213,1.0496,1.0863,1.1418,1.2093,-1.0224,-1.1002,-1.207,0.0,0.0,0.0,0.0,0.0,0.0,0.0,0.0,0.0,0.0,0.0,0.0,0.0,0.0,0.0,0.0,0.0,-1.6787,-1.6312,-1.614,-1.5911,-1.5439,-1.5264,-1.5177,-1.5177,-1.4617,-1.4261,-1.4261,-1.3473,-1.276,-1.2131,-1.1831,-1.1333,-1.0733,-1.0675,-1.0319,-0.9678,-0.9725,-0.9714,-0.9611,-0.966,-0.9354,-0.8774,-0.8621,-0.8034,-0.7205,-0.6883,-0.6533,-0.6169,-0.5652,-0.5118,-0.4555,-0.3738,-0.3412,-0.3328,-0.2856,-0.2781,-0.2847,-0.2838,-0.2821,-0.2722,-0.255,-0.2341,-0.1984,-0.1226,-0.1038,-0.0909,-0.0402,0.0371,0.1087,0.1388,0.1693,0.1932,0.1932,0.1868,0.1838,0.1838,0.2221,0.255,0.2514,0.3603,0.4468,0.4551,0.5269,0.5826,0.5898,0.5956,0.6003,0.6041,0.6101,0.6192,0.6396,0.6522,0.7025,0.8057,0.8666,0.9171,0.9588,0.9621,0.9706,0.9799,0.9877,1.0032,1.029,1.0342,1.0561,1.0977,1.1793,1.2508,-1.0798,-1.1092,-1.1327,-1.1852,0.0,0.0,0.0,0.0,0.0,0.0,0.0,0.0,0.0,0.0,0.0,0.0,0.0,0.0,0.0,0.0,-1.5596,-1.5477,-1.5468,-1.5439,-1.541,-1.4883,-1.4558,-1.4558,-1.3953,-1.3563,-1.3563,-1.3515,-1.3158,-1.2503,-1.2448,-1.1988,-1.107,-1.0884,-1.048,-0.9884,-1.0115,-0.9714,-0.8685,-0.8899,-0.8586,-0.7862,-0.7181,-0.6823,-0.6703,-0.6181,-0.5949,-0.5868,-0.5272,-0.4452,-0.3613,-0.3518,-0.3287,-0.2977,-0.2581,-0.2431,-0.2417,-0.2171,-0.2092,-0.2099,-0.2196,-0.1842,-0.1303,-0.0935,-0.0134,0.066,0.075,0.1038,0.1371,0.183,0.1969,0.1997,0.1997,0.1992,0.199,0.199,0.2063,0.2541,0.3821,0.4195,0.4743,0.6028,0.6301,0.6324,0.6257,0.6422,0.6449,0.6215,0.6342,0.6628,0.6993,0.7477,0.8057,0.8699,0.9242,0.9562,0.9588,0.9706,0.9799,0.9799,1.011,1.0265,1.029,1.0419,1.0923,1.1754,1.2365,1.3124,-1.05,-1.0869,-1.1373,-1.1771,0.0,0.0,0.0,0.0,0.0,0.0,0.0,0.0,0.0,0.0,0.0,0.0,0.0,0.0,-1.442,-1.5004,-1.5425,-1.5391,-1.541,-1.5264,-1.4883,-1.4617,-1.4321,-1.3902,-1.3252,-1.2887,-1.2887,-1.2528,-1.2135,-1.1756,-1.1756,-1.1549,-1.11,-1.0554,-1.0038,-0.9525,-0.9541,-0.9155,-0.8426,-0.85,-0.8204,-0.7593,-0.731,-0.6935,-0.6495,-0.6309,-0.6022,-0.5608,-0.4644,-0.3985,-0.3498,-0.296,-0.2764,-0.2694,-0.2282,-0.2213,-0.2253,-0.2145,-0.212,-0.2023,-0.1475,-0.1176,-0.0773,0.0235,0.0806,0.1104,0.1146,0.151,0.1915,0.2091,0.2088,0.206,0.206,0.203,0.2065,0.2282,0.2895,0.3573,0.4039,0.4947,0.5743,0.6108,0.6362,0.6549,0.66,0.668,0.6671,0.6576,0.7056,0.7444,0.7583,0.8324,0.8909,0.9207,0.9547,0.9732,0.9732,0.9844,0.9981,1.011,1.0247,1.0342,1.0419,1.0685,1.1027,1.1451,1.2565,1.3511,-1.0301,-1.0543,-1.1057,0.0,0.0,0.0,0.0,0.0,0.0,0.0,0.0,0.0,0.0,0.0,0.0,0.0,0.0,-1.4104,-1.4104,-1.4845,-1.541,-1.541,-1.5235,-1.4942,-1.4529,-1.4133,-1.3674,-1.323,-1.2581,-1.2212,-1.2212,-1.1771,-1.1428,-1.1303,-1.1272,-1.1083,-1.0762,-1.0218,-0.9542,-0.8799,-0.8657,-0.8348,-0.7887,-0.7991,-0.773,-0.7167,-0.7167,-0.6872,-0.6383,-0.6218,-0.5723,-0.4926,-0.3986,-0.3444,-0.3129,-0.2467,-0.2329,-0.2419,-0.2026,-0.192,-0.1985,-0.1884,-0.185,-0.1715,-0.0874,-0.0538,-0.0168,0.0975,0.1446,0.158,0.158,0.1884,0.2188,0.2188,0.2154,0.2124,0.2124,0.2187,0.2345,0.2724,0.3576,0.4306,0.4656,0.5655,0.6384,0.6467,0.6696,0.6894,0.6925,0.6972,0.6991,0.6925,0.7505,0.7986,0.8216,0.9039,0.966,0.9994,1.0161,1.0212,1.0061,1.0284,1.047,1.0611,1.0664,1.0709,1.0822,1.1061,1.1374,1.179,1.3021,1.4025,-1.0347,-1.016,0.0,0.0,0.0,0.0,0.0,0.0,0.0,0.0,0.0,0.0,0.0,0.0,0.0,0.0,-1.3871,-1.4104,-1.4104,-1.4835,-1.5371,-1.5371,-1.4844,-1.449,-1.446,-1.3265,-1.2504,-1.2465,-1.1942,-1.1584,-1.1584,-1.1389,-1.1296,-1.1303,-1.1146,-1.073,-0.9983,-0.9862,-0.909,-0.7707,-0.7554,-0.732,-0.7002,-0.7329,-0.7101,-0.6387,-0.6387,-0.6387,-0.6354,-0.5815,-0.4887,-0.377,-0.3362,-0.2879,-0.2374,-0.2096,-0.2081,-0.2153,-0.1748,-0.158,-0.1547,-0.121,-0.1109,-0.1008,-0.047,0.0067,0.0605,0.1143,0.1748,0.2188,0.2188,0.2188,0.2188,0.2188,0.2188,0.2221,0.2221,0.2487,0.2887,0.342,0.3896,0.4627,0.588,0.6234,0.6591,0.7395,0.7489,0.7418,0.7218,0.7365,0.7413,0.7245,0.7633,0.8222,0.8949,0.9624,1.0322,1.105,1.122,1.1086,1.0636,1.1055,1.1298,1.1298,1.1431,1.1487,1.1487,1.1495,1.2012,1.3024,1.3807,1.4706,-1.021,-1.0295,0.0,0.0,0.0,0.0,0.0,0.0,0.0,0.0,0.0,0.0,0.0,0.0,0.0,-1.3094,-1.3431,-1.3562,-1.3161,-1.3585,-1.3775,-1.3411,-1.3215,-1.2941,-1.2495,-1.2093,-1.1623,-1.1078,-1.085,-1.0703,-1.0622,-1.0563,-1.0573,-1.0669,-1.0615,-1.031,-0.964,-0.9128,-0.8452,-0.7549,-0.7003,-0.6682,-0.6599,-0.6687,-0.6613,-0.6387,-0.6387,-0.6185,-0.5749,-0.4583,-0.3868,-0.3445,-0.2673,-0.2292,-0.2127,-0.1725,-0.1674,-0.1735,-0.1369,-0.1244,-0.1244,-0.1143,-0.084,-0.0437,0.0101,0.0638,0.1176,0.1783,0.2052,0.2188,0.2188,0.2388,0.2487,0.2255,0.2388,0.2554,0.2554,0.3119,0.3751,0.4189,0.4949,0.5752,0.64,0.6857,0.7224,0.7447,0.7489,0.747,0.7408,0.7451,0.7692,0.8196,0.8854,0.9556,1.0339,1.0862,1.1255,1.1577,1.1635,1.1472,1.1101,1.1327,1.1431,1.1431,1.1487,1.1487,1.1487,1.1741,1.212,1.2672,1.3611,1.4565,-1.0024,0.0,0.0,0.0,0.0,0.0,0.0,0.0,0.0,0.0,0.0,0.0,0.0,0.0,0.0,-1.255,-1.2745,-1.2741,-1.2428,-1.2735,-1.2868,-1.2538,-1.2297,-1.1991,-1.1551,-1.1269,-1.0908,-1.0365,-1.0308,-1.0286,-1.02,-1.0113,-1.011,-1.0208,-0.9903,-0.9465,-0.8827,-0.8179,-0.7525,-0.6867,-0.6428,-0.6241,-0.6314,-0.6384,-0.6387,-0.6383,-0.6185,-0.5716,-0.5011,-0.3906,-0.3208,-0.2772,-0.2051,-0.1786,-0.179,-0.1381,-0.1289,-0.1327,-0.1165,-0.1109,-0.1076,-0.084,-0.0571,-0.0168,0.0605,0.1042,0.1412,0.2018,0.2287,0.2388,0.2388,0.2654,0.2822,0.2488,0.2654,0.2956,0.3186,0.3751,0.442,0.5087,0.5815,0.6474,0.6937,0.7293,0.7489,0.7489,0.7489,0.7554,0.7689,0.7874,0.8226,0.8871,0.9729,1.0521,1.108,1.1577,1.1933,1.2114,1.2122,1.2019,1.1807,1.1887,1.1945,1.1945,1.1945,1.1945,1.1945,1.2249,1.2652,1.3135,1.4093,1.4971,0.0,0.0,0.0,0.0,0.0,0.0,0.0,0.0,0.0,0.0,0.0,0.0,0.0,0.0,0.0,-1.1963,-1.191,-1.1825,-1.1773,-1.2082,-1.2269,-1.2214,-1.1734,-1.1316,-1.1216,-1.0662,-1.0251,-1.0087,-1.0087,-1.0087,-1.0058,-0.9886,-0.9778,-0.9777,-0.9128,-0.8428,-0.7715,-0.7161,-0.6572,-0.5888,-0.5888,-0.6,-0.6191,-0.631,-0.6334,-0.6251,-0.5716,-0.4984,-0.411,-0.3487,-0.2724,-0.1906,-0.1526,-0.1357,-0.1326,-0.1098,-0.1005,-0.1002,-0.1065,-0.1076,-0.0941,-0.047,-0.0235,0.0034,0.1008,0.1344,0.1546,0.2085,0.2488,0.2753,0.2753,0.2989,0.3192,0.2921,0.309,0.3458,0.3951,0.4453,0.5054,0.598,0.6474,0.6933,0.7423,0.7489,0.7521,0.7554,0.7554,0.7689,0.8079,0.849,0.8935,0.9428,1.0395,1.1142,1.1399,1.1981,1.2398,1.259,1.259,1.259,1.259,1.259,1.259,1.259,1.259,1.2621,1.2652,1.2867,1.3376,1.407,1.4942,1.57,0.0,0.0,0.0,0.0,0.0,0.0,0.0,0.0,0.0,0.0,0.0,0.0,0.0,0.0,-1.1818,-1.1443,-1.1378,-1.12,-1.079,-1.0717,-1.0548,-1.011,-0.9853,-0.9701,-0.9667,-0.9541,-0.9414,-0.9253,-0.9253,-0.9207,-0.9099,-0.9052,-0.8928,-0.8717,-0.8583,-0.8052,-0.7101,-0.6957,-0.6572,-0.5888,-0.5888,-0.5939,-0.598,-0.6155,-0.5923,-0.5352,-0.4818,-0.4048,-0.3145,-0.2335,-0.1841,-0.157,-0.1226,-0.1068,-0.1,-0.0999,-0.0992,-0.1005,-0.109,-0.084,-0.0437,-0.0336,0.0269,0.1008,0.1244,0.1814,0.2418,0.2552,0.2822,0.3092,0.3092,0.3391,0.3758,0.4092,0.4259,0.4325,0.4459,0.5415,0.6309,0.6539,0.6966,0.7358,0.7489,0.7489,0.7587,0.7852,0.7884,0.8177,0.8914,0.9107,0.9608,1.0742,1.108,1.1531,1.2274,1.2467,1.256,1.259,1.259,1.259,1.259,1.259,1.259,1.259,1.259,1.2713,1.2928,1.2981,1.3519,1.4558,1.4775,1.5497,0.0,0.0,0.0,0.0,0.0,0.0,0.0,0.0,0.0,0.0,0.0,0.0,0.0,-1.141,-1.1091,-1.0762,-1.0464,-1.0131,-0.9855,-0.9769,-0.9614,-0.9335,-0.9237,-0.9185,-0.9106,-0.9113,-0.9061,-0.891,-0.891,-0.8883,-0.8804,-0.8533,-0.8292,-0.8157,-0.7637,-0.7093,-0.6563,-0.6282,-0.5974,-0.5603,-0.5542,-0.5527,-0.5559,-0.5523,-0.5329,-0.4922,-0.4025,-0.3257,-0.2594,-0.1909,-0.1477,-0.1232,-0.1033,-0.0939,-0.0905,-0.0966,-0.0988,-0.0965,-0.0791,-0.0538,-0.0202,0.0302,0.084,0.1378,0.1848,0.2318,0.272,0.2889,0.319,0.3491,0.3491,0.3761,0.4095,0.4398,0.4464,0.4661,0.5451,0.5984,0.6478,0.697,0.7293,0.7489,0.7489,0.7489,0.7591,0.7824,0.7954,0.8247,0.8958,0.9524,1.0212,1.1062,1.1632,1.2104,1.256,1.259,1.259,1.259,1.259,1.259,1.259,1.259,1.259,1.259,1.2713,1.2867,1.2989,1.3316,1.3791,1.4389,1.5001,1.57,0.0,0.0,0.0,0.0,0.0,0.0,0.0,0.0,0.0,0.0,0.0,0.0,-1.115,-1.0576,-1.0167,-1.0038,-0.9562,-0.9211,-0.9211,-0.9185,-0.9159,-0.9159,-0.9133,-0.9087,-0.8982,-0.8956,-0.891,-0.8811,-0.8804,-0.8752,-0.8639,-0.8176,-0.7818,-0.7605,-0.6691,-0.6154,-0.6046,-0.554,-0.5297,-0.527,-0.5128,-0.5046,-0.4984,-0.4629,-0.4493,-0.446,-0.3314,-0.2561,-0.2123,-0.1674,-0.1299,-0.0985,-0.0925,-0.0895,-0.0905,-0.0966,-0.0927,-0.081,-0.0428,-0.0168,0.0134,0.1075,0.1479,0.1714,0.2519,0.282,0.2954,0.3224,0.3591,0.3892,0.3892,0.4097,0.4334,0.4431,0.4434,0.4831,0.6247,0.635,0.6445,0.7326,0.7489,0.7489,0.7489,0.7554,0.7657,0.7829,0.8019,0.8409,0.9087,0.999,1.0748,1.1233,1.2058,1.259,1.259,1.259,1.259,1.259,1.259,1.259,1.259,1.2652,1.2652,1.2652,1.2897,1.3042,1.3164,1.3739,1.407,1.424,1.5381,1.6058,0.0,0.0,0.0,0.0,0.0,0.0,0.0,0.0,0.0,0.0,0.0,0.0,-1.055,-1.0269,-1.002,-0.9439,-0.9263,-0.9211,-0.9211,-0.9113,-0.9035,-0.9035,-0.8936,-0.8857,-0.8831,-0.8831,-0.8804,-0.8804,-0.8804,-0.856,-0.8037,-0.7951,-0.7444,-0.6448,-0.629,-0.5941,-0.5434,-0.5352,-0.5242,-0.5128,-0.4983,-0.4647,-0.4123,-0.3458,-0.3253,-0.3369,-0.2743,-0.197,-0.1194,-0.1098,-0.1047,-0.0985,-0.0925,-0.0895,-0.0905,-0.0966,-0.071,-0.0311,-0.0297,0.0302,0.1176,0.1644,0.2147,0.2586,0.3023,0.3391,0.3656,0.3692,0.3961,0.4233,0.4233,0.4267,0.4431,0.4891,0.499,0.519,0.5855,0.6675,0.7326,0.7456,0.7489,0.7489,0.7489,0.7754,0.8052,0.8355,0.8668,0.93,1.0541,1.0825,1.1296,1.2274,1.2498,1.259,1.259,1.259,1.259,1.259,1.259,1.259,1.259,1.2836,1.2958,1.2958,1.2989,1.3285,1.386,1.395,1.4359,1.5059,1.5633,1.6424,0.0,0.0,0.0,0.0,0.0,0.0,0.0,0.0,0.0,0.0,0.0,-1.0474,-0.9758,-0.9588,-0.9439,-0.9133,-0.9035,-0.8982,-0.8982,-0.8936,-0.8883,-0.8883,-0.8831,-0.8804,-0.8804,-0.8804,-0.8666,-0.8315,-0.8282,-0.8043,-0.7482,-0.7122,-0.6718,-0.6209,-0.58,-0.5454,-0.5183,-0.5128,-0.4849,-0.4377,-0.4322,-0.3934,-0.3249,-0.2598,-0.2385,-0.2492,-0.1891,-0.1384,-0.1008,-0.1008,-0.1001,-0.0985,-0.0925,-0.0867,-0.0791,-0.0815,-0.037,0.028,0.0527,0.1176,0.1981,0.2484,0.2787,0.3056,0.3426,0.3658,0.3825,0.4028,0.4197,0.43,0.43,0.43,0.4434,0.4957,0.5322,0.569,0.6214,0.6708,0.7129,0.7456,0.7657,0.7787,0.7787,0.8052,0.8382,0.8641,0.9113,0.9678,1.0345,1.1045,1.1646,1.2089,1.2406,1.259,1.259,1.259,1.259,1.259,1.259,1.2652,1.2836,1.2928,1.3164,1.3558,1.3558,1.3709,1.401,1.4198,1.4467,1.4823,1.5525,1.6148,0.0,0.0,0.0,0.0,0.0,0.0,0.0,0.0,0.0,0.0,-0.9385,-0.9261,-0.9031,-0.9006,-0.8982,-0.8956,-0.8857,-0.8804,-0.8804,-0.8804,-0.8804,-0.8804,-0.8804,-0.8804,-0.8804,-0.8666,-0.8395,-0.7925,-0.7771,-0.745,-0.6842,-0.6404,-0.6073,-0.5882,-0.534,-0.5042,-0.5042,-0.4763,-0.4346,-0.3796,-0.3602,-0.3155,-0.2458,-0.2014,-0.1758,-0.1688,-0.1204,-0.0977,-0.0977,-0.0985,-0.0984,-0.0975,-0.0892,-0.0784,-0.0686,-0.0453,0.0124,0.0879,0.1386,0.2014,0.2686,0.319,0.336,0.3426,0.3794,0.3928,0.3995,0.4233,0.43,0.43,0.43,0.4398,0.4595,0.4987,0.562,0.6251,0.6773,0.697,0.7167,0.7554,0.7884,0.8117,0.8117,0.8409,0.8732,0.9022,0.9556,1.0059,1.0401,1.1233,1.1833,1.1996,1.2375,1.259,1.259,1.259,1.2629,1.2713,1.2802,1.2966,1.3274,1.3459,1.3788,1.4311,1.4394,1.4326,1.4139,1.4387,1.4561,1.4671,1.5444,1.5967,0.0,0.0,0.0,0.0,0.0,0.0,0.0,0.0,0.0,0.0,-0.8516,-0.862,-0.8466,-0.8746,-0.8956,-0.8831,-0.8811,-0.8804,-0.8804,-0.8804,-0.8804,-0.8804,-0.8804,-0.8804,-0.8804,-0.8282,-0.7925,-0.7898,-0.7429,-0.681,-0.6109,-0.6028,-0.5696,-0.4979,-0.4924,-0.4901,-0.4901,-0.4211,-0.3852,-0.3796,-0.3098,-0.243,-0.1846,-0.1818,-0.1485,-0.0957,-0.0932,-0.0916,-0.0918,-0.0976,-0.0971,-0.0886,-0.0767,-0.0706,-0.059,0.0213,0.0878,0.1452,0.2127,0.2686,0.3226,0.3625,0.3758,0.3825,0.4164,0.4267,0.4267,0.43,0.43,0.43,0.43,0.4661,0.5054,0.5087,0.5914,0.6806,0.7326,0.7722,0.7949,0.7954,0.8252,0.8484,0.8484,0.8765,0.9139,0.9678,1.004,1.0618,1.1584,1.1771,1.1996,1.2498,1.259,1.259,1.259,1.259,1.2713,1.2958,1.3332,1.3712,1.4036,1.4699,1.5095,1.5127,1.5441,1.5226,1.4476,1.4476,1.4708,1.5074,1.5576,1.6263,0.0,0.0,0.0,0.0,0.0,0.0,0.0,0.0,0.0,-0.7667,-0.7762,-0.8004,-0.8328,-0.8662,-0.8857,-0.8811,-0.8804,-0.8804,-0.8804,-0.8804,-0.8804,-0.8804,-0.8804,-0.8639,-0.8256,-0.7957,-0.7477,-0.6723,-0.6426,-0.5991,-0.534,-0.5285,-0.5175,-0.4897,-0.4822,-0.4543,-0.407,-0.3793,-0.3292,-0.2514,-0.2235,-0.1818,-0.1232,-0.1232,-0.1093,-0.0898,-0.0909,-0.0896,-0.0886,-0.0823,-0.0798,-0.0759,-0.0638,-0.0243,0.0303,0.0613,0.1505,0.2586,0.2823,0.3355,0.393,0.4064,0.4131,0.4131,0.4267,0.43,0.43,0.43,0.4352,0.4443,0.4443,0.4913,0.5668,0.6672,0.744,0.8103,0.8543,0.8548,0.8519,0.8788,0.91,0.9293,0.9092,0.9361,0.9658,0.9822,1.0097,1.0589,1.1447,1.1677,1.2027,1.2529,1.259,1.259,1.259,1.2977,1.3294,1.3388,1.3951,1.4453,1.4784,1.5053,1.531,1.5537,1.5624,1.5551,1.5267,1.5267,1.534,1.5487,1.5914,1.6486,0.0,0.0,0.0,0.0,0.0,0.0,0.0,0.0,0.0,-0.7052,-0.7185,-0.7491,-0.8,-0.8317,-0.8551,-0.8778,-0.8804,-0.8804,-0.8804,-0.8804,-0.8804,-0.8804,-0.8593,-0.8262,-0.7877,-0.7369,-0.675,-0.5996,-0.5664,0.0,-0.4846,-0.4846,-0.4818,-0.4763,-0.4491,-0.4101,-0.3599,-0.3209,-0.2597,-0.179,-0.1595,-0.1288,-0.0898,-0.0842,-0.0842,-0.0842,-0.0757,-0.0767,-0.0814,-0.075,-0.0669,-0.0578,-0.0243,0.0246,0.0874,0.1359,0.224,0.324,0.3498,0.3892,0.43,0.43,0.43,0.43,0.43,0.43,0.43,0.43,0.4382,0.4538,0.4749,0.5579,0.6718,0.8035,0.87,0.9122,0.9507,0.9311,0.9146,0.9427,0.9741,0.9869,0.9602,0.9767,0.9944,1.0017,1.0329,1.078,1.1454,1.1842,1.2212,1.256,1.2702,1.2773,1.2773,1.3403,1.3824,1.3944,1.4656,1.5202,1.5549,1.5707,1.587,1.6092,1.6092,1.6092,1.6092,1.5817,1.5762,1.5909,1.635,1.6968,0.0,0.0,0.0,0.0,0.0,0.0,0.0,0.0,0.0,-0.6543,-0.68,-0.7101,-0.7424,-0.7709,-0.8079,-0.8684,-0.8784,-0.8784,-0.8784,-0.8784,-0.8758,-0.8765,-0.8117,-0.7691,-0.7643,-0.6529,-0.5773,-0.5773,-0.5226,-0.4818,-0.4691,-0.4688,-0.4632,-0.4487,-0.3904,-0.3569,-0.3544,-0.2374,-0.179,-0.1762,-0.1177,-0.0898,-0.087,-0.0757,-0.0701,-0.0673,-0.0477,-0.0505,-0.0675,-0.0697,-0.056,-0.0324,0.0353,0.0702,0.1027,0.2458,0.3096,0.3351,0.4061,0.43,0.43,0.43,0.43,0.43,0.43,0.43,0.43,0.4306,0.4421,0.4685,0.5322,0.6717,0.816,0.9122,0.9471,0.9748,1.0122,1.0012,0.984,0.984,1.0113,1.0232,0.9961,0.9919,0.9988,1.0264,1.0688,1.1192,1.1755,1.2259,1.2606,1.259,1.2909,1.3124,1.3124,1.3811,1.4379,1.4617,1.5377,1.5986,1.6297,1.6707,1.6908,1.6908,1.6908,1.6908,1.6908,1.6111,1.5936,1.6331,1.6888,1.773,-0.6898,0.0,0.0,0.0,0.0,0.0,0.0,0.0,0.0,-0.6037,-0.6359,-0.68,-0.7088,-0.7388,-0.7722,-0.8085,-0.8145,-0.8145,-0.8145,-0.8145,-0.8045,-0.7737,-0.7524,-0.7127,-0.6406,-0.5873,-0.5414,0.0,-0.4767,-0.4601,-0.4546,-0.4546,-0.4349,-0.3876,-0.3683,-0.3181,-0.2319,-0.1958,-0.1539,-0.1008,-0.0841,-0.0673,-0.0533,-0.0505,-0.0477,-0.0477,-0.0421,-0.0364,-0.0337,-0.0349,-0.0298,-0.0182,0.0533,0.1205,0.1846,0.2697,0.3419,0.4028,0.4233,0.43,0.43,0.43,0.43,0.43,0.43,0.43,0.4317,0.4432,0.4856,0.5639,0.7179,0.8143,0.8934,0.9939,1.0211,1.0373,1.0744,1.0801,1.0754,1.0754,1.0821,1.0719,1.0268,1.019,1.027,1.0555,1.0731,1.1141,1.1993,1.2257,1.2427,1.2591,1.3121,1.3451,1.3451,1.4618,1.5396,1.5455,1.6165,1.6631,1.6743,1.6844,1.6908,1.6908,1.6908,1.6908,1.6908,1.6679,1.6633,1.6743,1.7417,1.8049,0.0,0.0,0.0,0.0,0.0,0.0,0.0,-0.6326,0.0,0.0,-0.6191,-0.6519,-0.6787,-0.7002,-0.7182,-0.7341,-0.7308,-0.7389,-0.7775,-0.7685,-0.7448,-0.7178,-0.6693,-0.6142,-0.557,-0.5135,-0.4745,-0.4439,-0.4391,-0.4399,-0.4487,-0.4267,-0.3959,-0.3599,-0.3067,-0.243,-0.1734,-0.1371,-0.1008,-0.0589,-0.0589,-0.0505,-0.0393,-0.0336,-0.0308,-0.0308,-0.0252,-0.0056,0.0253,0.0319,0.0297,0.0332,0.1065,0.1819,0.2561,0.3206,0.3811,0.43,0.43,0.43,0.43,0.43,0.43,0.43,0.43,0.43,0.4425,0.4983,0.6005,0.7252,0.8557,0.9258,0.983,1.0588,1.0738,1.0812,1.1037,1.1111,1.1111,1.1111,1.1021,1.0816,1.0364,1.0202,1.0208,1.0496,1.073,1.115,1.1927,1.2252,1.2585,1.2962,1.3531,1.3964,1.4286,1.5339,1.6005,1.6005,1.6564,1.6908,1.6908,1.6908,1.6908,1.6908,1.6908,1.6908,1.6908,1.6908,1.7047,1.7358,1.7803,1.8168,0.0,0.0,0.0,0.0,0.0,0.0,-0.6738,-0.6085,-0.557,0.0,-0.6122,-0.6211,-0.6446,-0.6527,-0.656,-0.6527,-0.6481,-0.6713,-0.7494,-0.7245,-0.6919,-0.6746,-0.5736,0.0,-0.4992,-0.4388,-0.3994,-0.3994,-0.4119,-0.4224,-0.4351,-0.3847,-0.3495,-0.3385,-0.2202,-0.1538,-0.1454,-0.0756,-0.0393,-0.0364,-0.0364,-0.0364,-0.0364,-0.0224,-0.0168,-0.0168,0.0028,0.0393,0.0927,0.1098,0.1114,0.1092,0.1832,0.2485,0.3101,0.3833,0.4194,0.43,0.43,0.43,0.43,0.43,0.43,0.43,0.4334,0.4334,0.4593,0.5823,0.7415,0.8901,0.9546,1.0132,1.0663,1.0999,1.1111,1.1111,1.1111,1.1111,1.1111,1.1111,1.0863,1.0599,1.034,1.0075,0.9982,1.0251,1.0733,1.1244,1.1747,1.2375,1.2993,1.3545,1.408,1.463,1.5299,1.5991,1.6386,1.6386,1.67,1.6908,1.6908,1.6908,1.6908,1.6908,1.6908,1.6908,1.6908,1.6908,1.7279,1.7906,1.794,1.8144,-0.8377,-0.834,-0.8171,0.0,0.0,0.0,-0.6288,-0.6226,-0.6247,0.0,-0.5594,-0.5727,-0.5786,-0.611,-0.6298,-0.6072,-0.6367,-0.6747,-0.7015,-0.6566,-0.608,-0.5723,0.0,0.0,-0.4249,-0.4094,-0.3994,-0.3994,-0.4021,-0.39,-0.3544,-0.3326,-0.2815,-0.1929,-0.1543,-0.1119,-0.0644,-0.0477,-0.0336,-0.0252,-0.0252,-0.0196,-0.0084,-0.0056,-0.0028,0.0,0.0505,0.0785,0.0926,0.1466,0.172,0.1862,0.2532,0.2941,0.3249,0.3858,0.4194,0.43,0.43,0.43,0.43,0.43,0.43,0.4334,0.4495,0.4528,0.4907,0.665,0.7792,0.8746,1.0008,1.0663,1.0999,1.1074,1.1111,1.1111,1.1111,1.1111,1.1111,1.1111,1.0863,1.0599,1.034,1.0075,0.9982,1.0251,1.0987,1.1564,1.1777,1.3012,1.381,1.3635,1.4725,1.5542,1.5689,1.6361,1.6769,1.6769,1.6874,1.6908,1.6908,1.6908,1.6908,1.6908,1.6908,1.6908,1.6908,1.7072,1.721,1.7373,1.7647,1.7784,-0.8494,-0.8299,-0.8096,-0.7853,0.0,0.0,0.0,0.0,-0.5899,-0.5684,-0.5587,-0.5598,-0.5723,0.0,-0.5893,-0.5893,-0.5952,-0.6122,-0.6454,-0.5902,0.0,0.0,0.0,0.0,-0.3808,-0.3799,-0.3829,-0.39,-0.3614,-0.3373,-0.3213,-0.2558,-0.1954,-0.1406,-0.0973,-0.0606,-0.0308,-0.0224,-0.0168,-0.0112,-0.0112,-0.0056,0.0,0.0,0.0168,0.0477,0.0757,0.1232,0.1821,0.2191,0.2595,0.2954,0.2985,0.3256,0.371,0.4074,0.4246,0.43,0.43,0.4367,0.4464,0.4464,0.4498,0.4564,0.4661,0.5454,0.6498,0.7447,0.8692,0.9895,1.0619,1.0962,1.1111,1.1111,1.1111,1.1111,1.1111,1.1111,1.1111,1.1111,1.0863,1.0599,1.034,0.9967,0.9829,1.0232,1.1189,1.197,1.2317,1.3591,1.4518,1.4674,1.5351,1.5938,1.6305,1.6686,1.6908,1.6908,1.6908,1.6908,1.6908,1.6908,1.6908,1.6908,1.6908,1.6943,1.7038,1.7245,1.7358,1.7358,1.752,1.7691,0.0,0.0,0.0,0.0,0.0,-0.65,0.0,0.0,0.0,0.0,0.0,0.0,0.0,0.0,0.0,0.0,0.0,0.0,0.0,0.0,0.0,0.0,0.0,0.0,-0.352,-0.351,-0.3587,-0.3737,-0.3141,-0.2807,-0.2893,-0.1832,-0.1185,-0.1092,-0.0475,-0.0162,-0.0167,-0.0056,0.0,0.0,0.0,0.0,0.0,0.0112,0.0449,0.0926,0.1149,0.179,0.2715,0.2934,0.3389,0.3844,0.3404,0.3605,0.4164,0.4265,0.43,0.43,0.4334,0.4464,0.4592,0.4625,0.4728,0.4894,0.5027,0.6348,0.7863,0.8181,0.9503,1.0887,1.1074,1.1111,1.1111,1.1111,1.1111,1.1111,1.1111,1.1111,1.1111,1.1111,1.0821,1.0539,1.0328,0.9934,0.9846,1.0418,1.1443,1.2392,1.3018,1.4154,1.5138,1.5721,1.592,1.6235,1.6846,1.6908,1.6908,1.6908,1.6908,1.6908,1.6908,1.6908,1.6908,1.6908,1.6934,1.7038,1.7201,1.7392,1.7505,1.7529,1.7573,1.7745,0.0,0.0,0.0,0.0,-0.7609,0.0,0.0,0.0,0.0,0.0,0.0,0.0,0.0,0.0,0.0,0.0,0.0,0.0,0.0,0.0,0.0,0.0,0.0,0.0,0.0,-0.3232,-0.3293,-0.3604,-0.2787,-0.2243,-0.2119,-0.1384,-0.0745,-0.0339,-0.0129,-0.0027,-0.0027,0.0,0.0,0.0,0.0,0.0,0.0028,0.0561,0.0842,0.0953,0.204,0.2569,0.2738,0.3286,0.3677,0.3916,0.3958,0.4108,0.4281,0.4295,0.43,0.4334,0.4495,0.4595,0.4625,0.4728,0.4894,0.5186,0.5782,0.6481,0.7398,0.8785,0.9587,1.0218,1.0925,1.1111,1.1111,1.1111,1.1111,1.1111,1.1111,1.1111,1.1111,1.1111,1.0677,1.0328,1.0304,1.0187,1.0383,1.1158,1.1902,1.2743,1.3737,1.494,1.5703,1.5781,1.6376,1.6819,1.6899,1.6908,1.6908,1.6908,1.6908,1.6908,1.6908,1.6908,1.6908,1.6908,1.7072,1.7166,1.7201,1.7392,1.7564,1.7672,1.7862,1.7974,0.0,0.0,0.0,0.0,0.0,0.0,-0.5816,0.0,-0.5297,0.0,0.0,0.0,0.0,0.0,0.0,0.0,0.0,0.0,0.0,0.0,0.0,0.0,0.0,0.0,0.0,0.0,0.0,0.0,-0.2213,-0.159,-0.1373,-0.0742,-0.0279,-0.0095,-0.0025,0.0,0.0,0.0,0.0,0.0,0.0,0.0196,0.0533,0.0785,0.1288,0.1986,0.2486,0.2905,0.3244,0.3499,0.3782,0.4067,0.4148,0.4289,0.4461,0.4461,0.4531,0.4597,0.4694,0.4791,0.4924,0.5093,0.5193,0.5439,0.6265,0.7078,0.7948,0.9194,1.0061,1.0663,1.0999,1.1111,1.1111,1.1111,1.1111,1.1111,1.1111,1.1111,1.1063,1.0912,1.0707,1.0508,1.0496,1.051,1.0751,1.1304,1.2668,1.3879,1.4538,1.5709,1.6446,1.6446,1.6738,1.6908,1.6908,1.6908,1.6908,1.6908,1.6908,1.6908,1.6908,1.6908,1.6934,1.7072,1.7166,1.7304,1.751,1.7579,1.7691,1.7862,1.7852,1.7896,-0.8447,0.0,0.0,0.0,0.0,0.0,0.0,0.0,0.0,0.0,0.0,0.0,0.0,0.0,0.0,0.0,0.0,0.0,0.0,0.0,0.0,0.0,0.0,0.0,0.0,0.0,0.0,0.0,0.0,-0.1127,-0.0919,-0.0325,0.0,0.0,0.0,0.0,0.0,0.0,0.0,0.0,0.0168,0.0477,0.0898,0.1232,0.1874,0.2708,0.2903,0.3241,0.3666,0.373,0.3958,0.4247,0.4285,0.4495,0.4725,0.4658,0.4728,0.4797,0.4861,0.5027,0.519,0.5359,0.5524,0.5848,0.6789,0.7732,0.8715,0.9702,1.0503,1.1111,1.1111,1.1111,1.1111,1.1111,1.1111,1.1093,1.1021,1.1003,1.0924,1.0629,1.0616,1.0656,1.0606,1.0736,1.1056,1.1705,1.3293,1.4616,1.5231,1.6225,1.6908,1.6908,1.6908,1.6908,1.6908,1.6908,1.6908,1.6908,1.6908,1.6908,1.6908,1.6908,1.7003,1.7201,1.7235,1.7407,1.7706,1.775,1.7862,1.8008,1.7862,1.7862,0.0,0.0,0.0,-0.6735,0.0,0.0,0.0,0.0,-0.5505,0.0,0.0,0.0,0.0,0.0,0.0,0.0,0.0,0.0,0.0,0.0,0.0,0.0,0.0,0.0,0.0,0.0,-0.239,0.0,-0.1505,0.0,-0.0895,-0.0337,0.0,0.0,0.0,0.0,0.0,0.0,0.0,0.0,0.0589,0.087,0.0954,0.2097,0.2653,0.2736,0.3461,0.3769,0.3808,0.4078,0.4269,0.4403,0.4533,0.4799,0.5054,0.4861,0.4797,0.4831,0.5024,0.5223,0.5395,0.5395,0.5848,0.6531,0.749,0.8462,0.9471,1.0396,1.0869,1.1111,1.1111,1.1111,1.1111,1.1111,1.1111,1.1045,1.0755,1.0695,1.0617,1.0358,1.0484,1.0616,1.0604,1.077,1.1337,1.2557,1.3592,1.4594,1.5624,1.6429,1.6908,1.6908,1.6908,1.6908,1.6908,1.6908,1.6908,1.6908,1.6908,1.6908,1.6908,1.6908,1.7003,1.7201,1.7392,1.7564,1.7706,1.7896,1.7974,1.8008,1.7974,1.7974,0.0,0.0,-0.822,-0.7152,0.0,0.0,0.0,0.0,0.0,0.0,0.0,0.0,0.0,0.0,0.0,0.0,0.0,0.0,0.0,0.0,0.0,0.0,0.0,0.0,0.0,0.0,0.0,0.0,-0.1013,0.0,-0.032,-0.0106,0.0,0.0,0.0,0.0,0.0,0.0,0.0,0.0,0.0617,0.1121,0.154,0.2432,0.3044,0.3461,0.3796,0.3938,0.395,0.4113,0.4364,0.462,0.4731,0.5003,0.5259,0.506,0.5093,0.5196,0.5259,0.5326,0.5458,0.5914,0.6319,0.692,0.8359,0.9143,0.9744,1.068,1.1045,1.1111,1.1111,1.1111,1.1069,1.0894,1.0852,1.0743,1.0485,1.043,1.0435,1.0484,1.0541,1.0729,1.1198,1.133,1.168,1.2649,1.3976,1.5091,1.571,1.6438,1.6908,1.6908,1.6908,1.6908,1.6908,1.6908,1.6908,1.6908,1.6908,1.6908,1.6908,1.7038,1.7176,1.7392,1.7554,1.7716,1.7896,1.7974,1.8008,1.8008,1.8008,1.8008,-0.7592,-0.7809,0.0,-0.7212,-0.6836,0.0,-0.5764,0.0,0.0,0.0,0.0,0.0,0.0,0.0,0.0,0.0,0.0,0.0,0.0,0.0,0.0,0.0,0.0,0.0,0.0,0.0,-0.1589,-0.1108,-0.0686,0.0,0.0,0.0,0.0,0.0,0.0,0.0,0.0,0.0,0.0107,0.0336,0.0925,0.1568,0.2209,0.2905,0.3463,0.3882,0.4024,0.4079,0.4095,0.4339,0.459,0.4782,0.5011,0.5212,0.5395,0.5259,0.5292,0.5395,0.5395,0.5557,0.5859,0.6377,0.6983,0.7781,0.9057,0.973,1.0193,1.0891,1.1111,1.1111,1.1111,1.1045,1.0894,1.0725,1.0611,1.0508,1.0317,1.0329,1.0441,1.0548,1.0789,1.1083,1.1517,1.1735,1.2017,1.2549,1.3968,1.5081,1.533,1.6263,1.6908,1.6908,1.6908,1.6908,1.6908,1.6908,1.6908,1.6908,1.6908,1.6943,1.7003,1.7141,1.7314,1.7564,1.7647,1.7784,1.8008,1.8008,1.8008,1.8008,1.8008,1.8008]},{"header":{"parameterUnit":"m.s-1","parameterCategory":1,"la1":30.6,"la2":29.2853,"lo1":-89.7004,"lo2":-87.6739,"dy":0.0162,"dx":0.0183,"nx":112,"ny":82,"refTime":"2026-03-14T12:00:00:Z","depth":0,"parameterNumber":3,"parameterNumberName":"V-component_of_WINDS"},"data":[0.0,0.0,0.0,0.0,0.0,0.0,0.0,0.0,0.0,0.0,0.0,0.0,0.0,0.0,0.0,0.0,0.0,0.0,0.0,0.0,0.0,0.0,0.0,0.0,0.0,0.0,0.0,0.0,0.0,0.0,0.0,0.0,0.0,0.0,0.0,0.0,0.0,0.0,0.0,0.0,0.0,0.0,0.0,0.0,0.0,0.0,0.0,0.0,0.0,0.0,0.0,0.0,0.0,0.0,0.0,0.0,0.0,0.0,0.0,0.0,0.0,0.0,0.0,0.0,0.0,0.0,0.0,0.0,0.0,0.0,0.0,0.0,0.0,0.0,0.0,0.0,0.0,0.0,0.0,0.0,0.0,0.0,0.0,0.0,0.0,0.0,0.0,0.0,0.0,0.0,0.0,1.2806,1.4445,1.5104,1.4354,1.4186,1.3402,1.1791,0.0,0.0,0.0,0.0,0.0,0.0,0.0,0.0,0.0,0.0,0.0,0.0,0.0,0.0,0.0,0.0,0.0,0.0,0.0,0.0,0.0,0.0,0.0,0.0,0.0,0.0,0.0,0.0,0.0,0.0,0.0,0.0,0.0,0.0,0.0,0.0,0.0,0.0,0.0,0.0,0.0,0.0,0.0,0.0,0.0,0.0,0.0,0.0,0.0,0.0,0.0,0.0,0.0,0.0,0.0,0.0,0.0,0.0,0.0,0.0,0.0,0.0,0.0,0.0,0.0,0.0,0.0,0.0,0.0,0.0,0.0,0.0,0.0,0.0,0.0,0.0,0.0,0.0,0.0,0.0,0.0,0.0,0.0,0.0,0.0,0.0,0.0,0.0,0.0,0.0,0.0,0.0,0.0,0.0,0.0,0.0,0.0,0.0,0.0,0.0,0.0,0.0,0.0,0.0,1.1207,1.3631,1.4793,1.5349,1.5213,1.4528,1.3657,1.2587,0.0,0.0,0.0,0.0,0.0,0.0,0.0,0.0,0.0,0.0,0.0,0.0,0.0,0.0,0.0,0.0,0.0,0.0,0.0,0.0,0.0,0.0,0.0,0.0,0.0,0.0,0.0,0.0,0.0,0.0,0.0,0.0,0.0,0.0,0.0,0.0,0.0,0.0,0.0,0.0,0.0,0.0,0.0,0.0,0.0,0.0,0.0,0.0,0.0,0.0,0.0,0.0,0.0,0.0,0.0,0.0,0.0,0.0,0.0,0.0,0.0,0.0,0.0,0.0,0.0,0.0,0.0,0.0,0.0,0.0,0.0,0.0,0.0,0.0,0.0,0.0,0.0,0.0,0.0,0.0,0.0,0.0,0.0,0.0,0.0,0.0,0.0,0.0,0.0,0.0,0.0,0.0,0.0,0.0,0.0,0.0,0.0,0.0,0.0,0.0,0.0,0.0,0.0,1.1122,1.2459,1.4586,1.5161,1.5405,1.5409,1.4595,1.37,1.2806,1.0702,0.0,0.0,0.0,0.0,0.0,0.0,0.0,0.0,0.0,0.0,0.0,0.0,0.0,0.0,0.0,0.0,0.0,0.0,0.0,0.0,0.0,0.0,0.0,0.0,0.0,0.0,0.0,0.0,0.0,0.0,0.0,0.0,0.0,0.0,0.0,0.0,0.0,0.0,0.0,0.0,0.0,0.0,0.0,0.0,0.0,0.0,0.0,0.0,0.0,0.0,0.0,0.0,0.0,0.0,0.0,0.0,0.0,0.0,0.0,0.0,0.0,0.0,0.0,0.0,0.0,0.0,0.0,0.0,0.0,0.0,0.0,0.0,0.0,0.0,0.0,0.0,0.0,0.0,0.0,0.0,0.0,0.0,0.0,0.0,0.0,0.0,0.0,0.0,0.0,0.0,0.0,0.0,0.0,0.0,0.0,0.0,0.0,0.0,0.0,0.0,0.0,0.0,1.2979,1.3707,1.5244,1.5389,1.5379,1.5378,1.4583,1.373,1.2867,1.0535,0.0,0.0,0.0,0.0,0.0,0.0,0.0,0.0,0.0,0.0,0.0,0.0,0.0,0.0,0.0,0.0,0.0,0.0,0.0,0.0,0.0,0.0,0.0,0.0,0.0,0.0,0.0,0.0,0.0,0.0,0.0,0.0,0.0,0.0,0.0,0.0,0.0,0.0,0.0,0.0,0.0,0.0,0.0,0.0,0.0,0.0,0.0,0.0,0.0,0.0,0.0,0.0,0.0,0.0,0.0,0.0,0.0,0.0,0.0,0.0,0.0,0.0,0.0,0.0,0.0,0.0,0.0,0.0,0.0,0.0,0.0,0.0,0.0,0.0,0.0,0.0,0.0,0.0,0.0,0.0,0.0,0.0,0.0,0.0,0.0,0.0,0.0,0.0,0.0,0.0,0.0,0.0,0.0,0.0,0.0,0.0,0.0,0.0,0.0,0.0,0.0,0.0,1.3503,1.4364,1.5294,1.5337,1.5318,1.5315,1.4568,1.3728,1.2866,1.1113,0.0,0.0,0.0,0.0,0.0,0.0,0.0,0.0,0.0,0.0,0.0,0.0,0.0,0.0,0.0,0.0,0.0,0.0,0.0,0.0,0.0,0.0,0.0,0.0,0.0,0.0,0.0,0.0,0.0,0.0,0.0,0.0,0.0,0.0,0.0,0.0,0.0,0.0,0.0,0.0,0.0,0.0,0.0,0.0,0.0,0.0,0.0,0.0,0.0,0.0,0.0,0.0,0.0,0.0,0.0,0.0,0.0,0.0,0.0,0.0,0.0,0.0,0.0,0.0,0.0,0.0,0.0,0.0,0.0,0.0,0.0,0.0,0.0,0.0,0.0,0.0,0.0,0.0,0.0,0.0,0.0,0.0,0.0,0.0,0.0,0.0,0.0,0.0,0.0,0.0,0.0,0.0,0.0,0.0,0.0,0.0,0.0,0.0,0.0,0.0,0.0,0.0,1.3534,1.4423,0.0,1.537,1.5351,1.5354,1.5041,1.4233,1.2828,0.0,0.0,0.0,0.0,0.0,0.0,0.0,0.0,0.0,0.0,0.0,0.0,0.0,0.0,0.0,0.0,0.0,0.0,0.0,0.0,0.0,0.0,0.0,0.0,0.0,0.0,0.0,0.0,0.0,0.0,0.0,0.0,0.0,0.0,0.0,0.0,0.0,0.0,0.0,0.0,0.0,0.0,0.0,0.0,0.0,0.0,0.0,0.0,0.0,0.0,0.0,0.0,0.0,0.0,0.0,0.0,0.0,0.0,0.0,0.0,0.0,0.0,0.0,0.0,0.0,0.0,0.0,0.0,0.0,0.0,0.0,0.0,0.0,0.0,0.0,0.0,0.0,0.0,0.0,0.0,0.0,0.0,0.0,0.0,0.0,0.0,0.0,0.0,0.0,0.0,0.0,0.0,0.0,0.0,0.0,0.0,0.0,0.0,0.0,0.0,0.0,0.0,1.2465,1.376,1.4635,0.0,1.4998,1.4887,1.4599,1.4027,1.3296,1.2382,0.0,0.0,0.0,0.0,0.0,0.0,0.0,0.0,0.0,0.0,0.0,0.0,0.0,0.0,0.0,0.0,0.0,0.0,0.0,0.0,0.0,0.0,0.0,0.0,0.0,0.0,0.0,0.0,0.0,0.0,0.0,0.0,0.0,0.0,0.0,0.0,0.0,0.0,0.0,0.0,0.0,0.0,0.0,0.0,0.0,0.0,0.0,0.0,0.0,0.0,0.0,0.0,0.0,0.0,0.0,0.0,0.0,0.0,0.0,0.0,0.0,0.0,0.0,0.0,0.0,0.0,0.0,0.0,0.0,0.0,0.0,0.0,0.0,0.0,0.0,0.0,0.0,0.0,0.0,0.0,0.0,0.0,0.0,0.0,0.0,0.0,0.0,0.0,0.0,0.0,0.0,0.0,0.0,0.0,0.0,0.0,0.0,0.0,0.0,0.0,0.0,0.0,1.267,1.4304,1.5037,1.4178,1.4083,1.3747,1.2866,1.1201,1.0576,0.0,0.0,0.0,0.0,0.0,0.0,0.0,0.0,0.0,0.0,0.0,0.0,0.0,0.0,0.0,0.0,0.0,0.0,0.0,0.0,0.0,0.0,0.0,0.0,0.0,0.0,0.0,0.0,0.0,0.0,0.0,0.0,0.0,0.0,0.0,0.0,0.0,0.0,0.0,0.0,0.0,0.0,0.0,0.0,0.0,0.0,0.0,0.0,0.0,0.0,0.0,0.0,0.0,0.0,0.0,0.0,0.0,0.0,0.0,0.0,0.0,0.0,0.0,0.0,0.0,0.0,0.0,0.0,0.0,0.0,0.0,0.0,0.0,0.0,0.0,0.0,0.0,0.0,0.0,0.0,0.0,0.0,0.0,0.0,0.0,0.0,0.0,0.0,0.0,0.0,0.0,0.0,0.0,0.0,0.0,0.0,0.0,0.0,0.0,0.0,0.0,0.0,0.0,1.1768,1.2867,1.3465,1.321,1.3189,1.3089,1.2826,1.1776,1.1228,1.1486,0.0,0.0,0.0,0.0,0.0,0.0,0.0,0.0,0.0,0.0,0.0,0.0,0.0,0.0,0.0,0.0,0.0,0.0,0.0,0.0,0.0,0.0,0.0,0.0,0.0,0.0,0.0,0.0,0.0,0.0,0.0,0.0,0.0,0.0,0.0,0.0,0.0,0.0,0.0,0.0,0.0,0.0,0.0,0.0,0.0,0.0,0.0,0.0,0.0,0.0,0.0,0.0,0.0,0.0,0.0,0.0,0.0,0.0,0.0,0.0,0.0,0.0,0.0,0.0,0.0,0.0,0.0,0.0,0.0,0.0,0.0,0.0,0.0,0.0,0.0,0.0,0.0,0.0,0.0,0.0,0.0,0.0,0.0,0.0,0.0,0.0,0.0,0.0,0.0,0.0,0.0,0.0,0.0,0.0,0.0,0.0,0.0,0.0,0.0,0.0,0.0,0.0,1.1427,1.2259,1.2661,1.2318,1.2318,1.2183,1.1831,1.0996,1.0486,1.045,0.0,0.0,0.0,0.0,0.0,0.0,0.0,0.0,0.0,0.0,0.0,0.0,0.0,0.0,0.0,0.0,0.0,0.0,0.0,0.0,0.0,0.0,0.0,0.0,0.0,0.0,0.0,0.0,0.0,0.0,0.0,0.0,0.0,0.0,0.0,0.0,0.0,0.0,0.0,0.0,0.0,0.0,0.0,0.0,0.0,0.0,0.0,0.0,0.0,0.0,0.0,0.0,0.0,0.0,0.0,0.0,0.0,0.0,0.0,0.0,0.0,0.0,0.0,0.0,0.0,0.0,0.0,0.0,0.0,0.0,0.0,0.0,0.0,0.0,0.0,0.0,0.0,0.0,0.0,0.0,0.0,0.0,0.0,0.0,0.0,0.0,0.0,0.0,0.0,0.0,0.0,0.0,0.0,0.0,0.0,0.0,0.0,0.0,0.0,0.0,0.0,0.0,1.1387,1.2077,1.2279,1.1465,1.1449,1.116,1.0364,0.9509,0.8981,0.8909,0.0,0.0,0.0,0.0,0.0,0.0,0.0,0.0,0.0,0.0,0.0,0.0,0.0,0.0,0.0,0.0,0.0,0.0,0.0,0.0,0.0,0.0,0.0,0.0,0.0,0.0,0.0,0.0,0.0,0.0,0.0,0.0,0.0,0.0,0.0,0.0,0.0,0.0,0.0,0.0,0.0,0.0,0.0,0.0,0.0,0.0,0.0,0.0,0.0,0.0,0.0,0.0,0.0,0.0,0.0,0.0,0.0,0.0,0.0,0.0,0.8655,0.0,0.0,0.0,0.0,0.0,0.0,0.0,0.0,0.0,0.0,0.0,0.0,0.0,0.0,0.0,0.0,0.0,0.0,0.0,0.0,0.0,0.0,0.0,0.0,0.0,0.0,0.0,0.0,0.0,0.0,0.0,0.0,0.0,0.0,0.0,0.0,0.0,0.0,0.0,0.0,0.0,1.0552,1.0714,1.0756,1.0581,1.0562,1.0504,1.0329,0.951,0.9003,0.898,0.8329,0.0,0.0,0.0,0.0,0.0,0.0,0.0,0.0,0.0,0.0,0.0,0.0,0.0,0.0,0.0,0.0,0.0,0.0,0.0,0.0,0.0,0.0,0.0,0.0,0.0,0.0,0.0,0.0,0.0,0.0,0.0,0.0,0.0,0.0,0.0,0.0,0.0,0.0,0.0,0.0,0.0,0.0,0.0,0.0,0.0,0.0,0.0,0.0,0.0,0.0,0.0,0.0,0.0,0.0,0.0,0.0,0.0,0.0,0.0,0.0,1.0037,0.0,0.0,0.0,0.0,0.0,0.0,0.0,0.0,0.0,0.0,0.0,0.0,0.0,0.0,0.0,0.0,0.0,0.0,0.0,0.0,0.0,0.0,0.0,0.0,0.0,0.0,0.0,0.0,0.0,0.0,0.0,0.0,0.0,0.0,0.0,0.0,0.0,0.0,0.0,0.0,1.0306,1.0661,1.076,1.035,1.0663,1.0761,1.0331,0.9882,0.9453,0.9023,0.857,0.0,0.0,0.0,0.0,0.0,0.0,0.0,0.0,0.0,0.0,0.0,0.0,0.0,0.0,0.0,0.0,0.0,0.0,0.0,0.0,0.0,0.0,0.0,0.0,0.0,0.0,0.0,0.0,0.0,0.0,0.0,0.0,0.0,0.0,0.0,0.0,0.0,0.0,0.0,0.0,0.0,0.0,0.0,0.0,0.0,0.0,0.0,0.0,0.0,0.0,0.0,0.0,0.0,1.2061,1.265,1.2355,1.2343,1.2811,1.3599,1.2696,1.2154,1.1867,1.1445,0.0,0.0,0.0,0.0,0.0,0.0,0.0,0.0,0.0,0.0,0.0,0.0,0.0,0.0,0.0,0.0,0.0,0.0,0.0,0.0,0.0,0.0,0.0,0.0,1.0607,0.9843,1.0516,0.0,0.0,0.0,0.0,0.0,0.0,0.0,0.0,0.0,0.0,0.0,1.0504,1.1149,1.1365,1.0819,1.1385,1.1464,1.0605,1.0527,1.0098,0.9062,0.9003,0.8278,0.0,0.0,0.0,0.0,0.0,0.0,0.0,0.0,0.0,0.0,0.0,0.0,0.0,0.0,0.0,0.0,0.0,0.0,0.0,0.0,0.0,0.0,0.0,0.0,0.0,0.0,0.0,0.0,0.0,0.0,0.0,0.0,0.5794,0.6378,0.0,0.0,0.0,0.0,0.0,0.0,0.0,0.0,0.0,0.0,0.0,0.0,0.0,0.9357,1.0313,1.1658,1.2189,1.1958,1.389,1.4585,1.4178,1.4907,1.5316,1.5457,1.5488,0.0,1.3424,1.2634,0.0,0.0,0.0,0.0,0.0,0.0,0.0,0.0,0.0,0.0,0.0,0.0,0.0,0.0,0.0,0.0,0.0,0.0,0.0,0.0,0.0,0.0,1.2179,1.1633,1.1922,1.2327,0.0,1.1326,1.0305,1.0308,1.0291,0.0,0.0,0.0,0.0,0.0,0.0,0.0,1.1327,1.148,1.1772,1.248,1.2614,1.23,1.1504,1.1426,1.0722,0.9101,0.9003,0.8554,0.7576,0.7538,0.0,0.0,0.0,0.0,0.0,0.0,0.0,0.0,0.0,0.0,0.0,0.0,0.0,0.0,0.0,0.0,0.0,0.0,0.0,0.0,0.0,0.0,0.0,0.0,0.0,0.0,0.0,0.0,0.0,0.5827,0.6509,0.7152,0.6864,0.6896,0.0,0.0,0.0,0.0,0.0,0.0,0.0,0.0,0.0,0.9654,1.0613,1.1371,1.1884,1.2813,1.328,1.3346,1.4338,1.4702,1.4517,1.5164,1.5498,1.5588,1.5839,1.561,1.5032,1.4187,1.3584,1.3144,0.0,0.0,0.0,0.0,1.2569,1.2962,1.2364,1.2484,1.2799,1.2102,0.0,0.0,0.0,0.0,0.0,0.0,0.0,0.0,0.0,0.0,1.2832,1.2948,1.2887,1.2922,1.3411,1.2591,1.1751,0.0,1.1736,1.1582,1.1074,0.0,0.0,0.0,0.0,1.1328,1.2167,1.2672,1.2926,1.2851,1.3259,1.3201,1.2402,1.1874,1.1268,1.0506,0.9548,0.8825,0.8453,0.7966,0.7517,0.0,0.0,0.0,0.0,0.0,0.0,0.0,0.0,0.0,0.0,0.0,0.0,0.0,0.0,0.0,0.0,0.0,0.0,0.0,0.0,0.0,0.0,0.0,0.0,0.0,0.0,0.0,0.0,0.6329,0.6998,0.772,0.7568,0.7641,0.0,0.0,0.0,0.0,0.0,0.0,1.0029,1.0852,1.1256,1.1109,1.218,1.3017,1.354,1.4045,1.4634,1.5325,1.5487,1.5583,1.5654,1.5834,1.6006,1.6178,1.6208,1.636,1.6542,1.5652,1.5141,1.4869,1.434,1.3913,1.3596,1.3799,1.4175,1.4466,1.3845,1.3892,1.4164,1.3655,1.3507,1.3491,1.3277,0.0,0.0,0.0,0.0,1.4561,1.4209,1.4092,1.4278,1.4914,1.4587,1.4257,1.4668,1.4472,1.3922,0.0,1.2867,1.2675,1.1973,0.0,0.0,0.0,0.0,1.2207,1.3025,1.3707,1.3942,1.3515,1.4041,1.4101,1.3279,1.2419,1.1834,1.1619,1.0173,0.9332,0.9332,0.8493,0.7926,0.7711,0.0,0.0,0.0,0.0,0.0,0.0,0.0,0.0,0.0,0.0,0.0,0.0,0.0,0.0,0.0,0.0,0.0,0.0,0.0,0.0,0.0,0.0,0.0,0.0,0.0,0.0,0.0,0.0,0.0,0.7711,0.8725,0.0,0.0,0.0,0.0,1.0192,1.0413,1.0635,1.0837,1.1671,1.2087,1.1932,1.2563,1.3741,1.5546,1.5591,1.6542,1.8384,1.8399,1.853,1.8756,1.8135,1.8,1.8211,1.7578,1.7575,1.7917,1.6791,1.5806,1.5027,1.5235,1.4809,1.4096,1.4301,1.4855,1.5454,1.4982,1.5329,1.5997,1.6143,1.6256,1.6159,1.5398,1.5097,0.0,0.0,1.5786,1.6571,1.7412,1.7638,1.7658,1.7698,1.7721,1.7513,1.6737,1.7187,1.6777,0.0,1.2905,1.2887,1.2846,0.0,1.2695,1.2734,1.2731,1.3058,1.3917,1.4069,1.4404,1.5195,1.5311,1.498,1.4119,1.3298,1.2479,1.1641,1.0739,1.0229,1.0232,0.9391,0.8548,0.7725,0.7649,0.0,0.0,0.0,0.0,0.0,0.0,0.0,0.0,0.0,0.0,0.0,0.0,0.0,0.0,0.0,0.0,0.0,0.0,0.0,0.0,0.0,0.0,0.0,0.0,0.0,0.0,0.0,0.0,0.9501,0.9661,0.0,1.0336,1.0144,1.0206,1.0771,1.0862,1.1233,1.2024,1.3019,1.373,1.4111,1.4718,1.556,1.6714,1.673,1.7268,1.8331,1.8331,1.8392,1.8483,1.8425,1.8555,1.8828,1.8543,1.8812,1.9366,1.8349,1.7369,1.6501,1.6679,1.6304,1.5677,1.5869,1.6218,1.6534,1.6368,1.6254,1.6185,1.6341,1.6804,1.7327,1.7606,1.7688,1.7672,1.7738,1.7976,1.8191,1.7952,1.7901,1.7901,1.7901,1.7912,1.7866,1.7582,1.7785,1.7633,1.6425,1.5273,1.4333,1.3769,1.3183,1.2987,1.3545,1.3643,1.3956,1.4829,1.4941,1.5059,1.536,1.5399,1.5266,1.496,1.3652,1.2695,1.2383,1.1073,1.0309,1.0309,0.9995,0.9172,0.7724,0.7695,0.7121,0.0,0.0,0.0,0.0,0.0,0.0,0.0,0.0,0.0,0.0,0.0,0.0,0.0,0.0,0.0,0.0,0.0,0.0,0.0,0.0,0.0,0.0,0.0,0.0,0.0,0.0,0.942,1.0167,1.0412,1.0622,1.0892,1.0837,1.1026,1.1604,1.1839,1.2393,1.3319,1.423,1.4937,1.5397,1.591,1.6574,1.7438,1.7438,1.7829,1.862,1.8704,1.8738,1.8738,1.8811,1.9024,1.9362,1.9179,1.9487,2.0081,1.9789,1.9144,1.829,1.8018,1.7638,1.7222,1.7152,1.7223,1.735,1.7479,1.7444,1.7414,1.7564,1.7807,1.8168,1.8791,1.8824,1.8686,1.9018,1.9124,1.9109,1.8835,1.878,1.878,1.878,1.8778,1.8716,1.8456,1.8392,1.8325,1.8041,1.707,1.5996,1.5133,1.4509,1.4313,1.4883,1.4731,1.4848,1.573,1.5576,1.5404,1.5407,1.5392,1.5399,1.5407,1.406,1.3104,1.2811,1.1504,1.0604,1.031,1.0307,0.962,0.817,0.8123,0.78,0.721,0.0,0.0,0.0,0.0,0.0,0.0,0.0,0.0,0.0,0.0,0.0,0.0,0.0,0.0,0.0,0.0,0.0,0.0,0.0,0.0,0.0,0.0,0.0,0.75,0.8521,0.9402,0.9695,1.1034,1.1626,1.0796,1.1956,1.2758,1.2758,1.3478,1.4156,1.4702,1.5305,1.5657,1.567,1.5994,1.667,1.7723,1.7738,1.829,1.9395,1.966,1.9788,1.9791,1.946,1.9529,1.9922,1.9497,1.9566,2.0047,2.099,2.0973,2.0242,1.9175,1.875,1.8644,1.8041,1.7834,1.7871,1.8178,1.8908,1.9713,1.99,1.9412,1.8811,1.9012,1.8477,1.8008,1.8921,1.9132,1.9317,2.0226,2.0449,2.041,2.0412,2.0441,2.0223,1.9388,1.9224,1.9007,1.8233,1.806,1.7787,1.689,1.6732,1.6748,1.6736,1.6009,0.0,1.6598,1.5935,1.5403,1.5442,1.5434,1.5442,1.5446,1.4643,1.3764,1.2867,1.2031,1.121,1.0331,1.0308,0.989,0.9022,0.8911,0.8846,0.8799,0.0,0.0,0.0,0.0,0.0,0.0,0.0,0.0,0.0,0.0,0.0,0.0,0.0,0.0,0.0,0.0,0.0,0.0,0.0,0.0,0.0,0.7644,0.8644,0.9014,1.0273,1.1469,1.2323,1.28,1.3119,1.3273,1.3617,1.3874,1.392,1.4322,1.4845,1.5529,1.6231,1.6779,1.7103,1.7458,1.7871,1.8356,1.8285,1.8574,1.9176,1.9314,1.9482,1.9729,1.9675,1.9999,2.0623,2.0305,2.0677,2.146,2.1014,2.0998,2.117,2.0378,1.9755,1.9215,1.8671,1.8537,1.8631,1.8391,1.8849,1.948,1.9048,1.9535,2.0331,2.0537,2.0427,2.0322,2.0723,1.9959,1.9106,1.9408,1.9056,1.8606,1.8601,1.9093,1.9485,1.9249,1.9657,1.9993,1.9785,1.9731,1.9287,1.7879,1.765,1.7646,1.7635,1.6907,0.0,1.6661,1.5946,1.5635,1.6271,1.6333,1.634,1.6347,1.5544,1.4398,1.2887,1.2031,1.121,1.0347,1.0258,0.9825,0.8937,0.8234,0.8182,0.0,0.0,0.0,0.0,0.0,0.0,0.0,0.0,0.0,0.0,0.0,0.0,0.0,0.0,0.0,0.0,0.0,0.0,0.0,0.0,0.0,0.0,0.8602,0.9663,1.0465,1.1383,1.2396,1.3495,1.3761,1.4029,1.4383,1.4635,1.4768,1.4829,1.5155,1.5652,1.6255,1.683,1.735,1.7808,1.8135,1.8425,1.8644,1.8606,1.8721,1.8988,1.9258,1.9512,1.9708,1.9942,2.0359,2.086,2.0746,2.115,2.1818,2.1344,2.1463,0.0,0.0,0.0,0.0,0.0,1.8904,1.9091,1.8809,1.9028,1.9367,1.9031,1.9543,2.0411,2.0916,2.0897,2.0863,2.1694,2.1026,1.9995,1.9704,1.9298,1.8768,1.803,1.852,1.9161,1.9151,1.9804,2.0404,2.041,2.0394,0.0,1.9173,1.8737,1.8502,1.8509,1.7773,1.7231,1.7248,1.6471,1.6002,1.6131,1.6169,1.6154,1.6164,1.5694,0.0,0.0,0.0,1.2086,1.0855,1.0763,0.0,0.0,0.0,0.0,0.0,0.0,0.0,0.0,0.7583,0.7482,0.0,0.0,0.0,0.0,0.0,0.0,0.0,0.0,0.0,0.0,0.0,0.0,0.0,0.0,0.0,0.0,0.9773,1.07,1.1875,1.2237,1.2776,1.383,1.4301,1.4577,1.473,1.5204,1.5508,1.5496,1.6003,1.6457,1.6829,0.0,0.0,0.0,0.0,1.8708,1.8805,1.8857,1.8867,1.8865,1.9446,1.9677,1.969,2.0115,2.0492,2.0794,2.0926,2.1166,2.1508,2.1779,2.2118,2.231,2.1039,2.0027,1.9273,1.9021,1.9072,1.9251,1.9282,0.0,0.0,1.9448,1.9553,1.9799,2.0649,2.0545,2.0451,2.1953,2.1818,2.1059,2.0402,2.0163,1.9725,1.8175,1.8465,1.9098,1.9098,1.9783,2.0399,2.0393,2.0399,2.0388,2.0398,1.9798,1.9346,1.9346,1.8652,1.8142,1.8142,1.7308,1.6432,1.5765,0.0,0.0,1.5546,1.5544,1.5126,1.4159,1.4019,1.3265,1.1714,1.1621,1.1606,1.1538,1.2162,1.2107,1.1335,1.1982,1.1166,0.8988,0.8825,0.8195,0.0,0.0,0.0,0.0,0.0,0.0,0.0,0.0,0.0,0.0,0.0,0.0,0.0,0.0,0.0,0.9469,1.0316,1.1476,1.324,1.3838,1.4314,1.4859,1.5093,1.5327,1.5691,1.5923,1.6083,1.62,1.6595,1.6921,1.7115,1.7848,1.8266,1.8246,1.9081,1.9504,1.9424,1.9857,1.9823,1.9287,0.0,0.0,1.9548,1.9729,2.015,2.0711,2.0811,2.1023,2.1371,2.1751,2.2186,2.256,2.1703,2.0527,1.9342,1.9601,1.9343,1.8948,1.9204,1.9297,1.9305,1.9335,1.9849,2.0529,2.0889,2.0978,0.0,2.1482,2.055,1.9381,1.9284,1.8789,1.8227,1.7886,1.8468,1.9097,1.9097,1.9734,2.0315,2.0323,2.0327,2.0327,2.0318,2.0244,2.0182,2.0234,1.9518,1.8984,1.9042,1.7679,1.6898,1.7441,1.6872,1.6446,1.6452,1.645,1.5777,1.4192,1.3444,1.2905,1.2565,1.2434,1.2385,1.2366,1.2401,1.2345,1.2173,1.2266,1.2002,1.1417,1.0687,0.9802,0.0,0.0,0.0,0.0,0.0,0.0,0.0,0.0,0.0,0.0,0.0,0.745,0.8433,0.0,0.9497,1.0536,1.1261,1.2236,1.3782,1.4425,1.5013,1.5727,1.5867,1.5987,1.6238,1.6306,1.6371,1.6457,1.6637,1.6964,1.7475,1.8235,1.8819,1.9191,1.9984,2.0376,2.0294,2.0554,2.0444,1.9956,2.0148,2.0154,1.9962,2.0133,2.0392,2.0744,2.0744,2.0876,2.1135,2.1675,2.207,2.2347,2.2207,2.1515,2.0581,2.0371,2.0129,1.9886,1.9792,1.9741,1.9703,1.9395,1.9634,2.0163,2.0725,2.0747,2.0749,2.1694,2.1115,2.0115,1.9753,1.9344,1.8834,1.7965,1.8416,1.8937,1.8493,1.9391,2.0173,1.9735,2.0004,2.0308,2.0308,2.0327,2.0372,2.0443,2.0115,1.9727,1.9341,1.8543,1.7997,1.7997,1.7216,1.6709,1.6693,1.6308,1.5681,1.4806,1.4309,1.3853,1.3415,1.3292,1.3024,1.2566,1.2846,1.2793,1.2357,1.2725,1.2645,1.216,1.198,1.1404,0.0,0.0,0.0,0.0,0.0,0.0,0.0,0.0,0.6553,0.7391,0.778,0.8379,0.9755,1.008,1.0484,1.1541,1.2198,1.2948,1.4071,1.4698,1.5378,1.6306,1.6414,1.6436,1.6479,1.65,1.6543,1.6629,1.6717,1.7187,1.8065,1.8741,1.9461,2.0257,2.0872,2.1191,2.1191,2.1307,2.117,2.0784,2.094,2.0816,2.0493,2.0605,2.0711,2.0794,2.0744,2.0826,2.1023,2.163,2.194,2.2082,2.2535,2.2448,2.1989,2.1219,2.0928,2.0887,2.0512,2.0399,2.0291,1.9705,1.9577,1.9756,2.0391,2.0251,2.0185,2.1591,2.1622,2.1071,2.0437,2.0277,1.9942,1.8542,1.8738,1.9104,1.8565,1.9427,2.0139,1.9584,1.9931,2.0296,2.0296,2.0296,2.0318,2.0388,2.0453,2.0252,1.9636,1.9404,1.9035,1.8335,1.7477,1.6872,1.6717,1.5891,1.5401,1.5401,1.534,1.4994,1.4272,1.4192,1.3785,1.3023,1.355,1.3505,1.2786,1.343,1.3374,1.2674,1.3053,1.2771,0.7136,0.7132,0.0,0.6661,0.7123,0.7861,0.0,0.0,0.8527,0.9686,0.9945,1.0137,1.0671,1.112,1.156,1.2057,1.267,1.3459,1.4495,1.5152,1.5768,1.6402,1.65,1.6479,1.6414,1.6479,1.6659,1.7094,1.7562,1.8246,1.9174,1.981,2.0359,2.088,2.154,2.1888,2.1888,2.2417,2.241,2.1836,2.1562,2.124,2.0831,2.0568,2.0578,2.0794,2.0794,2.0974,2.1277,2.1646,2.1955,2.2206,2.2561,2.2699,2.2629,2.1994,2.133,2.0776,2.1011,2.1094,2.0989,2.0442,2.036,2.0396,1.9938,1.9863,1.9941,2.0147,2.0224,2.0246,2.0145,2.0212,2.025,2.0058,2.0077,2.0327,2.0946,2.0673,2.0481,2.11,2.0712,2.03,2.03,2.0299,2.0315,2.0395,2.0402,2.0419,2.0442,1.9781,1.9255,1.9158,1.8378,1.7539,1.6777,1.5905,1.5392,1.5392,1.5334,1.5267,1.5168,1.5091,1.4989,1.4809,1.4778,1.4681,1.4517,1.4551,1.4495,1.4336,1.4144,1.3602,0.7855,0.0,0.0,0.0,0.8019,0.8322,0.8397,0.8664,0.9129,0.9856,1.0359,1.0866,1.1526,1.1826,1.2122,0.0,1.298,1.3582,1.4653,1.5085,1.5613,1.6402,1.65,1.65,1.6457,1.6479,1.6586,1.6778,1.7579,1.8347,1.9024,2.0208,2.1104,2.1583,2.2185,2.2519,2.2519,2.2757,2.268,2.2232,2.2079,2.1929,2.1765,2.1618,2.151,2.141,2.0984,2.0893,2.1087,2.1433,2.1706,2.194,2.2415,2.2619,2.2664,2.2491,2.2248,2.1971,2.179,2.1718,2.1658,2.1234,2.0819,2.0475,2.0429,2.0114,1.9804,1.9879,2.0005,2.0093,2.0093,2.0203,2.0308,2.0308,2.0308,2.0385,2.0731,2.0904,2.0966,2.0828,2.0932,2.0905,2.0395,2.0301,2.0317,2.0381,2.0391,2.0456,2.0579,2.0289,1.9861,1.9354,1.8964,1.8398,1.7539,1.6654,1.615,1.6096,1.5606,1.5308,1.5292,1.521,1.5114,1.5045,1.4911,1.479,1.4685,1.4659,1.4616,1.455,1.4836,1.447,0.8034,0.0,0.0,0.8296,0.8643,0.8914,0.8643,0.9247,0.9944,1.023,1.0731,1.1284,1.1914,1.2125,1.2357,1.2837,1.3205,1.3779,1.4766,1.5142,1.5591,1.6402,1.65,1.65,1.65,1.65,1.6595,1.685,1.7774,1.866,1.9377,2.0764,2.1766,2.2229,2.2678,2.2888,2.2888,2.2888,2.2767,2.2539,2.2433,2.2398,2.2389,2.2397,2.2225,2.1869,2.1316,2.1001,2.0893,2.1261,2.1509,2.1708,2.2304,2.2582,2.2646,2.2803,2.2863,2.2857,2.2553,2.245,2.2416,2.2088,2.1597,2.1126,2.1194,2.0634,2.0019,2.0113,2.0066,1.9986,1.9986,2.0126,2.0233,2.0233,2.0277,2.0354,2.0581,2.0912,2.1132,2.1012,2.1313,2.1402,2.0764,2.0669,2.0551,2.0124,2.0071,2.0209,2.0543,2.0389,1.9998,1.9374,1.8867,1.8418,1.8027,1.7181,1.6754,1.6952,1.6341,1.5995,1.5986,1.5853,1.5746,1.5668,1.5527,1.5302,1.4966,1.4931,1.4787,1.4504,1.4958,1.4794,0.0,0.0,0.8294,0.7839,0.899,1.0208,1.0073,1.0809,1.1523,1.1545,1.1565,1.1584,1.1616,1.1934,1.225,1.2401,1.331,1.4177,1.4812,1.5411,1.5954,1.6445,1.65,1.65,0.0,1.65,1.685,1.77,1.8516,1.9556,2.0856,2.1715,2.2388,2.2873,2.2888,2.2888,2.2888,2.2888,2.2888,2.2881,2.2547,2.2387,2.2399,2.24,2.2225,2.19,2.1804,2.1393,2.0844,2.1308,2.1508,2.1584,2.2315,2.2632,2.2725,2.2932,2.294,2.294,2.3247,2.3356,2.3309,2.305,2.2932,2.2793,2.216,2.141,2.076,2.0767,2.0259,1.9713,1.9713,1.9918,2.0117,2.0117,2.0205,2.0508,2.1297,2.0866,2.0804,2.2403,2.2115,2.1594,2.1577,2.1617,2.1105,1.9487,1.9245,1.9561,2.0488,1.9863,1.9336,1.9297,1.7793,1.7109,1.793,1.7147,1.6956,1.7817,1.7779,1.7719,1.7716,1.7604,1.7456,1.7335,1.7205,1.6707,1.5861,1.5795,1.533,1.4504,1.438,1.4319,0.0,0.0,0.9287,0.9724,1.0493,1.1145,1.1123,1.1368,1.1606,1.1606,1.1819,1.2002,1.2002,1.2175,1.2569,1.3344,1.3593,1.4093,1.5319,1.5976,1.6365,1.6495,1.6861,0.0,0.0,0.0,0.0,1.7352,1.8682,1.9803,2.0564,2.1914,2.2752,2.2888,2.2888,2.2888,2.2888,2.2888,2.2888,2.2888,2.3271,2.3585,2.3784,2.3666,2.3272,2.2676,2.2336,2.1793,2.1151,2.1355,2.1554,2.1809,2.2223,2.2558,2.279,2.2995,2.3057,2.307,2.3206,2.3342,2.3488,2.3559,2.3298,2.2923,2.2819,2.2237,2.1606,2.1606,2.1469,2.1357,2.1357,2.1139,2.09,2.09,2.0589,2.0535,2.1375,2.1344,2.1332,2.1895,2.2257,2.2291,2.1752,2.1685,2.1321,2.0232,1.912,1.8512,1.8828,1.8613,1.8437,1.8437,1.791,1.793,1.8789,1.7996,1.7833,1.8718,1.8161,1.7794,1.7803,1.7677,1.7543,1.7397,1.6735,1.6217,1.5831,1.5231,1.4785,1.4499,1.5007,1.4866,0.0,0.8982,0.9495,1.0374,1.0955,1.1361,1.1496,1.1685,1.1692,1.1222,1.1498,1.1753,1.1628,1.1802,1.2313,1.3397,1.367,1.4227,1.5655,1.6265,1.6692,1.7067,1.7275,1.7402,0.0,0.0,0.0,1.7765,1.9325,2.0486,2.0941,2.219,2.2888,2.2888,2.2888,2.2888,2.2888,2.3008,2.3142,2.3312,2.3855,2.4281,2.4609,2.4553,2.4175,2.3576,2.2989,2.2345,2.1681,2.1516,2.1602,2.1825,2.2226,2.2504,2.2725,2.3008,2.3107,2.3132,2.3259,2.3447,2.3653,2.3888,2.373,2.3509,2.3623,2.3099,2.2431,2.2455,2.232,2.2191,2.2224,2.1984,2.1662,2.1397,2.1041,2.083,2.1085,2.1131,2.1234,2.1531,2.206,2.2283,2.1781,2.1199,2.075,2.0527,1.9075,1.8105,1.8418,1.793,1.7539,1.7539,1.7266,1.7422,1.83,1.7796,1.7924,1.9096,1.8574,1.8226,1.8236,1.8091,1.782,1.7411,1.6757,1.6219,1.5789,1.5202,1.4786,1.4512,1.5019,1.5068,0.8239,0.8511,0.8969,0.981,1.0438,1.0941,1.1297,1.1752,1.1765,1.0586,1.0735,1.0944,0.0,0.0,1.1569,1.265,1.3598,1.4605,1.5811,1.6331,1.6999,0.0,0.0,0.0,0.0,0.0,0.0,1.893,0.0,2.1495,2.1968,2.2577,2.2888,2.2888,2.2933,2.2933,2.2933,2.329,2.3659,2.4067,2.4255,2.4528,2.4855,2.5052,2.4919,2.4468,2.3739,2.3059,2.2378,2.1837,2.162,2.1679,2.2262,2.2515,2.2552,2.2957,2.3107,2.3144,2.34,2.3631,2.3837,2.4039,2.4275,2.45,2.45,2.3915,2.3275,2.3359,2.2815,2.2253,2.2399,2.2488,2.2389,2.1684,2.1567,2.1364,2.0555,2.0334,2.056,2.1387,2.1564,2.1629,2.1688,2.0419,1.9648,2.0396,1.9158,1.8398,1.9141,1.7793,1.6757,1.6699,1.5957,1.58,1.6638,1.6643,1.7301,1.8928,1.8978,1.8934,1.8934,1.8807,1.8302,1.7415,1.7227,1.6698,1.5808,1.5723,1.5307,1.4561,1.4598,1.4995,0.8875,0.9338,0.9803,1.0325,1.0861,1.1273,1.1368,1.1073,1.0812,1.0883,1.0716,1.0577,0.0,0.0,0.0,1.3112,1.362,0.0,1.6732,1.7464,0.0,0.0,0.0,1.8695,1.897,1.9707,0.0,0.0,2.1054,2.1495,2.1968,2.2577,2.2888,2.2888,2.329,2.3493,2.3493,2.4032,2.4461,2.4815,2.4875,2.5072,2.54,2.5605,2.5342,2.4698,2.4098,2.344,2.2716,2.202,2.184,2.2013,2.236,2.2579,2.2751,2.3008,2.3107,2.3119,2.3175,2.3463,2.3816,2.3909,2.4192,2.4505,2.4505,2.4373,2.4257,2.4265,2.4124,2.398,2.4065,2.3743,2.3362,2.322,2.2371,2.1545,2.1381,2.0824,2.0434,2.0666,2.1233,2.1678,2.1707,2.1885,2.1678,2.0654,2.0175,1.955,1.8477,1.7949,1.7421,1.6777,1.6503,1.6461,1.6686,1.6649,1.7033,1.8062,1.8071,1.8038,1.8021,1.7842,1.7639,1.74,1.6575,1.6041,1.5808,1.5723,1.5563,1.5343,1.5989,1.6347,0.914,0.9696,1.0285,1.0754,1.1127,1.1425,1.1504,1.0965,1.037,1.0175,1.0253,0.0,0.0,0.0,0.0,0.0,0.0,0.0,1.7085,1.7674,1.8103,0.0,1.9178,0.0,1.9997,2.083,2.1545,0.0,2.2034,2.2138,2.2476,2.2789,2.309,2.3326,2.3465,2.3672,2.3996,2.4563,2.4977,2.532,2.5416,2.5549,2.5733,2.5934,2.5811,2.535,0.0,2.3768,2.3288,2.2243,2.1911,2.2124,2.2402,2.2619,2.2829,2.3033,2.3107,2.3107,2.3107,2.3383,2.3724,2.3865,2.4116,2.4436,2.4522,2.4564,2.4607,2.465,2.4631,2.4679,2.4842,2.4594,2.4265,2.4024,2.3341,2.2657,2.2304,2.1836,2.1391,2.1043,2.1052,2.1266,2.1671,2.1827,2.1721,2.119,2.082,2.0252,1.9276,1.8475,1.781,1.7323,1.7263,1.7256,1.7238,1.7185,1.7512,1.8316,1.8313,1.8278,1.8263,1.8077,1.7771,1.7365,1.6713,1.6343,1.6281,1.6231,1.6217,1.6177,1.6646,1.6987,0.9336,0.993,1.0592,1.0939,1.1191,1.1371,1.1482,1.096,1.0165,0.9244,0.0,0.0,0.9196,0.0,1.1279,1.2683,0.0,1.4589,1.7133,1.7508,1.8041,1.9522,1.9832,2.0313,2.1315,2.1964,2.2549,2.3082,2.3015,2.3,2.3127,2.3127,2.3363,2.39,2.3638,2.3837,2.4552,2.5017,2.5397,2.568,2.586,2.5934,2.5952,2.6114,2.6202,2.6119,2.4646,2.4017,2.3933,2.2439,2.1955,2.2184,2.244,2.2646,2.2829,2.3057,2.3132,2.3132,2.3156,2.3348,2.3628,2.3827,2.4086,2.4348,2.4557,2.4615,2.4631,2.4682,2.469,2.4757,2.5019,2.5084,2.4974,2.4473,2.4266,2.3983,2.3232,2.2981,2.2694,2.2011,2.1166,2.083,2.166,2.1176,2.0916,2.1619,2.1187,2.0738,2.0601,1.9272,1.8295,1.818,1.8157,1.8086,1.7919,1.7893,1.8179,1.8872,1.8864,1.882,1.8816,1.8648,1.8141,1.731,1.7184,1.7034,1.6908,1.7012,1.7053,1.705,1.7085,1.7442,1.0058,1.061,1.0898,1.0221,1.0527,1.0918,1.0606,1.0022,0.0,0.0,0.0,0.8963,0.8936,0.9688,0.0,1.2268,0.0,0.0,0.0,0.0,1.8342,0.0,0.0,0.0,0.0,0.0,0.0,0.0,2.3231,2.3231,2.3253,2.3275,2.3501,2.4057,2.4323,2.4732,2.5297,2.5772,2.6041,2.6096,2.6132,2.615,2.615,2.6168,2.6202,2.6119,2.4646,0.0,2.4139,2.266,2.22,2.2457,2.2659,2.2777,2.2842,2.3156,2.3265,2.3277,2.3383,2.3499,2.3634,2.3824,2.4126,2.4417,2.4615,2.4679,2.4684,2.4692,2.4692,2.4746,2.4966,2.5069,2.5097,2.511,2.4644,2.4157,2.4002,2.3403,2.2885,2.2791,2.2073,2.1547,2.1762,2.1673,2.1405,2.0895,2.1303,2.1401,2.0698,2.0346,1.9877,1.9155,1.902,1.8698,1.796,1.7854,1.7849,1.7942,1.7925,1.7899,1.7849,1.7761,1.7577,1.731,1.7219,1.709,1.6908,1.7577,1.7859,1.7829,1.8422,1.8764,1.0458,1.1212,1.1659,1.1002,1.1136,1.1318,1.0953,0.0,0.0,0.0,0.0,0.8792,0.8395,0.0,0.0,0.0,0.0,0.0,0.0,0.0,0.0,0.0,0.0,0.0,0.0,0.0,0.0,0.0,2.3451,2.3436,2.3407,2.3668,2.3946,2.4198,2.4788,2.524,2.5503,2.5972,2.6202,2.6202,2.6202,2.6202,2.6202,2.6202,2.5987,2.5574,2.458,2.4022,2.3767,2.2776,2.2563,2.2871,2.296,2.3065,2.3193,2.3336,2.3447,2.352,2.3576,2.3718,2.3886,2.405,2.4192,2.4347,2.4613,2.4711,2.47,2.47,2.47,2.4749,2.5,2.5074,2.5141,2.5354,2.5128,2.4872,2.4883,2.4219,2.3634,2.3663,2.3008,2.244,2.2477,2.2129,2.1717,2.1339,2.1241,2.1066,2.0655,2.0596,2.0441,2.0013,1.9914,1.9683,1.9234,1.9134,1.9063,1.9001,1.8993,1.8988,1.8948,1.8759,1.861,1.8556,1.8372,1.825,1.8151,1.8529,1.8692,1.8627,1.8942,1.9101,1.1011,1.1831,1.2411,1.1789,1.1728,1.1701,1.1348,1.0323,0.0,0.0,0.0,0.0,0.0,0.0,0.0,0.0,0.0,0.0,0.0,0.0,0.0,0.0,0.0,0.0,0.0,0.0,0.0,0.0,2.3653,2.3674,2.3516,2.3925,2.4198,2.4302,2.5001,2.5408,2.5503,2.5972,2.6202,2.6202,2.6202,2.6202,2.6202,2.6202,2.5806,2.5095,2.4559,2.4019,2.346,2.2932,2.2933,2.3265,2.3265,2.3354,2.3517,2.3567,2.3642,2.3746,2.3798,2.3979,2.4164,2.431,2.4301,2.4321,2.4602,2.47,2.47,2.47,2.47,2.4764,2.5024,2.509,2.5171,2.5436,2.5491,2.5498,2.5512,2.5013,2.4583,2.4604,2.3945,2.3378,2.3379,2.2692,2.2099,2.1939,2.1315,2.0808,2.0613,2.0593,2.0592,2.0573,2.051,2.0453,2.0383,2.0314,2.0257,2.0199,2.0199,2.0192,2.0183,1.9896,1.9732,1.9701,1.9462,1.9327,1.93,1.929,1.9243,1.9176,1.9125,1.9084,1.1999,1.2584,1.2817,1.1496,1.131,1.1338,1.0958,0.0,0.0,0.0,0.8844,0.8261,0.8169,0.0,0.0,0.0,0.0,0.0,0.0,0.0,0.0,0.0,0.0,0.0,0.0,0.0,0.0,0.0,2.3994,2.4051,2.3595,2.3653,2.3867,2.4297,2.4739,2.5121,2.5503,2.5972,2.6202,2.6202,2.6202,2.6202,2.6202,2.6202,2.5841,2.5163,2.4686,2.4242,0.0,2.3333,2.3265,2.3464,2.3464,2.3494,2.3539,2.3761,2.3876,2.3917,2.4154,2.4257,2.4303,2.4444,2.4486,2.4503,2.4642,2.47,2.47,2.47,2.47,2.4764,2.5024,2.509,2.5176,2.5433,2.5494,2.5512,2.5571,2.5527,2.5498,2.5554,2.4879,2.4277,2.4273,2.3565,2.274,2.2017,2.1822,2.149,2.0691,2.0609,2.0579,2.0515,2.0447,2.0381,2.0305,2.0249,2.0199,2.0205,2.0196,2.0164,2.0117,1.996,1.9821,1.9701,1.9565,1.9423,1.929,1.9243,1.9158,1.9107,1.9102,1.907,1.1598,1.2323,1.2764,1.1666,1.146,1.1336,1.0605,0.0,0.0,0.916,0.8632,0.8201,0.8201,0.8708,0.0,0.0,0.0,0.0,0.0,0.0,0.0,0.0,0.0,0.0,0.0,0.0,0.0,2.3994,2.4198,2.4328,2.4379,2.4379,2.4567,2.502,2.5179,2.5462,2.5919,2.6114,2.6202,2.6202,2.6202,2.597,2.554,2.5576,2.5063,2.413,2.4123,2.3921,0.0,2.3519,2.3565,2.3675,2.3675,2.3757,2.3881,2.3976,2.4115,2.4275,2.4383,2.4461,2.4555,2.4594,2.461,2.4626,2.4692,2.47,2.47,2.47,2.4757,2.4867,2.5047,2.5211,2.5378,2.5536,2.5553,2.5576,2.5583,2.5626,2.5673,2.5682,2.5429,2.5171,2.5184,2.4459,2.3774,2.3441,2.2503,2.1702,2.1371,2.0858,2.0506,2.0443,2.0422,2.0369,2.0314,2.0246,2.0195,2.0196,2.0159,2.0126,2.0093,1.992,1.9797,1.9707,1.9541,1.9361,1.9243,1.9166,1.9142,1.9107,1.9094,1.9078,1.1435,1.2115,1.2544,1.1788,1.1498,1.1178,0.0,0.0,0.9247,0.8958,0.8523,0.823,0.8301,0.8904,0.972,0.0,0.0,0.0,0.0,0.0,0.0,0.0,0.0,0.0,0.0,0.0,0.0,2.4431,2.4594,2.4779,2.5059,2.5211,2.5365,2.5503,2.5503,2.5721,2.6202,2.6221,2.6222,2.6222,2.6274,2.5893,2.5162,2.528,2.4652,2.3482,2.3877,2.3794,0.0,2.3631,2.375,2.3806,2.3876,2.3986,2.4113,2.4182,2.433,2.4512,2.4545,2.461,2.47,2.47,2.4715,2.4738,2.4738,2.4738,2.4727,2.4746,2.4889,2.5041,2.513,2.5346,2.5544,2.5596,2.5609,2.5595,2.5595,2.5654,2.5703,2.5702,2.5696,2.5707,2.5707,2.5198,2.4709,2.4434,2.3359,2.2479,2.2223,2.1623,2.1119,2.0787,2.0733,2.0598,2.0296,2.022,2.0192,2.0164,2.0122,2.0108,2.0098,1.9896,1.9738,1.9676,1.9442,1.9272,1.9176,1.9115,1.9099,1.9101,1.9339,1.9514,1.1896,1.219,1.2193,1.1716,1.125,1.0778,0.0,0.9532,0.8906,0.8896,0.8523,0.8287,0.8544,0.9144,0.9968,0.0,0.0,0.0,0.0,0.0,0.0,0.0,0.0,0.0,0.0,0.0,2.4451,2.4863,2.5256,0.0,2.5503,2.5919,2.5972,2.5521,2.5503,2.5721,2.6202,2.6259,2.6295,2.6295,2.6434,2.6066,2.5313,2.5573,2.4925,2.3635,2.4155,2.4046,0.0,2.3728,2.3795,2.3816,2.4016,2.4094,2.4133,2.4392,2.4503,2.452,2.4642,2.47,2.47,2.47,2.4734,2.4794,2.4794,2.4794,2.4816,2.4877,2.5083,2.5309,2.5309,2.5449,2.5599,2.5599,2.5598,2.5591,2.5604,2.5641,2.5703,2.5691,2.5707,2.5707,2.5707,2.5687,2.5393,2.4527,2.439,2.4054,2.3208,2.3028,2.2624,2.1681,2.1532,2.1133,2.0277,2.0196,2.0164,2.0112,2.0093,2.0098,2.0107,1.9841,1.9676,1.9593,1.9346,1.9176,1.9107,1.9107,1.9101,1.9113,1.992,2.0494,1.0719,1.1028,1.1138,1.0363,1.0283,1.0264,0.9717,0.9445,0.9245,0.9018,0.8741,0.8631,0.896,0.9374,1.0043,1.1188,0.0,0.0,0.0,0.0,0.0,0.0,0.0,0.0,0.0,0.0,2.4594,2.5256,2.5519,2.5758,2.6031,2.6259,2.6258,2.599,2.6012,2.6119,2.6259,2.6381,2.6166,2.5614,2.5864,2.5301,2.4079,2.4396,2.412,2.3415,2.3673,2.3757,0.0,2.3774,2.3886,2.4006,2.4074,2.421,2.4383,2.4469,2.4553,2.4634,2.4692,2.47,2.4715,2.4742,2.4779,2.4823,2.491,2.4942,2.4968,2.5135,2.5269,2.5386,2.5483,2.5548,2.5604,2.5605,2.5591,2.5605,2.5661,2.5683,2.5694,2.5708,2.5707,2.5706,2.5703,2.5702,2.5602,2.5322,2.4748,2.4233,2.3956,2.3309,2.2722,2.2381,2.2321,2.173,2.0269,2.0126,2.0122,2.0093,2.0093,2.0049,1.9977,1.9793,1.9605,1.9394,1.93,1.9484,1.9928,1.9928,2.0209,2.0735,2.0904,2.112,0.0,1.0123,1.0231,0.9654,0.9726,0.9832,0.9395,0.9392,0.9397,0.9133,0.9003,0.9017,0.9326,0.975,1.0385,1.1427,0.0,0.0,0.0,0.0,0.0,0.0,0.0,0.0,0.0,2.4598,2.5114,2.5813,2.5957,2.61,2.6365,2.6451,2.6433,2.631,2.6346,2.6382,2.6382,2.6606,2.632,2.5527,2.5857,2.5215,2.3764,2.4086,2.3919,2.3375,2.3547,2.3678,0.0,2.3886,2.3986,2.4113,2.421,2.4347,2.4512,2.4586,2.4665,2.4734,2.4764,2.4779,2.4794,2.4854,2.4929,2.5013,2.5152,2.5165,2.518,2.5333,2.5414,2.549,2.5577,2.5592,2.559,2.5593,2.5602,2.5613,2.5681,2.5701,2.5707,2.5707,2.5705,2.5703,2.5699,2.5697,2.5689,2.5627,2.5124,2.4733,2.4723,2.4153,2.3606,2.3231,2.317,2.2585,2.1149,2.1029,2.1043,2.1033,2.0966,2.089,2.0777,2.0561,2.0378,2.0205,2.0154,2.0352,2.0753,2.0753,2.1151,2.1909,2.1732,2.183,0.0,0.9454,0.9458,0.945,0.947,0.9465,0.9358,0.9376,0.0,0.9282,0.9313,0.9432,0.9795,1.0287,1.0966,1.1918,0.0,0.0,0.0,0.0,0.0,0.0,0.0,0.0,0.0,2.5128,2.5937,2.6468,2.6502,2.6502,2.6502,2.6502,2.6503,2.6453,2.6453,2.6436,2.6453,2.6839,2.6605,2.5783,2.6182,2.5595,2.4155,2.4419,2.4177,0.0,2.371,0.0,0.0,2.4016,2.4113,2.4143,2.44,2.4512,2.4545,2.4734,2.4801,2.4816,2.4874,2.4908,2.491,2.4993,2.5146,2.5341,2.5468,2.5453,2.5414,2.5491,2.5544,2.5601,2.5601,2.5601,2.5607,2.5607,2.5593,2.5611,2.5696,2.5702,2.5706,2.5706,2.5702,2.5698,2.5698,2.5693,2.5653,2.5512,2.5499,2.5466,2.5395,2.5321,2.4971,2.4173,2.4022,2.3665,2.2844,2.2677,2.2609,2.2601,2.2425,2.2267,2.2199,2.1872,2.1711,2.1678,2.1616,2.1586,2.1586,2.1631,2.2018,2.2679,2.241,2.257,0.8807,0.0,0.902,0.8911,0.9154,0.9457,0.0,0.9699,0.0,0.0,0.0,0.0,0.0,0.0,0.0,0.0,0.0,0.0,0.0,0.0,0.0,0.0,0.0,0.0,2.5319,2.5605,2.5975,2.6468,2.6554,2.6589,2.6589,2.6623,2.6387,2.5831,2.5814,2.5895,2.6056,2.6196,2.569,2.4596,2.4887,2.4573,2.3679,2.3889,2.3891,2.3732,2.3774,0.0,2.4026,2.4084,2.4219,2.4409,2.4478,2.4594,2.4734,2.4779,2.4837,2.4874,2.4895,2.4936,2.4999,2.5176,2.5327,2.5464,2.5491,2.5491,2.5495,2.5567,2.5592,2.5601,2.5601,2.5601,2.5607,2.5608,2.5608,2.5621,2.5696,2.5702,2.5694,2.5694,2.5693,2.571,2.5701,2.5697,2.564,2.5518,2.5463,2.5395,2.5336,2.5257,2.5154,2.4944,2.4897,2.4792,2.4528,2.3351,2.2607,2.2596,2.2461,2.2286,2.2062,2.1917,2.1765,2.1561,2.2121,2.2427,2.2427,2.2976,2.3353,2.3505,2.3298,2.3053,0.8548,0.8916,0.9283,0.932,0.9528,0.9782,1.0006,0.0,0.0,0.0,0.0,0.0,0.0,0.0,0.0,0.0,0.0,0.0,0.0,0.0,0.0,0.0,0.0,0.0,0.0,2.6048,2.6295,2.6572,2.6623,2.6657,2.6657,2.6353,2.608,2.58,2.5458,2.5331,2.5453,2.5631,2.5282,2.4383,2.4665,2.4381,2.3642,2.3742,2.3806,2.3806,0.0,0.0,2.4103,2.421,2.4365,2.4569,2.4647,2.4753,2.4858,2.4912,2.4986,2.505,2.5075,2.5149,2.5303,2.5821,2.5786,2.5615,2.6026,2.5871,2.5544,2.5592,2.5601,2.5604,2.5599,2.5598,2.5609,2.5644,2.566,2.5664,2.5689,2.5696,2.571,2.571,2.5705,2.5701,2.5694,2.5654,2.5578,2.5467,2.5406,2.5336,2.5252,2.5225,2.5185,2.5162,2.5143,2.5144,2.5107,2.4238,2.3693,2.3693,2.3484,2.3281,2.3103,2.2884,2.2693,2.2564,2.298,2.3206,2.3221,2.3616,2.3772,2.3707,2.3476,2.3182,0.8599,0.9228,0.9895,1.0021,1.0116,1.0249,0.0,0.0,0.0,0.0,0.0,0.0,0.0,0.0,0.0,0.0,0.0,0.0,0.0,0.0,0.0,0.0,0.0,0.0,2.6097,2.64,2.664,2.6691,2.6691,2.6691,2.6691,2.6116,2.5839,2.6014,2.5407,2.5017,2.4861,2.5127,2.5009,2.4474,2.4717,2.4465,2.3806,2.3806,2.3816,2.3816,0.0,0.0,2.419,2.4373,2.4524,2.4651,2.4821,2.4908,2.4947,2.5076,2.5168,2.5234,2.5302,2.5406,2.5654,2.6521,2.6343,2.5951,2.6825,2.6572,2.599,2.5995,2.5901,2.5771,2.5627,2.5697,2.5783,2.5691,2.5683,2.5698,2.569,2.5698,2.5705,2.5705,2.5697,2.5689,2.5664,2.5581,2.5476,2.5406,2.534,2.5268,2.5197,2.518,2.5168,2.5101,2.5101,2.5107,2.5095,2.5031,2.498,2.4953,2.4681,2.4459,2.4364,2.3991,2.3806,2.3806,2.3795,2.381,2.3804,2.3783,2.3696,2.3539,2.3295,2.3072,0.9228,1.0096,1.0495,0.9984,1.0221,1.0555,0.0,0.0,0.0,0.0,0.0,0.0,0.0,0.0,0.0,0.0,0.0,0.0,0.0,0.0,0.0,0.0,0.0,2.6219,2.6486,2.6607,2.6674,2.6691,2.6691,2.6691,2.6691,2.659,2.6381,2.6092,2.5969,2.5505,2.4656,2.4692,2.445,2.3923,2.3966,2.3922,2.3806,2.3865,2.3886,2.3907,0.0,2.4321,2.4452,2.4588,2.4734,2.4861,2.4895,2.498,2.5076,2.5155,2.5228,2.5297,2.5432,2.548,2.5642,2.6586,2.6802,2.6844,2.7676,2.7812,2.7722,2.7774,2.7276,2.6525,2.5796,2.6149,2.6525,2.5781,2.5619,2.5631,2.5699,2.5707,2.5705,2.5705,2.5703,2.5669,2.5549,2.551,2.546,2.534,2.5317,2.5257,2.5137,2.5119,2.5107,2.5089,2.5108,2.5076,2.5025,2.5018,2.4926,2.4761,2.4631,2.4451,2.4153,2.3909,2.3806,2.3806,2.38,2.3797,2.3804,2.3685,2.3499,2.3253,2.3163,2.2829,0.9075,1.0059,1.0986,1.086,1.1504,1.217,0.0,0.0,0.0,0.0,0.0,0.0,0.0,0.0,0.0,0.0,0.0,0.0,0.0,0.0,0.0,0.0,0.0,2.6262,2.6607,2.6691,2.6691,2.6691,2.6874,2.6972,2.6972,2.6754,2.6633,2.6585,2.6159,2.5795,2.5463,2.5458,2.4904,2.3806,2.3806,2.4052,2.449,2.454,2.4863,2.5411,0.0,2.5726,2.5968,2.6061,2.6211,2.6324,2.5882,2.5774,2.5813,2.5491,2.5686,2.6127,2.6218,2.6537,2.7041,2.7964,2.7932,2.7702,2.8592,2.852,2.8168,2.8199,2.7911,2.75,2.7102,2.7299,2.75,2.7096,2.6653,2.6308,2.6346,2.6011,2.5699,2.5699,2.5639,2.5581,2.5559,2.546,2.5363,2.5302,2.5243,2.5164,2.5114,2.5101,2.5089,2.5057,2.5057,2.5025,2.5011,2.5004,2.4863,2.4551,2.4417,2.4201,2.3947,2.3837,2.3803,2.38,2.3797,2.3761,2.3696,2.3629,2.3505,2.3295,2.3028,2.2924,0.9165,1.0081,1.1256,0.0,0.0,0.0,0.0,0.0,0.0,0.0,0.0,0.0,0.0,0.0,0.0,0.0,0.0,0.0,0.0,0.0,2.5544,2.6104,2.621,2.635,2.6674,2.6775,2.6825,2.6825,2.7133,2.7322,2.7322,2.7023,2.6978,2.7246,2.6652,2.6379,2.6482,2.6505,2.5701,2.4106,2.4298,2.466,2.5202,2.5413,2.5964,2.6804,2.6832,2.7014,2.7247,2.735,2.7476,2.754,2.6733,2.6483,2.6506,2.5982,2.6362,2.7101,2.7174,2.7614,2.8275,2.9139,2.8964,2.8601,2.9519,2.934,2.8818,2.8802,2.8809,2.8716,2.8317,2.8357,2.8456,2.8247,2.7683,2.7197,2.7197,2.6712,2.6283,2.6283,2.6038,2.589,2.611,2.5844,2.5669,2.5813,2.5756,2.5615,2.5418,2.5545,2.5494,2.5043,2.517,2.5187,2.4955,2.4882,2.4704,2.4346,2.4136,2.3969,2.3806,2.3813,2.38,2.3804,2.3772,2.3707,2.3596,2.3573,2.3583,2.3608,2.3145,2.3278,1.0157,1.0641,1.1156,1.2849,0.0,0.0,0.0,0.0,0.0,0.0,0.0,0.0,0.0,0.0,0.0,0.0,0.0,0.0,0.0,0.0,2.5513,2.6539,2.6657,2.6674,2.6691,2.6989,2.7165,2.7165,2.7459,2.7654,2.7654,2.7634,2.7741,2.7999,2.7959,2.7735,2.7314,2.7368,2.6604,2.5012,2.5761,2.5894,2.5495,2.6309,2.6823,2.7085,2.7274,2.7365,2.7395,2.7597,2.7688,2.7606,2.6811,2.6603,2.6769,2.6722,2.7263,2.8026,2.8085,2.8137,2.8335,2.9216,2.9457,2.9554,3.0448,3.0667,3.0617,3.0611,3.0605,3.0247,2.8623,2.8809,2.9206,2.8398,2.8154,2.8113,2.8113,2.8054,2.8015,2.8015,2.7364,2.701,2.7628,2.7059,2.6731,2.7331,2.743,2.7124,2.6317,2.688,2.6733,2.5162,2.5674,2.5743,2.4794,2.4551,2.4346,2.4145,2.3921,2.3816,2.3806,2.38,2.3804,2.3804,2.3674,2.3607,2.3596,2.3539,2.3762,2.4233,2.3817,2.3922,1.0073,1.0869,1.1933,1.316,0.0,0.0,0.0,0.0,0.0,0.0,0.0,0.0,0.0,0.0,0.0,0.0,0.0,0.0,2.4238,2.5345,2.6253,2.6657,2.6691,2.6775,2.6989,2.7133,2.7291,2.7507,2.7783,2.7954,2.7954,2.8138,2.8331,2.8469,2.8469,2.8406,2.827,2.8416,2.7959,2.6898,2.6665,2.6779,2.7242,2.7587,2.8145,2.8841,2.8914,2.9027,2.9148,2.9209,2.927,2.9193,2.7937,2.7486,2.7493,2.7026,2.7753,2.8976,2.8992,2.935,2.9876,3.0197,3.0317,3.0362,3.0707,3.0798,3.0791,3.08,3.079,3.0644,2.9998,3.006,3.0232,2.9907,2.9399,2.9009,2.9009,2.858,2.8206,2.8209,2.7838,2.7602,2.7853,2.7528,2.7313,2.7554,2.7556,2.7412,2.7098,2.73,2.7262,2.6622,2.668,2.6615,2.623,2.543,2.4899,2.4791,2.4159,2.3789,2.3789,2.3765,2.3729,2.3674,2.3636,2.3573,2.3539,2.3998,2.4337,2.4486,2.4462,2.4756,1.0414,1.1159,1.2226,0.0,0.0,0.0,0.0,0.0,0.0,0.0,0.0,0.0,0.0,0.0,0.0,0.0,0.0,2.4491,2.4491,2.5777,2.6691,2.6691,2.6791,2.6956,2.7181,2.7367,2.7577,2.7815,2.8093,2.8255,2.8255,2.8505,2.8644,2.8694,2.8706,2.8779,2.888,2.9056,2.8936,2.8558,2.7988,2.796,2.8438,2.8693,2.923,2.9996,2.9996,3.0064,3.0192,3.0226,2.9966,2.9434,2.8137,2.7795,2.8009,2.7507,2.8401,2.9902,2.9912,3.031,3.0795,3.0802,3.0804,3.0792,3.0808,3.0796,3.08,3.0805,3.0806,3.0799,3.0799,3.0802,3.0801,3.0801,3.0334,2.9905,2.9905,2.943,2.8987,2.8954,2.8605,2.8386,2.8588,2.8268,2.8072,2.8294,2.83,2.8173,2.7904,2.8093,2.8169,2.7904,2.7409,2.7069,2.698,2.6158,2.5581,2.5452,2.4838,2.4352,2.414,2.43,2.4369,2.433,2.4307,2.4265,2.4236,2.4771,2.5102,2.5211,2.5215,2.5499,1.1367,1.156,0.0,0.0,0.0,0.0,0.0,0.0,0.0,0.0,0.0,0.0,0.0,0.0,0.0,0.0,2.3315,2.4491,2.4491,2.576,2.6691,2.6691,2.6988,2.718,2.7195,2.7733,2.8084,2.808,2.8391,2.8582,2.8582,2.8639,2.8676,2.8694,2.8755,2.8892,2.9097,2.9158,2.9388,2.9801,2.988,2.9496,2.8749,2.9534,3.0011,3.0211,3.0211,3.0211,3.0218,3.0267,2.9401,2.793,2.7136,2.7388,2.8201,2.8203,2.9301,3.0784,3.079,3.0799,3.0801,3.0796,3.08,3.0804,3.0797,3.0801,3.0795,3.0799,3.079,3.0801,3.0801,3.0801,3.0801,3.0801,3.0801,3.0799,3.0799,3.0739,3.0685,3.061,2.9844,2.9423,3.0075,2.9485,2.9127,2.9799,2.9897,2.9612,2.8817,2.9404,2.9593,2.879,2.7759,2.6998,2.6746,2.6531,2.6288,2.6033,2.596,2.5572,2.483,2.55,2.5905,2.5905,2.5825,2.58,2.58,2.5818,2.6056,2.6482,2.6105,2.6126,1.149,1.2573,0.0,0.0,0.0,0.0,0.0,0.0,0.0,0.0,0.0,0.0,0.0,0.0,0.0,2.2118,2.303,2.3788,2.399,2.4827,2.5502,2.5695,2.5796,2.5957,2.6196,2.6384,2.6573,2.6826,2.694,2.6999,2.7052,2.7075,2.7364,2.7976,2.8017,2.8422,2.9233,2.9397,2.9598,2.9861,3.0034,2.9987,2.9766,3.0006,3.0142,3.0211,3.0211,3.0233,3.0279,3.0438,2.9887,2.8838,2.8076,2.7953,2.8201,2.8209,2.8916,2.9969,3.0594,3.0795,3.0795,3.0799,3.0809,3.0798,3.0801,3.0794,3.0798,3.0808,3.0791,3.0801,3.0801,3.0767,3.0739,3.0796,3.0767,3.0734,3.0734,3.0642,3.0552,3.0534,3.0183,2.9941,3.0109,2.9848,2.966,2.9867,2.9897,2.9821,2.9575,2.9745,2.9744,2.9305,2.8848,2.8458,2.812,2.7398,2.6922,2.6785,2.6759,2.6383,2.5607,2.5743,2.5825,2.5825,2.58,2.58,2.58,2.6371,2.6672,2.6717,2.6931,2.6895,1.2214,0.0,0.0,0.0,0.0,0.0,0.0,0.0,0.0,0.0,0.0,0.0,0.0,0.0,0.0,2.2409,2.3171,2.3774,2.3939,2.4594,2.5118,2.5285,2.5424,2.557,2.5793,2.5918,2.6093,2.6313,2.6336,2.6365,2.6399,2.6432,2.6684,2.7211,2.7302,2.7684,2.8427,2.864,2.8839,2.9023,2.9143,2.9363,2.9707,3.0032,3.0211,3.0192,3.0233,3.0286,3.0351,3.0178,2.9592,2.8793,2.8011,2.7716,2.7774,2.8111,2.8799,2.9658,3.0505,3.08,3.0801,3.0809,3.0795,3.08,3.0795,3.0803,3.0807,3.0793,3.0774,3.0767,3.0767,3.0725,3.071,3.0759,3.0725,3.0698,3.0635,3.0552,3.0482,3.0398,3.0267,3.0133,3.0049,2.9945,2.9897,2.9897,2.9897,2.988,2.9866,2.9777,2.9662,2.9475,2.9183,2.8906,2.8676,2.8036,2.7609,2.7531,2.7549,2.7316,2.6834,2.6777,2.6751,2.6751,2.6751,2.6751,2.6751,2.7193,2.7288,2.708,2.7145,2.694,0.0,0.0,0.0,0.0,0.0,0.0,0.0,0.0,0.0,0.0,0.0,0.0,0.0,0.0,0.0,2.2617,2.3502,2.4112,2.4137,2.4704,2.5156,2.5182,2.5453,2.5641,2.5642,2.5899,2.6106,2.6191,2.6191,2.6191,2.6202,2.6267,2.6329,2.6413,2.6603,2.6832,2.7127,2.7319,2.7507,2.7701,2.7701,2.8077,2.8815,2.9688,3.0122,3.0219,3.0286,3.0395,3.0446,2.9738,2.8954,2.8139,2.7399,2.7017,2.6999,2.7947,2.8791,2.9612,3.0489,3.0801,3.0806,3.0797,3.08,3.0801,3.0804,3.0791,3.0781,3.0789,3.0759,3.0697,3.0697,3.0695,3.0694,3.0682,3.0685,3.0645,3.0527,3.0477,3.0403,3.0235,3.0133,3.003,2.9913,2.9897,2.9888,2.988,2.988,2.9866,2.9763,2.9608,2.9456,2.9343,2.8952,2.8652,2.8572,2.8396,2.8259,2.8196,2.8196,2.8196,2.8196,2.8196,2.8196,2.8196,2.8196,2.8182,2.8168,2.8071,2.781,2.7465,2.6956,2.6521,0.0,0.0,0.0,0.0,0.0,0.0,0.0,0.0,0.0,0.0,0.0,0.0,0.0,0.0,2.2583,2.295,2.32,2.3416,2.3608,2.3791,2.3973,2.4183,2.431,2.4392,2.4384,2.4455,2.4525,2.4586,2.4586,2.4624,2.4664,2.4702,2.5038,2.5773,2.5838,2.6336,2.7335,2.7392,2.7507,2.7701,2.7701,2.779,2.7981,2.8803,2.9609,3.0352,3.0422,3.0494,3.0561,3.0516,2.9572,2.8198,2.8079,2.7186,2.6172,2.7736,2.842,2.8791,3.0273,3.0809,3.0798,3.0799,3.08,3.0804,3.0795,3.0767,3.0725,3.0714,3.071,3.0704,3.0704,3.0653,3.061,3.0567,3.0544,3.0535,3.0516,3.0321,3.0168,3.0118,3.0023,2.9929,2.9897,2.9897,2.9872,2.9823,2.9815,2.9736,2.9503,2.9444,2.9243,2.8825,2.8676,2.854,2.8313,2.825,2.8209,2.8196,2.8196,2.8196,2.8196,2.8196,2.8196,2.8196,2.8196,2.814,2.8042,2.7996,2.7719,2.7165,2.707,2.6641,0.0,0.0,0.0,0.0,0.0,0.0,0.0,0.0,0.0,0.0,0.0,0.0,0.0,2.301,2.3122,2.3277,2.3434,2.358,2.3718,2.3732,2.3795,2.3927,2.3986,2.4006,2.4036,2.4054,2.4074,2.4151,2.4151,2.4161,2.419,2.4266,2.4515,2.5012,2.5176,2.5578,2.6202,2.6291,2.6403,2.6504,2.6497,2.6719,2.7171,2.8413,2.9285,2.9811,3.032,3.0353,3.0025,3.0135,2.9416,2.8215,2.7832,2.6878,2.5902,2.7659,2.8303,2.8538,3.0224,3.0796,3.08,3.0799,3.0809,3.0789,3.0765,3.0733,3.07,3.0704,3.0674,3.0642,3.0642,3.0629,3.0586,3.0564,3.0554,3.0505,3.0334,3.0254,3.0152,3.0042,2.9945,2.9897,2.9897,2.9897,2.9891,2.9851,2.9816,2.9737,2.9531,2.9312,2.9038,2.8725,2.852,2.8344,2.8209,2.8196,2.8196,2.8196,2.8196,2.8196,2.8196,2.8196,2.8196,2.8196,2.814,2.8071,2.8014,2.7839,2.7585,2.7277,2.6923,2.6521,0.0,0.0,0.0,0.0,0.0,0.0,0.0,0.0,0.0,0.0,0.0,0.0,2.3116,2.3341,2.3522,2.3577,2.3816,2.3996,2.3996,2.4006,2.4016,2.4016,2.4026,2.4064,2.4103,2.4113,2.4151,2.4208,2.419,2.4209,2.4228,2.4347,2.4424,2.4491,2.4756,2.4915,2.4942,2.5119,2.5191,2.5197,2.5206,2.5661,2.6568,2.8038,2.8772,2.8975,2.9954,3.0028,2.9435,2.9484,2.9033,2.8205,2.7348,2.6469,2.5902,2.7659,2.8305,2.8543,3.0212,3.08,3.08,3.0782,3.0785,3.0773,3.0717,3.0691,3.0678,3.0671,3.063,3.0593,3.0593,3.0606,3.0593,3.0559,3.0579,3.0499,3.02,3.0199,3.0159,2.9937,2.9897,2.9897,2.9897,2.988,2.9874,2.987,2.9799,2.9692,2.9491,2.9115,2.8844,2.87,2.8406,2.8196,2.8196,2.8196,2.8196,2.8196,2.8196,2.8196,2.8196,2.8168,2.8168,2.8168,2.8056,2.7968,2.7911,2.7632,2.7465,2.7355,2.6708,2.6398,0.0,0.0,0.0,0.0,0.0,0.0,0.0,0.0,0.0,0.0,0.0,0.0,2.3352,2.3477,2.3606,2.3886,2.3976,2.3996,2.3996,2.4054,2.4084,2.4084,2.4141,2.417,2.418,2.418,2.419,2.419,2.419,2.4257,2.4373,2.4381,2.454,2.4821,2.4881,2.4987,2.5162,2.518,2.5203,2.5206,2.5195,2.5696,2.6596,2.6947,2.7484,2.8198,2.9149,2.9563,2.9566,2.9589,2.9083,2.8205,2.7348,2.6469,2.5902,2.7659,2.8292,2.8533,3.0213,3.0799,3.0798,3.0737,3.0706,3.0712,3.0691,3.0653,3.0603,3.0618,3.0604,3.0607,3.0607,3.0602,3.0559,3.0449,3.0433,3.04,3.0299,3.0109,2.9937,2.9905,2.9897,2.9897,2.9897,2.9849,2.979,2.9747,2.9617,2.9384,2.8962,2.8857,2.8676,2.8313,2.8237,2.8196,2.8196,2.8196,2.8196,2.8196,2.8196,2.8196,2.8196,2.8085,2.8028,2.8028,2.8014,2.7853,2.7572,2.7526,2.7293,2.6891,2.6539,2.654,0.0,0.0,0.0,0.0,0.0,0.0,0.0,0.0,0.0,0.0,0.0,2.2786,2.3631,2.3806,2.3886,2.4026,2.4084,2.4103,2.4103,2.4141,2.4161,2.4161,2.418,2.419,2.419,2.419,2.4219,2.4321,2.4311,2.4392,2.4569,2.4636,2.4749,2.4902,2.5,2.5118,2.5195,2.5206,2.5241,2.5308,2.5317,2.5558,2.5989,2.6082,2.6592,2.7446,2.8375,2.8814,2.8869,2.8869,2.8654,2.8205,2.7348,2.647,2.5906,2.7664,2.8279,2.8495,3.021,3.0778,3.0737,3.07,3.0694,3.0688,3.0668,3.0622,3.0602,3.0595,3.0592,3.0598,3.0598,3.0598,3.0579,3.0439,3.0377,3.033,3.0207,3.0101,2.9984,2.9905,2.9874,2.9841,2.9841,2.979,2.9719,2.9645,2.9463,2.9241,2.9012,2.8773,2.8556,2.8393,2.8277,2.8196,2.8196,2.8196,2.8196,2.8196,2.8196,2.8168,2.8085,2.8042,2.7911,2.7721,2.7721,2.7647,2.7496,2.7421,2.728,2.7088,2.7233,2.7346,0.0,0.0,0.0,0.0,0.0,0.0,0.0,0.0,0.0,0.0,2.2178,2.2779,2.3605,2.3928,2.4103,2.4113,2.417,2.419,2.419,2.419,2.419,2.419,2.419,2.419,2.419,2.4219,2.4294,2.4389,2.4459,2.4559,2.4776,2.4872,2.4935,2.4981,2.5122,2.5204,2.5204,2.5238,2.5293,2.5401,2.543,2.5469,2.5526,2.5585,2.5956,2.6646,2.7571,2.7971,2.7991,2.8205,2.8166,2.7913,2.7251,2.6609,2.6202,2.7711,2.8379,2.8756,3.0242,3.0735,3.0703,3.0674,3.0676,3.0668,3.0625,3.0608,3.06,3.0607,3.0598,3.0598,3.0598,3.0564,3.0515,3.0414,3.0323,3.0219,3.0087,3.0042,2.9996,2.988,2.9815,2.9773,2.9773,2.9692,2.9598,2.9511,2.9301,2.9112,2.8971,2.87,2.8479,2.8432,2.8291,2.8196,2.8196,2.8196,2.82,2.814,2.8336,2.8369,2.8226,2.8376,2.8348,2.8088,2.8023,2.7816,2.7452,2.7345,2.7385,2.7592,2.7861,2.815,0.0,0.0,0.0,0.0,0.0,0.0,0.0,0.0,0.0,0.0,2.1689,2.2904,2.3024,2.3628,2.4113,2.418,2.4208,2.419,2.419,2.419,2.419,2.419,2.419,2.419,2.419,2.4311,2.4389,2.4398,2.4586,2.4764,2.4966,2.4986,2.5044,2.5176,2.5187,2.5212,2.5212,2.5336,2.5393,2.5401,2.5457,2.5529,2.5598,2.56,2.566,2.5802,2.6683,2.7074,2.7133,2.7952,2.7815,2.7056,2.702,2.6963,2.7044,2.789,2.8737,2.9554,3.0414,3.0703,3.069,3.0626,3.061,3.0602,3.0597,3.0602,3.0602,3.0598,3.0598,3.0598,3.0598,3.0505,3.0403,3.0398,3.0248,3.0079,2.9937,2.9857,2.9798,2.9816,2.9756,2.9711,2.9711,2.9589,2.9434,2.9241,2.916,2.8975,2.8582,2.8505,2.8432,2.8237,2.8196,2.8196,2.8196,2.8196,2.814,2.8028,2.8673,2.8991,2.8857,2.9401,2.9705,2.9689,2.9504,2.8712,2.7297,2.7297,2.7661,2.8351,2.8101,2.8745,0.0,0.0,0.0,0.0,0.0,0.0,0.0,0.0,0.0,1.9525,2.0556,2.1696,2.2804,2.3639,2.417,2.4208,2.419,2.419,2.419,2.419,2.419,2.419,2.419,2.4228,2.4321,2.4399,2.4551,2.4768,2.4847,2.4955,2.5122,2.5134,2.5157,2.5192,2.5247,2.5279,2.5339,2.5382,2.5432,2.5521,2.5547,2.56,2.5654,2.5654,2.568,2.5726,2.6039,2.6489,2.7075,2.7937,2.8114,2.7822,2.7825,2.7811,2.7811,2.8099,2.8711,2.9555,3.0357,3.0637,3.0628,3.061,3.0601,3.0601,3.0602,3.0598,3.0598,3.0598,3.0965,3.1366,3.1366,3.1692,3.1942,3.1728,3.1597,3.1474,3.1337,3.1356,3.1384,3.1289,3.122,3.1,3.0449,3.0265,3.0172,3.0118,2.9533,2.9193,2.9435,2.8902,2.8419,2.8223,2.8196,2.8196,2.8196,2.8557,2.8755,2.8711,2.9332,2.9632,2.949,2.9704,2.9726,2.9609,2.954,2.9248,2.8713,2.8713,2.8851,2.9127,2.9541,2.9896,0.0,0.0,0.0,0.0,0.0,0.0,0.0,0.0,0.0,1.8736,1.9541,2.0511,2.1905,2.285,2.3575,2.4116,2.419,2.419,2.419,2.419,2.419,2.419,2.4266,2.4339,2.4425,2.4583,2.476,2.4974,2.5031,0.0,2.5222,2.5222,2.5228,2.5238,2.5308,2.5354,2.541,2.5443,2.5513,2.5601,2.5614,2.5651,2.5707,2.5709,2.5709,2.5709,2.5692,2.6024,2.6628,2.7509,2.7863,2.7865,2.7831,2.8163,2.86,2.8288,2.8858,2.9883,3.0405,3.0593,3.0598,3.0598,3.0598,3.0598,3.0598,3.0598,3.0598,3.0598,3.1178,3.1787,3.1776,3.2255,3.2656,3.2377,3.2468,3.2616,3.2485,3.2338,3.2162,3.2081,3.1987,3.1662,3.0804,3.0629,3.049,3.0157,2.9473,2.9123,2.9453,2.8856,2.834,2.8209,2.8445,2.8606,2.8606,2.9157,2.9478,2.94,2.9967,3.0242,3.0109,3.0335,3.0404,3.0265,3.0265,3.0265,3.0265,2.9748,2.9644,2.992,3.0349,3.0455,0.0,0.0,0.0,0.0,0.0,0.0,0.0,0.0,0.0,1.7676,1.8684,1.951,2.0327,2.118,2.2271,2.3859,2.4135,2.4135,2.4135,2.4135,2.4144,2.4163,2.4347,2.4485,2.452,2.4799,2.5006,2.5006,2.5126,2.5228,2.5311,2.5292,2.5302,2.5288,2.5365,2.5395,2.5418,2.5534,2.5601,2.5603,2.5676,2.5707,2.5708,2.5692,2.5694,2.5694,2.5699,2.5698,2.5772,2.6631,2.7025,2.7029,2.6931,2.7979,2.9416,2.8449,2.9152,3.0598,3.0591,3.0598,3.0598,3.0598,3.0598,3.0598,3.0598,3.0598,3.0598,3.0636,3.1212,3.1825,3.1804,3.2118,3.2426,3.221,3.276,3.331,3.3239,3.2619,3.2059,3.2059,3.1953,3.1608,3.0772,3.0641,3.029,2.9289,2.897,2.8779,2.8554,2.8362,2.8231,2.8196,2.8909,2.939,2.939,2.9958,3.0231,3.0052,3.0591,3.0872,3.0731,3.142,3.18,3.18,3.18,3.18,3.18,3.03,2.9972,3.0713,3.0388,3.0403,1.2254,0.0,0.0,0.0,0.0,0.0,0.0,0.0,0.0,1.6363,1.7472,1.8684,1.9473,2.0299,2.1216,2.229,2.2455,2.2455,2.2455,2.2455,2.2719,2.3464,2.3595,2.3963,2.4771,2.4943,2.5066,0.0,2.5257,2.5288,2.5298,2.5298,2.5313,2.537,2.5398,2.5446,2.5539,2.5589,2.5618,2.5664,2.5689,2.5694,2.5698,2.5698,2.5699,2.5699,2.57,2.57,2.5779,2.6638,2.7362,2.787,2.7163,2.8314,3.0178,2.8662,2.9156,3.0595,3.0607,3.0598,3.0598,3.0598,3.0598,3.0598,3.0598,3.0598,3.0714,3.1289,3.2017,3.282,3.3777,3.408,3.4083,3.3824,3.3926,3.4061,3.3946,3.3743,3.3594,3.3594,3.3552,3.3113,3.1719,3.1478,3.1143,3.0118,2.989,2.9698,2.9406,2.9318,2.9013,2.8281,2.8792,2.9178,2.9178,3.0138,3.0712,3.0661,3.1219,3.1527,3.1489,3.1679,3.18,3.18,3.18,3.18,3.18,3.1369,3.1282,3.1489,3.11,3.0873,0.0,0.0,0.0,0.0,0.0,0.0,0.0,1.518,0.0,0.0,1.6952,1.7851,1.8647,1.9172,1.9667,2.017,2.0286,2.0651,2.1654,2.1852,2.2099,2.268,2.2869,2.3225,2.389,2.4028,2.4128,2.4245,2.4591,2.4947,2.5288,2.5327,2.5357,2.541,2.5441,2.5529,2.5605,2.5627,2.5664,2.5696,2.5696,2.5698,2.57,2.5701,2.5701,2.5701,2.5702,2.5703,2.576,2.6619,2.7264,2.7654,2.7108,2.8223,3.0028,2.8983,2.9442,3.0598,3.0598,3.0598,3.0598,3.0598,3.0598,3.0598,3.0598,3.0598,3.0757,3.1463,3.2397,3.3401,3.4481,3.4704,3.4567,3.4363,3.4316,3.4293,3.4221,3.4197,3.4197,3.4197,3.3918,3.3287,3.2017,3.1515,3.0958,2.9952,2.9682,2.9527,2.9243,2.913,2.8945,2.8607,2.9184,2.9693,2.9951,3.085,3.1411,3.1411,3.165,3.18,3.18,3.18,3.18,3.18,3.18,3.18,3.18,3.18,3.1726,3.1557,3.1308,3.1075,0.0,0.0,0.0,0.0,0.0,0.0,1.5002,1.492,1.5099,0.0,1.6707,1.7007,1.7711,1.7993,1.8085,1.7993,1.8176,1.9088,2.1236,2.1652,2.1779,2.1894,2.218,0.0,2.252,2.2705,2.2797,2.2797,2.3509,2.4264,2.4995,2.5176,2.5267,2.5282,2.5491,2.5598,2.5603,2.5672,2.57,2.57,2.57,2.57,2.57,2.5702,2.5703,2.5703,2.5703,2.57,2.5745,2.6462,2.6871,2.7048,2.7047,2.8054,2.9505,2.936,2.9843,3.0598,3.0598,3.0598,3.0598,3.0598,3.0598,3.0598,3.0593,3.0593,3.0733,3.1418,3.2605,3.3809,3.4423,3.448,3.434,3.4233,3.4197,3.4197,3.4197,3.4197,3.4197,3.4197,3.3559,3.2741,3.1942,3.1125,3.0272,2.9252,2.8995,2.8822,2.8536,2.8461,2.8593,2.9048,2.9854,3.0587,3.1109,3.1725,3.2072,3.2072,3.191,3.18,3.18,3.18,3.18,3.18,3.18,3.18,3.18,3.18,3.1578,3.1249,3.123,3.1112,1.5631,1.5562,1.5409,0.0,0.0,0.0,1.4814,1.5411,1.6012,0.0,1.5527,1.606,1.6226,1.7313,1.7971,1.7326,1.8361,1.9387,1.981,1.9984,2.0362,2.1174,0.0,0.0,2.2652,2.278,2.2797,2.2797,2.2951,2.315,2.3365,2.4048,2.4467,2.4514,2.5226,2.564,2.5675,2.5699,2.5701,2.5702,2.5702,2.5702,2.5703,2.5703,2.5703,2.5703,2.5698,2.5691,2.5706,2.5818,2.6683,2.7946,2.7893,2.8894,3.0275,2.9554,2.9843,3.0598,3.0598,3.0598,3.0598,3.0598,3.0598,3.0593,3.053,3.0525,3.0763,3.1972,3.342,3.4595,3.4475,3.434,3.4233,3.4209,3.4197,3.4197,3.4197,3.4197,3.4197,3.4197,3.3559,3.2741,3.1942,3.1125,3.0272,2.9252,2.9484,2.9452,2.8608,2.9312,2.97,2.9157,3.0108,3.0836,3.0958,3.1514,3.1873,3.1873,3.1818,3.18,3.18,3.18,3.18,3.18,3.18,3.18,3.18,3.169,3.1615,3.1504,3.1351,3.1274,1.6716,1.6333,1.6194,1.6746,0.0,0.0,0.0,0.0,1.5622,1.5723,1.5778,1.5919,1.6331,0.0,1.6995,1.6995,1.7409,1.797,1.8744,1.9007,0.0,0.0,0.0,0.0,2.1462,2.1543,2.1716,2.212,2.2188,2.2404,2.2861,2.3356,2.3826,2.4295,2.4766,2.5227,2.5701,2.5702,2.5703,2.5703,2.5703,2.5703,2.5703,2.5703,2.5703,2.5699,2.5692,2.5654,2.5638,2.6021,2.6946,2.8107,2.8104,2.886,2.9947,2.9939,3.0211,3.0598,3.0598,3.0588,3.0554,3.0554,3.055,3.054,3.0505,3.0929,3.1585,3.2257,3.346,3.4508,3.4333,3.4245,3.4197,3.4197,3.4197,3.4197,3.4197,3.4197,3.4197,3.4197,3.3559,3.2741,3.1942,3.079,2.9808,2.9197,2.9533,2.9626,2.9017,2.9651,3.0099,3.0002,3.0538,3.1029,3.1322,3.163,3.18,3.18,3.18,3.18,3.18,3.18,3.18,3.18,3.18,3.1781,3.1709,3.1596,3.1557,3.1557,3.1445,3.1349,0.0,0.0,0.0,0.0,0.0,1.6395,0.0,0.0,0.0,0.0,0.0,0.0,0.0,0.0,0.0,0.0,0.0,0.0,0.0,0.0,0.0,0.0,0.0,0.0,1.9965,1.9908,2.0212,2.1196,2.1017,2.132,2.2353,2.2641,2.3095,2.3823,2.4194,2.4746,2.5449,2.5625,2.5703,2.5703,2.5703,2.5703,2.5703,2.5703,2.5699,2.5706,2.5677,2.5601,2.5559,2.6262,2.7113,2.8019,2.8233,2.8838,2.9631,3.0346,3.0598,3.0598,3.0593,3.0554,3.0496,3.0491,3.0495,3.0469,3.0447,3.1376,3.2439,3.2361,3.3279,3.4269,3.4209,3.4197,3.4197,3.4197,3.4197,3.4197,3.4197,3.4197,3.4197,3.4197,3.3429,3.2555,3.1905,3.0575,2.9535,2.9317,2.952,2.9643,2.9587,2.9927,3.0361,3.0855,3.0994,3.1271,3.1766,3.18,3.18,3.18,3.18,3.18,3.18,3.18,3.18,3.18,3.1764,3.1709,3.1598,3.1538,3.1498,3.1462,3.146,3.1363,0.0,0.0,0.0,0.0,1.8833,0.0,0.0,0.0,0.0,0.0,0.0,0.0,0.0,0.0,0.0,0.0,0.0,0.0,0.0,0.0,0.0,0.0,0.0,0.0,0.0,1.8449,1.8677,2.0308,1.9075,1.895,2.0594,2.1479,2.2019,2.2165,2.3613,2.4453,2.4551,2.5312,2.5703,2.5703,2.5703,2.5703,2.5703,2.5697,2.5709,2.5685,2.5563,2.5515,2.5517,2.561,2.6583,2.8088,2.8851,2.9698,3.0462,3.0559,3.0598,3.0593,3.053,3.0515,3.0491,3.0495,3.0469,3.0381,3.0273,3.1329,3.2529,3.2222,3.3296,3.4495,3.4257,3.4197,3.4197,3.4197,3.4197,3.4197,3.4197,3.4197,3.4197,3.4197,3.2983,3.1905,3.1831,3.1006,3.026,2.9942,2.9738,2.9749,3.0142,3.0546,3.082,3.089,3.1374,3.1715,3.1783,3.18,3.18,3.18,3.18,3.18,3.18,3.18,3.18,3.18,3.169,3.1617,3.1598,3.1538,3.1443,3.1315,3.1252,3.121,0.0,0.0,0.0,0.0,0.0,0.0,1.6423,0.0,1.5548,0.0,0.0,0.0,0.0,0.0,0.0,0.0,0.0,0.0,0.0,0.0,0.0,0.0,0.0,0.0,0.0,0.0,0.0,0.0,1.8521,1.8408,1.9639,2.0592,2.1346,2.1875,2.3047,2.3887,2.4394,2.5254,2.5703,2.5703,2.5703,2.5702,2.5698,2.5691,2.5651,2.5587,2.5524,2.5499,2.5498,2.5503,2.6489,2.8046,2.839,2.9356,3.0535,3.0535,3.0545,3.0535,3.05,3.0465,3.0444,3.0436,3.0419,3.0456,3.0795,3.16,3.2479,3.2737,3.3563,3.434,3.4233,3.4197,3.4197,3.4197,3.4197,3.4197,3.4197,3.4197,3.4048,3.3584,3.2953,3.234,3.183,3.096,3.0256,3.0033,3.0395,3.0721,3.0826,3.1167,3.1425,3.1425,3.1647,3.18,3.18,3.18,3.18,3.18,3.18,3.18,3.18,3.18,3.1764,3.169,3.1617,3.1542,3.1428,3.1389,3.1349,3.1252,3.1235,3.1232,2.1653,0.0,0.0,0.0,0.0,0.0,0.0,0.0,0.0,0.0,0.0,0.0,0.0,0.0,0.0,0.0,0.0,0.0,0.0,0.0,0.0,0.0,0.0,0.0,0.0,0.0,0.0,0.0,0.0,1.7796,1.9138,1.9861,2.0644,2.1523,2.2344,2.3184,2.4043,2.4902,2.5469,2.5703,2.5703,2.5699,2.5707,2.5654,2.5595,2.5501,2.548,2.5478,2.548,2.5727,2.6681,2.8,2.8251,2.9207,3.0476,3.0486,3.0495,3.0504,3.0474,3.0447,3.04,3.039,3.0361,3.0439,3.1104,3.1748,3.2383,3.3018,3.3694,3.4197,3.4197,3.4197,3.4197,3.4197,3.4197,3.4141,3.3918,3.3863,3.3621,3.2834,3.2674,3.2435,3.1814,3.1068,3.0582,3.0591,3.1128,3.1523,3.149,3.1672,3.18,3.18,3.18,3.18,3.18,3.18,3.18,3.18,3.18,3.18,3.18,3.18,3.1727,3.1598,3.1579,3.1485,3.1295,3.1293,3.1252,3.119,3.1252,3.1252,0.0,0.0,0.0,1.9018,0.0,0.0,0.0,0.0,1.6817,0.0,0.0,0.0,0.0,0.0,0.0,0.0,0.0,0.0,0.0,0.0,0.0,0.0,0.0,0.0,0.0,0.0,1.5994,0.0,1.6376,0.0,1.9061,1.9294,1.9746,2.0605,2.1484,2.2324,2.3125,2.4004,2.4863,2.5703,2.5696,2.5708,2.5705,2.5578,2.5507,2.5498,2.543,2.5406,2.5479,2.6307,2.7147,2.7996,2.8825,2.9673,3.0403,3.0474,3.0504,3.0499,3.0428,3.0394,3.0404,3.0404,3.026,3.024,3.0902,3.1581,3.2231,3.2847,3.3577,3.4197,3.4197,3.4197,3.4197,3.4197,3.4197,3.3993,3.3224,3.3039,3.2797,3.1998,3.1793,3.1728,3.1691,3.1614,3.1685,3.2083,3.1828,3.1748,3.2212,3.1984,3.18,3.18,3.18,3.18,3.18,3.18,3.18,3.18,3.18,3.18,3.18,3.18,3.1727,3.1598,3.1538,3.1443,3.1295,3.1232,3.121,3.119,3.121,3.121,0.0,0.0,2.4044,2.1374,0.0,0.0,0.0,0.0,0.0,0.0,0.0,0.0,0.0,0.0,0.0,0.0,0.0,0.0,0.0,0.0,0.0,0.0,0.0,0.0,0.0,0.0,0.0,0.0,1.6864,0.0,1.8337,1.9511,2.0039,1.9746,2.1133,2.2285,2.3086,2.3965,2.4844,2.5703,2.5696,2.5679,2.5637,2.5549,2.5483,2.543,2.5401,2.54,2.5477,2.6341,2.7171,2.7981,2.8853,2.9699,3.0408,3.0442,3.0436,3.0439,3.0408,3.0396,3.0373,3.0248,3.0545,3.1055,3.1609,3.2285,3.3026,3.3618,3.3993,3.4197,3.4197,3.4197,3.4067,3.3528,3.3398,3.3187,3.2388,3.2221,3.2117,3.1793,3.1733,3.1834,3.2293,3.233,3.2309,3.2215,3.2238,3.2271,3.23,3.2002,3.18,3.18,3.18,3.18,3.18,3.18,3.18,3.18,3.18,3.18,3.18,3.1709,3.1634,3.1538,3.1426,3.1312,3.1232,3.121,3.119,3.119,3.119,3.119,2.2772,2.377,0.0,2.2115,2.1436,0.0,1.7739,0.0,0.0,0.0,0.0,0.0,0.0,0.0,0.0,0.0,0.0,0.0,0.0,0.0,0.0,0.0,0.0,0.0,0.0,0.0,1.5446,1.6897,1.6529,0.0,0.0,0.0,2.0019,1.9766,2.0859,2.1973,2.3125,2.3691,2.455,2.5701,2.5686,2.5636,2.5569,2.5499,2.5449,2.5408,2.5406,2.5397,2.5493,2.6641,2.7431,2.8013,2.9162,2.994,3.0404,3.0408,3.0402,3.0404,3.0404,3.0355,3.0318,3.0493,3.086,3.1354,3.2248,3.2847,3.334,3.4022,3.4197,3.4197,3.4197,3.3993,3.3652,3.3131,3.2778,3.234,3.1518,3.1556,3.1663,3.1298,3.167,3.2188,3.2637,3.2912,3.3018,3.2798,3.2709,3.262,3.2504,3.2091,3.18,3.18,3.18,3.18,3.18,3.18,3.18,3.18,3.18,3.1781,3.1727,3.1653,3.1559,3.1443,3.1351,3.1274,3.119,3.119,3.119,3.119,3.119,3.119]}]]